[[{"header":{"parameterUnit":"m.s-1","parameterCategory":1,"la1":30.6,"la2":29.2853,"lo1":-89.7004,"lo2":-87.6739,"dy":0.0162,"dx":0.0183,"nx":112,"ny":82,"refTime":"2024-05-12T18:00:00:Z","depth":0,"parameterNumber":2,"parameterNumberName":"U-component_of_WINDS"},"data":[0.0,0.0,0.0,0.0,0.0,0.0,0.0,0.0,0.0,0.0,0.0,0.0,0.0,0.0,0.0,0.0,0.0,0.0,0.0,0.0,0.0,0.0,0.0,0.0,0.0,0.0,0.0,0.0,0.0,0.0,0.0,0.0,0.0,0.0,0.0,0.0,0.0,0.0,0.0,0.0,0.0,0.0,0.0,0.0,0.0,0.0,0.0,0.0,0.0,0.0,0.0,0.0,0.0,0.0,0.0,0.0,0.0,0.0,0.0,0.0,0.0,0.0,0.0,0.0,0.0,0.0,0.0,0.0,0.0,0.0,0.0,0.0,0.0,0.0,0.0,0.0,0.0,0.0,0.0,0.0,0.0,0.0,0.0,0.0,0.0,0.0,0.0,0.0,0.0,0.0,-5.2275,-5.1513,-5.1462,-5.1322,-5.0862,-5.0178,-4.9794,-4.9794,0.0,0.0,0.0,0.0,0.0,0.0,0.0,0.0,0.0,0.0,0.0,0.0,0.0,0.0,0.0,0.0,0.0,0.0,0.0,0.0,0.0,0.0,0.0,0.0,0.0,0.0,0.0,0.0,0.0,0.0,0.0,0.0,0.0,0.0,0.0,0.0,0.0,0.0,0.0,0.0,0.0,0.0,0.0,0.0,0.0,0.0,0.0,0.0,0.0,0.0,0.0,0.0,0.0,0.0,0.0,0.0,0.0,0.0,0.0,0.0,0.0,0.0,0.0,0.0,0.0,0.0,0.0,0.0,0.0,0.0,0.0,0.0,0.0,0.0,0.0,0.0,0.0,0.0,0.0,0.0,0.0,0.0,0.0,0.0,0.0,0.0,0.0,0.0,0.0,0.0,0.0,0.0,0.0,0.0,0.0,0.0,0.0,0.0,0.0,0.0,0.0,0.0,0.0,0.0,-5.2275,-5.1513,-5.171,-5.1615,-5.0845,-5.0692,-5.0618,-5.0618,0.0,0.0,0.0,0.0,0.0,0.0,0.0,0.0,0.0,0.0,0.0,0.0,0.0,0.0,0.0,0.0,0.0,0.0,0.0,0.0,0.0,0.0,0.0,0.0,0.0,0.0,0.0,0.0,0.0,0.0,0.0,0.0,0.0,0.0,0.0,0.0,0.0,0.0,0.0,0.0,0.0,0.0,0.0,0.0,0.0,0.0,0.0,0.0,0.0,0.0,0.0,0.0,0.0,0.0,0.0,0.0,0.0,0.0,0.0,0.0,0.0,0.0,0.0,0.0,0.0,0.0,0.0,0.0,0.0,0.0,0.0,0.0,0.0,0.0,0.0,0.0,0.0,0.0,0.0,0.0,0.0,0.0,0.0,0.0,0.0,0.0,0.0,0.0,0.0,0.0,0.0,0.0,0.0,0.0,0.0,0.0,0.0,0.0,0.0,0.0,0.0,0.0,0.0,-5.432,-5.3819,-5.3437,-5.3383,-5.3095,-5.2473,-5.1828,-5.1463,-5.1463,-5.0325,0.0,0.0,0.0,0.0,0.0,0.0,0.0,0.0,0.0,0.0,0.0,0.0,0.0,0.0,0.0,0.0,0.0,0.0,0.0,0.0,0.0,0.0,0.0,0.0,0.0,0.0,0.0,0.0,0.0,0.0,0.0,0.0,0.0,0.0,0.0,0.0,0.0,0.0,0.0,0.0,0.0,0.0,0.0,0.0,0.0,0.0,0.0,0.0,0.0,0.0,0.0,0.0,0.0,0.0,0.0,0.0,0.0,0.0,0.0,0.0,0.0,0.0,0.0,0.0,0.0,0.0,0.0,0.0,0.0,0.0,0.0,0.0,0.0,0.0,0.0,0.0,0.0,0.0,0.0,0.0,0.0,0.0,0.0,0.0,0.0,0.0,0.0,0.0,0.0,0.0,0.0,0.0,0.0,0.0,0.0,0.0,0.0,0.0,0.0,0.0,0.0,0.0,-5.5856,-5.5594,-5.5693,-5.5236,-5.4721,-5.4149,-5.3082,-5.2377,-5.2291,-5.1536,0.0,0.0,0.0,0.0,0.0,0.0,0.0,0.0,0.0,0.0,0.0,0.0,0.0,0.0,0.0,0.0,0.0,0.0,0.0,0.0,0.0,0.0,0.0,0.0,0.0,0.0,0.0,0.0,0.0,0.0,0.0,0.0,0.0,0.0,0.0,0.0,0.0,0.0,0.0,0.0,0.0,0.0,0.0,0.0,0.0,0.0,0.0,0.0,0.0,0.0,0.0,0.0,0.0,0.0,0.0,0.0,0.0,0.0,0.0,0.0,0.0,0.0,0.0,0.0,0.0,0.0,0.0,0.0,0.0,0.0,0.0,0.0,0.0,0.0,0.0,0.0,0.0,0.0,0.0,0.0,0.0,0.0,0.0,0.0,0.0,0.0,0.0,0.0,0.0,0.0,0.0,0.0,0.0,0.0,0.0,0.0,0.0,0.0,0.0,0.0,0.0,0.0,-5.7385,-5.699,-5.7374,-5.6747,-5.5936,-5.5081,-5.4187,-5.3493,-5.3136,-5.2344,0.0,0.0,0.0,0.0,0.0,0.0,0.0,0.0,0.0,0.0,0.0,0.0,0.0,0.0,0.0,0.0,0.0,0.0,0.0,0.0,0.0,0.0,0.0,0.0,0.0,0.0,0.0,0.0,0.0,0.0,0.0,0.0,0.0,0.0,0.0,0.0,0.0,0.0,0.0,0.0,0.0,0.0,0.0,0.0,0.0,0.0,0.0,0.0,0.0,0.0,0.0,0.0,0.0,0.0,0.0,0.0,0.0,0.0,0.0,0.0,0.0,0.0,0.0,0.0,0.0,0.0,0.0,0.0,0.0,0.0,0.0,0.0,0.0,0.0,0.0,0.0,0.0,0.0,0.0,0.0,0.0,0.0,0.0,0.0,0.0,0.0,0.0,0.0,0.0,0.0,0.0,0.0,0.0,0.0,0.0,0.0,0.0,0.0,0.0,0.0,0.0,0.0,-5.8011,-5.7851,0.0,-5.7506,-5.703,-5.6708,-5.5408,-5.4558,-5.4402,0.0,0.0,0.0,0.0,0.0,0.0,0.0,0.0,0.0,0.0,0.0,0.0,0.0,0.0,0.0,0.0,0.0,0.0,0.0,0.0,0.0,0.0,0.0,0.0,0.0,0.0,0.0,0.0,0.0,0.0,0.0,0.0,0.0,0.0,0.0,0.0,0.0,0.0,0.0,0.0,0.0,0.0,0.0,0.0,0.0,0.0,0.0,0.0,0.0,0.0,0.0,0.0,0.0,0.0,0.0,0.0,0.0,0.0,0.0,0.0,0.0,0.0,0.0,0.0,0.0,0.0,0.0,0.0,0.0,0.0,0.0,0.0,0.0,0.0,0.0,0.0,0.0,0.0,0.0,0.0,0.0,0.0,0.0,0.0,0.0,0.0,0.0,0.0,0.0,0.0,0.0,0.0,0.0,0.0,0.0,0.0,0.0,0.0,0.0,0.0,0.0,0.0,-5.905,-5.8858,-5.8781,0.0,-5.8552,-5.8142,-5.8033,-5.6705,-5.5783,-5.551,0.0,0.0,0.0,0.0,0.0,0.0,0.0,0.0,0.0,0.0,0.0,0.0,0.0,0.0,0.0,0.0,0.0,0.0,0.0,0.0,0.0,0.0,0.0,0.0,0.0,0.0,0.0,0.0,0.0,0.0,0.0,0.0,0.0,0.0,0.0,0.0,0.0,0.0,0.0,0.0,0.0,0.0,0.0,0.0,0.0,0.0,0.0,0.0,0.0,0.0,0.0,0.0,0.0,0.0,0.0,0.0,0.0,0.0,0.0,0.0,0.0,0.0,0.0,0.0,0.0,0.0,0.0,0.0,0.0,0.0,0.0,0.0,0.0,0.0,0.0,0.0,0.0,0.0,0.0,0.0,0.0,0.0,0.0,0.0,0.0,0.0,0.0,0.0,0.0,0.0,0.0,0.0,0.0,0.0,0.0,0.0,0.0,0.0,0.0,0.0,0.0,0.0,-6.0589,-6.005,-5.9858,-6.0704,-6.0012,-5.9355,-5.8953,-5.811,-5.7241,0.0,0.0,0.0,0.0,0.0,0.0,0.0,0.0,0.0,0.0,0.0,0.0,0.0,0.0,0.0,0.0,0.0,0.0,0.0,0.0,0.0,0.0,0.0,0.0,0.0,0.0,0.0,0.0,0.0,0.0,0.0,0.0,0.0,0.0,0.0,0.0,0.0,0.0,0.0,0.0,0.0,0.0,0.0,0.0,0.0,0.0,0.0,0.0,0.0,0.0,0.0,0.0,0.0,0.0,0.0,0.0,0.0,0.0,0.0,0.0,0.0,0.0,0.0,0.0,0.0,0.0,0.0,0.0,0.0,0.0,0.0,0.0,0.0,0.0,0.0,0.0,0.0,0.0,0.0,0.0,0.0,0.0,0.0,0.0,0.0,0.0,0.0,0.0,0.0,0.0,0.0,0.0,0.0,0.0,0.0,0.0,0.0,0.0,0.0,0.0,0.0,0.0,0.0,-6.1639,-6.0973,-6.0512,-6.0781,-6.055,-6.0361,-6.0238,-5.9177,-5.8406,-5.8167,0.0,0.0,0.0,0.0,0.0,0.0,0.0,0.0,0.0,0.0,0.0,0.0,0.0,0.0,0.0,0.0,0.0,0.0,0.0,0.0,0.0,0.0,0.0,0.0,0.0,0.0,0.0,0.0,0.0,0.0,0.0,0.0,0.0,0.0,0.0,0.0,0.0,0.0,0.0,0.0,0.0,0.0,0.0,0.0,0.0,0.0,0.0,0.0,0.0,0.0,0.0,0.0,0.0,0.0,0.0,0.0,0.0,0.0,0.0,0.0,0.0,0.0,0.0,0.0,0.0,0.0,0.0,0.0,0.0,0.0,0.0,0.0,0.0,0.0,0.0,0.0,0.0,0.0,0.0,0.0,0.0,0.0,0.0,0.0,0.0,0.0,0.0,0.0,0.0,0.0,0.0,0.0,0.0,0.0,0.0,0.0,0.0,0.0,0.0,0.0,0.0,0.0,-6.2589,-6.2127,-6.1781,-6.1781,-6.1781,-6.1781,-6.1781,-6.0815,-6.004,-5.9642,0.0,0.0,0.0,0.0,0.0,0.0,0.0,0.0,0.0,0.0,0.0,0.0,0.0,0.0,0.0,0.0,0.0,0.0,0.0,0.0,0.0,0.0,0.0,0.0,0.0,0.0,0.0,0.0,0.0,0.0,0.0,0.0,0.0,0.0,0.0,0.0,0.0,0.0,0.0,0.0,0.0,0.0,0.0,0.0,0.0,0.0,0.0,0.0,0.0,0.0,0.0,0.0,0.0,0.0,0.0,0.0,0.0,0.0,0.0,0.0,0.0,0.0,0.0,0.0,0.0,0.0,0.0,0.0,0.0,0.0,0.0,0.0,0.0,0.0,0.0,0.0,0.0,0.0,0.0,0.0,0.0,0.0,0.0,0.0,0.0,0.0,0.0,0.0,0.0,0.0,0.0,0.0,0.0,0.0,0.0,0.0,0.0,0.0,0.0,0.0,0.0,0.0,-6.3423,-6.3346,-6.3308,-6.3308,-6.3308,-6.3308,-6.3308,-6.2627,-6.1797,-6.0897,0.0,0.0,0.0,0.0,0.0,0.0,0.0,0.0,0.0,0.0,0.0,0.0,0.0,0.0,0.0,0.0,0.0,0.0,0.0,0.0,0.0,0.0,0.0,0.0,0.0,0.0,0.0,0.0,0.0,0.0,0.0,0.0,0.0,0.0,0.0,0.0,0.0,0.0,0.0,0.0,0.0,0.0,0.0,0.0,0.0,0.0,0.0,0.0,0.0,0.0,0.0,0.0,0.0,0.0,0.0,0.0,0.0,0.0,0.0,0.0,-6.2231,0.0,0.0,0.0,0.0,0.0,0.0,0.0,0.0,0.0,0.0,0.0,0.0,0.0,0.0,0.0,0.0,0.0,0.0,0.0,0.0,0.0,0.0,0.0,0.0,0.0,0.0,0.0,0.0,0.0,0.0,0.0,0.0,0.0,0.0,0.0,0.0,0.0,0.0,0.0,0.0,0.0,-6.432,-6.3743,-6.3308,-6.3308,-6.3308,-6.3308,-6.3308,-6.3128,-6.2682,-6.1863,-6.1129,0.0,0.0,0.0,0.0,0.0,0.0,0.0,0.0,0.0,0.0,0.0,0.0,0.0,0.0,0.0,0.0,0.0,0.0,0.0,0.0,0.0,0.0,0.0,0.0,0.0,0.0,0.0,0.0,0.0,0.0,0.0,0.0,0.0,0.0,0.0,0.0,0.0,0.0,0.0,0.0,0.0,0.0,0.0,0.0,0.0,0.0,0.0,0.0,0.0,0.0,0.0,0.0,0.0,0.0,0.0,0.0,0.0,0.0,0.0,0.0,-6.3308,0.0,0.0,0.0,0.0,0.0,0.0,0.0,0.0,0.0,0.0,0.0,0.0,0.0,0.0,0.0,0.0,0.0,0.0,0.0,0.0,0.0,0.0,0.0,0.0,0.0,0.0,0.0,0.0,0.0,0.0,0.0,0.0,0.0,0.0,0.0,0.0,0.0,0.0,0.0,0.0,-6.5205,-6.482,-6.4551,-6.4551,-6.4551,-6.4551,-6.4551,-6.4166,-6.3642,-6.3025,-6.2333,0.0,0.0,0.0,0.0,0.0,0.0,0.0,0.0,0.0,0.0,0.0,0.0,0.0,0.0,0.0,0.0,0.0,0.0,0.0,0.0,0.0,0.0,0.0,0.0,0.0,0.0,0.0,0.0,0.0,0.0,0.0,0.0,0.0,0.0,0.0,0.0,0.0,0.0,0.0,0.0,0.0,0.0,0.0,0.0,0.0,0.0,0.0,0.0,0.0,0.0,0.0,0.0,0.0,-6.5897,-6.5897,-6.5897,-6.5897,-6.5897,-6.582,-6.4397,-6.3743,-6.3743,-6.3743,0.0,0.0,0.0,0.0,0.0,0.0,0.0,0.0,0.0,0.0,0.0,0.0,0.0,0.0,0.0,0.0,0.0,0.0,0.0,0.0,0.0,0.0,0.0,0.0,-6.3628,-6.3743,-6.3743,0.0,0.0,0.0,0.0,0.0,0.0,0.0,0.0,0.0,0.0,0.0,-6.5897,-6.5897,-6.5897,-6.5897,-6.5897,-6.5897,-6.5897,-6.5243,-6.459,-6.4067,-6.335,-6.2414,0.0,0.0,0.0,0.0,0.0,0.0,0.0,0.0,0.0,0.0,0.0,0.0,0.0,0.0,0.0,0.0,0.0,0.0,0.0,0.0,0.0,0.0,0.0,0.0,0.0,0.0,0.0,0.0,0.0,0.0,0.0,0.0,-6.1639,-6.1755,0.0,0.0,0.0,0.0,0.0,0.0,0.0,0.0,0.0,0.0,0.0,0.0,0.0,-6.5782,-6.5897,-6.5897,-6.5897,-6.5897,-6.5897,-6.5897,-6.5897,-6.5897,-6.5897,-6.5897,-6.5667,0.0,-6.5551,-6.5551,0.0,0.0,0.0,0.0,0.0,0.0,0.0,0.0,0.0,0.0,0.0,0.0,0.0,0.0,0.0,0.0,0.0,0.0,0.0,0.0,0.0,0.0,-6.4436,-6.4436,-6.5013,-6.5551,0.0,-6.4974,-6.4436,-6.4436,-6.5051,0.0,0.0,0.0,0.0,0.0,0.0,0.0,-6.5897,-6.5897,-6.5897,-6.5897,-6.5897,-6.5897,-6.5897,-6.5782,-6.5385,-6.4565,-6.4411,-6.3924,-6.3002,-6.1784,0.0,0.0,0.0,0.0,0.0,0.0,0.0,0.0,0.0,0.0,0.0,0.0,0.0,0.0,0.0,0.0,0.0,0.0,0.0,0.0,0.0,0.0,0.0,0.0,0.0,0.0,0.0,0.0,0.0,-6.2012,-6.2781,-6.2781,-6.3512,-6.4051,0.0,0.0,0.0,0.0,0.0,0.0,0.0,0.0,0.0,-6.5897,-6.5897,-6.5897,-6.5897,-6.5897,-6.5897,-6.5897,-6.5897,-6.5897,-6.5897,-6.5897,-6.5897,-6.5897,-6.5897,-6.5897,-6.5897,-6.5897,-6.5897,-6.5859,0.0,0.0,0.0,0.0,-6.4743,-6.4743,-6.4743,-6.4743,-6.4743,-6.4743,0.0,0.0,0.0,0.0,0.0,0.0,0.0,-6.4743,0.0,0.0,-6.532,-6.532,-6.5628,-6.5897,-6.5897,-6.559,-6.532,0.0,-6.5628,-6.5897,-6.5897,0.0,0.0,0.0,0.0,-6.5897,-6.5897,-6.5897,-6.5897,-6.5897,-6.5897,-6.5897,-6.5897,-6.5897,-6.5743,-6.5359,-6.532,-6.4936,-6.4089,-6.3488,-6.2809,0.0,0.0,0.0,0.0,0.0,0.0,0.0,0.0,0.0,0.0,0.0,0.0,0.0,0.0,0.0,0.0,0.0,0.0,0.0,0.0,0.0,0.0,0.0,0.0,0.0,0.0,0.0,0.0,-6.3128,-6.3628,-6.3628,-6.4397,-6.4936,0.0,0.0,0.0,0.0,0.0,0.0,-6.5897,-6.5897,-6.5897,-6.5897,-6.5897,-6.5897,-6.5897,-6.609,-6.6205,-6.6205,-6.6436,-6.6551,-6.6551,-6.6551,-6.6551,-6.6513,-6.6282,-6.6205,-6.6205,-6.5974,-6.5897,-6.5897,-6.5897,-6.5897,-6.5897,-6.5897,-6.5897,-6.5897,-6.5897,-6.5897,-6.5897,-6.5897,-6.5897,-6.5897,-6.5897,0.0,0.0,0.0,0.0,-6.5897,-6.5897,-6.5897,-6.5897,-6.5897,-6.5897,-6.5897,-6.5897,-6.5897,-6.5897,0.0,-6.5897,-6.5897,-6.5897,0.0,0.0,0.0,0.0,-6.5897,-6.5897,-6.5897,-6.5897,-6.5897,-6.5897,-6.5897,-6.5897,-6.5897,-6.5897,-6.5897,-6.5897,-6.559,-6.4974,-6.4705,-6.4282,-6.3666,0.0,0.0,0.0,0.0,0.0,0.0,0.0,0.0,0.0,0.0,0.0,0.0,0.0,0.0,0.0,0.0,0.0,0.0,0.0,0.0,0.0,0.0,0.0,0.0,0.0,0.0,0.0,0.0,0.0,-6.4551,-6.5282,0.0,0.0,0.0,0.0,-6.5897,-6.5897,-6.5897,-6.5897,-6.5897,-6.5897,-6.5897,-6.5897,-6.5897,-6.5897,-6.6667,-6.7051,-6.7051,-6.7898,-6.8282,-6.8282,-6.8282,-6.8282,-6.8244,-6.7398,-6.7051,-6.6974,-6.6205,-6.5897,-6.5897,-6.5897,-6.5897,-6.5897,-6.5897,-6.5897,-6.5897,-6.5897,-6.5897,-6.5897,-6.5897,-6.5897,-6.5897,-6.5897,-6.5897,0.0,0.0,-6.5897,-6.5897,-6.5897,-6.5897,-6.5897,-6.5897,-6.5897,-6.5897,-6.5897,-6.5897,-6.5897,0.0,-6.5897,-6.5897,-6.5897,0.0,-6.5897,-6.5897,-6.5897,-6.5897,-6.5897,-6.5897,-6.5897,-6.5897,-6.5897,-6.5897,-6.5897,-6.5897,-6.5897,-6.5897,-6.5897,-6.5859,-6.582,-6.5051,-6.4589,-6.4551,-6.3641,0.0,0.0,0.0,0.0,0.0,0.0,0.0,0.0,0.0,0.0,0.0,0.0,0.0,0.0,0.0,0.0,0.0,0.0,0.0,0.0,0.0,0.0,0.0,0.0,0.0,0.0,0.0,0.0,-6.5436,-6.5705,0.0,-6.5897,-6.5897,-6.5897,-6.5897,-6.5897,-6.5897,-6.5897,-6.6397,-6.6667,-6.6667,-6.7205,-6.7513,-6.7513,-6.7782,-6.7936,-6.7936,-6.8244,-6.8385,-6.8385,-6.8385,-6.8385,-6.8385,-6.809,-6.7936,-6.7898,-6.7628,-6.6859,-6.5897,-6.5897,-6.5897,-6.5897,-6.5897,-6.5897,-6.5897,-6.5897,-6.5897,-6.5897,-6.5897,-6.5897,-6.5897,-6.5897,-6.5897,-6.5897,-6.5897,-6.5897,-6.5897,-6.5897,-6.5897,-6.5897,-6.5897,-6.5897,-6.5897,-6.5897,-6.5897,-6.5897,-6.5897,-6.5897,-6.5897,-6.5897,-6.5897,-6.5897,-6.5897,-6.5897,-6.5897,-6.5897,-6.5897,-6.5897,-6.5897,-6.5897,-6.5897,-6.5897,-6.5897,-6.5897,-6.5897,-6.5897,-6.5897,-6.5897,-6.559,-6.5436,-6.5436,-6.4589,-6.3911,0.0,0.0,0.0,0.0,0.0,0.0,0.0,0.0,0.0,0.0,0.0,0.0,0.0,0.0,0.0,0.0,0.0,0.0,0.0,0.0,0.0,0.0,0.0,0.0,0.0,0.0,-6.5897,-6.5897,-6.5897,-6.5897,-6.5897,-6.5897,-6.5897,-6.5897,-6.6128,-6.6282,-6.6282,-6.709,-6.7552,-6.7552,-6.809,-6.8552,-6.8859,-6.9129,-6.9398,-6.9706,-6.9975,-7.0129,-7.0129,-7.0129,-6.9975,-6.9667,-6.936,-6.909,-6.8821,-6.8513,-6.7744,-6.6744,-6.6744,-6.6551,-6.6282,-6.6282,-6.6128,-6.5897,-6.5897,-6.5897,-6.5897,-6.5897,-6.5897,-6.5897,-6.5897,-6.5897,-6.5897,-6.5897,-6.5897,-6.5897,-6.5897,-6.5897,-6.5897,-6.5897,-6.5897,-6.5897,-6.5897,-6.5897,-6.5897,-6.5897,-6.5897,-6.5897,-6.5897,-6.5897,-6.5897,-6.5897,-6.5897,-6.5897,-6.5897,-6.5897,-6.5897,-6.5897,-6.5897,-6.5897,-6.5897,-6.5897,-6.5897,-6.5897,-6.5897,-6.5897,-6.5897,-6.5897,-6.5897,-6.5897,-6.5051,-6.4589,-6.4589,0.0,0.0,0.0,0.0,0.0,0.0,0.0,0.0,0.0,0.0,0.0,0.0,0.0,0.0,0.0,0.0,0.0,0.0,0.0,0.0,0.0,0.0,0.0,-6.5897,-6.5897,-6.5897,-6.5897,-6.5897,-6.5897,-6.5897,-6.5897,-6.5936,-6.5936,-6.6667,-6.7128,-6.7128,-6.7975,-6.8475,-6.8475,-6.8552,-6.8975,-6.9821,-7.0591,-7.1398,-7.2245,-7.3091,-7.3514,-7.3514,-7.3514,-7.3053,-7.2168,-7.136,-7.0552,-6.9744,-6.8898,-6.8513,-6.85,-6.8436,-6.7898,-6.7128,-6.7128,-6.6628,-6.5974,-6.5974,-6.5974,-6.5936,-6.5936,-6.5897,-6.5897,-6.5897,-6.5897,-6.5897,-6.5897,-6.5897,-6.5897,-6.5897,-6.5897,-6.5897,-6.5897,-6.5897,-6.5897,-6.5897,-6.5897,-6.5897,-6.5897,-6.5897,-6.5897,-6.5897,-6.5897,-6.5897,-6.5897,-6.5897,0.0,-6.5897,-6.5897,-6.5897,-6.5897,-6.5897,-6.5897,-6.5897,-6.5897,-6.5897,-6.5897,-6.5897,-6.5897,-6.5897,-6.5897,-6.5897,-6.5897,-6.5051,-6.4628,-6.4628,0.0,0.0,0.0,0.0,0.0,0.0,0.0,0.0,0.0,0.0,0.0,0.0,0.0,0.0,0.0,0.0,0.0,0.0,0.0,0.0,0.0,-6.5897,-6.5897,-6.5897,-6.5897,-6.5897,-6.5897,-6.5897,-6.5897,-6.5897,-6.6436,-6.6782,-6.6782,-6.7552,-6.8052,-6.8052,-6.9436,-7.0206,-7.0206,-7.1437,-7.2206,-7.2437,-7.2668,-7.2899,-7.3168,-7.3399,-7.3514,-7.3514,-7.3514,-7.336,-7.3129,-7.2899,-7.2668,-7.2399,-7.1514,-7.1168,-7.0975,-6.9129,-6.8244,-6.8052,-6.8052,-6.7898,-6.7705,-6.7705,-6.7282,-6.6782,-6.6782,-6.6359,-6.5897,-6.5897,-6.5897,-6.5897,-6.5897,-6.5897,-6.5897,-6.5897,-6.5897,-6.5897,-6.5897,-6.5897,-6.5897,-6.5897,-6.5897,-6.5897,-6.5897,-6.5897,-6.5897,-6.5897,-6.5897,-6.5897,-6.5897,-6.5897,0.0,-6.5897,-6.5897,-6.5897,-6.5897,-6.5897,-6.5897,-6.5897,-6.5897,-6.5897,-6.5897,-6.5897,-6.5897,-6.5897,-6.5897,-6.5897,-6.5897,-6.5667,-6.5551,0.0,0.0,0.0,0.0,0.0,0.0,0.0,0.0,0.0,0.0,0.0,0.0,0.0,0.0,0.0,0.0,0.0,0.0,0.0,0.0,0.0,0.0,-6.5897,-6.5897,-6.5897,-6.5897,-6.5897,-6.5897,-6.6205,-6.6397,-6.6397,-6.7167,-6.7628,-6.7628,-6.8744,-6.9436,-6.9436,-7.1052,-7.1975,-7.1975,-7.2976,-7.3654,-7.4014,-7.4014,-7.4207,-7.4553,-7.4553,-7.4553,-7.4553,-7.4553,-7.4361,-7.4014,-7.4014,-7.3822,-7.3476,-7.2937,-7.2745,0.0,0.0,0.0,0.0,0.0,-6.8385,-6.8385,-6.8385,-6.809,-6.7628,-6.7628,-6.7321,-6.6936,-6.6936,-6.6936,-6.6936,-6.6936,-6.6936,-6.6936,-6.6936,-6.6936,-6.6936,-6.6936,-6.6936,-6.6936,-6.6936,-6.6936,-6.6936,-6.6936,-6.6936,0.0,-6.6936,-6.6359,-6.5897,-6.5897,-6.5897,-6.5897,-6.5897,-6.5897,-6.5897,-6.5897,-6.5897,-6.5897,-6.5897,-6.5897,0.0,0.0,0.0,-6.5897,-6.5897,-6.5897,0.0,0.0,0.0,-6.5897,-6.5897,-6.5397,0.0,0.0,-6.2935,-6.232,0.0,0.0,0.0,0.0,0.0,0.0,0.0,0.0,0.0,0.0,0.0,0.0,0.0,0.0,0.0,0.0,-6.5897,-6.5897,-6.5897,-6.5974,-6.6051,-6.6051,-6.6667,-6.7128,-6.7244,-6.8052,-6.859,-6.8667,-7.0167,-7.1091,-7.1206,0.0,0.0,0.0,0.0,-7.413,-7.4861,-7.4861,-7.5245,-7.6015,-7.6015,-7.6015,-7.6015,-7.6015,-7.5592,-7.4861,-7.4861,-7.4437,-7.3783,-7.3668,-7.3591,-7.336,-7.1706,-7.0552,-6.9744,-6.8975,-6.8692,-6.8692,-6.8692,0.0,0.0,-6.8552,-6.8475,-6.8385,-6.8385,-6.8385,-6.8385,-6.8385,-6.8385,-6.8385,-6.8385,-6.8385,-6.8385,-6.8385,-6.8385,-6.8385,-6.8385,-6.8385,-6.8385,-6.8385,-6.8385,-6.8385,-6.8385,-6.709,-6.6051,-6.6051,-6.5974,-6.5897,-6.5897,-6.5897,-6.5897,-6.5897,0.0,0.0,-6.5897,-6.5897,-6.5897,-6.5897,-6.5897,-6.5897,-6.5897,-6.5897,-6.5897,-6.5897,-6.5897,-6.5897,-6.5897,-6.5897,-6.5897,-6.5859,-6.4205,-6.3474,0.0,0.0,0.0,0.0,0.0,0.0,0.0,0.0,0.0,0.0,0.0,0.0,0.0,0.0,0.0,-6.5897,-6.5897,-6.5897,-6.5897,-6.6436,-6.6859,-6.6859,-6.7013,-6.7359,-6.809,-6.8936,-6.9706,-7.036,-7.136,-7.2245,-7.2976,-7.3937,-7.4476,-7.4476,-7.5168,-7.5592,-7.5745,-7.5745,-7.5822,-7.6015,0.0,0.0,-7.6015,-7.6015,-7.5899,-7.5745,-7.5745,-7.5668,-7.5476,-7.4784,-7.4091,-7.3399,-7.236,-7.1398,-7.0667,-7.0475,-7.0437,-7.0437,-7.0437,-6.9975,-6.9436,-6.9436,-6.8975,-6.8385,-6.8385,-6.8385,0.0,-6.8385,-6.8385,-6.8385,-6.8385,-6.8385,-6.8385,-6.8385,-6.8385,-6.8385,-6.8385,-6.8385,-6.8385,-6.8385,-6.8385,-6.8385,-6.8385,-6.7552,-6.6859,-6.6859,-6.632,-6.5897,-6.5897,-6.5897,-6.5897,-6.5897,-6.5897,-6.5897,-6.5897,-6.5897,-6.5897,-6.5897,-6.5897,-6.5897,-6.5897,-6.5897,-6.5897,-6.5897,-6.5897,-6.5897,-6.5897,-6.5897,-6.5897,-6.5859,-6.482,-6.4359,0.0,0.0,0.0,0.0,0.0,0.0,0.0,0.0,0.0,0.0,0.0,-6.5897,-6.5897,0.0,-6.5897,-6.5897,-6.5897,-6.6051,-6.6436,-6.6859,-6.709,-6.709,-6.7859,-6.8552,-6.9013,-7.0206,-7.1129,-7.1514,-7.2745,-7.363,-7.4091,-7.4899,-7.5361,-7.5361,-7.5784,-7.6015,-7.6015,-7.6015,-7.6015,-7.6015,-7.6015,-7.6015,-7.6015,-7.6015,-7.6015,-7.6015,-7.6015,-7.6015,-7.5976,-7.5515,-7.4861,-7.4053,-7.363,-7.2937,-7.2168,-7.1706,-7.1552,-7.1475,-7.1052,-7.0629,-7.0283,-7.0283,-7.0014,-6.9667,-6.9667,-6.9667,-6.9667,-6.9667,-6.9667,-6.9667,-6.9667,-6.9667,-6.9667,-6.9667,-6.9667,-6.9667,-6.9667,-6.9667,-6.9667,-6.9667,-6.9667,-6.9667,-6.9667,-6.8975,-6.8244,-6.7821,-6.7398,-6.7167,-6.7167,-6.6782,-6.6513,-6.6513,-6.6128,-6.5897,-6.5897,-6.5897,-6.5897,-6.5897,-6.5897,-6.5897,-6.5897,-6.5897,-6.5897,-6.5897,-6.5897,-6.5897,-6.5897,-6.5897,-6.5897,-6.5897,-6.5436,-6.5243,0.0,0.0,0.0,0.0,0.0,0.0,0.0,0.0,-6.5897,-6.5897,-6.5897,-6.5897,-6.5897,-6.5897,-6.5897,-6.5897,-6.6013,-6.6359,-6.7013,-6.7398,-6.759,-6.759,-6.8821,-6.9821,-7.0167,-7.1398,-7.2322,-7.2668,-7.3937,-7.4784,-7.4938,-7.563,-7.6015,-7.6015,-7.6015,-7.6015,-7.6015,-7.6015,-7.6015,-7.6015,-7.6015,-7.6015,-7.6015,-7.6015,-7.6015,-7.6015,-7.6015,-7.6015,-7.6015,-7.6015,-7.5592,-7.4938,-7.4938,-7.4553,-7.386,-7.2822,-7.2437,-7.2322,-7.1437,-7.1168,-7.1129,-7.0975,-7.0898,-7.0898,-7.0898,-7.0898,-7.0898,-7.0898,-7.0898,-7.0898,-7.0898,-7.0898,-7.0898,-7.0898,-7.0898,-7.0898,-7.0898,-7.0898,-7.0898,-7.0898,-7.0898,-7.0898,-7.0898,-7.036,-6.9629,-6.8783,-6.85,-6.8385,-6.8385,-6.7782,-6.7282,-6.7128,-6.6513,-6.6051,-6.5897,-6.5897,-6.5897,-6.5897,-6.5897,-6.5897,-6.5897,-6.5897,-6.5897,-6.5897,-6.5897,-6.5897,-6.5897,-6.5897,-6.5897,-6.5897,-6.5897,-6.5897,-6.5859,-6.5897,-6.5897,-6.5897,-6.5897,-6.5897,0.0,0.0,-6.5897,-6.5897,-6.5897,-6.5897,-6.5897,-6.5897,-6.5897,-6.5897,-6.6513,-6.7013,-6.709,-6.8436,-6.9398,-6.9398,-6.959,-7.0283,-7.1783,-7.2091,-7.2822,-7.4322,-7.4591,-7.5053,-7.5822,-7.5938,-7.6015,-7.6015,-7.6015,-7.6015,-7.6015,-7.6015,-7.6015,-7.6015,-7.6015,-7.6015,-7.6015,-7.6015,-7.6015,-7.6015,-7.6015,-7.6015,-7.6015,-7.6015,-7.5938,-7.5861,-7.5861,-7.5784,-7.5515,-7.3937,-7.336,-7.3245,-7.236,-7.2052,-7.1937,-7.1168,-7.0898,-7.0898,-7.0898,-7.0898,-7.0898,-7.0898,-7.0898,-7.0898,-7.0898,-7.0898,-7.0898,-7.0898,-7.0898,-7.0898,-7.0898,-7.0898,-7.0898,-7.0898,-7.0898,-7.0898,-7.0898,-7.0821,-7.0475,-6.9667,-6.8898,-6.8385,-6.8385,-6.8321,-6.7975,-6.7167,-6.7013,-6.6667,-6.5974,-6.5897,-6.5897,-6.5897,-6.5897,-6.5897,-6.5897,-6.5897,-6.5897,-6.5897,-6.5897,-6.5897,-6.5897,-6.5897,-6.5897,-6.5897,-6.5897,-6.5897,-6.5897,-6.5897,-6.5897,0.0,-6.5897,-6.5897,-6.5897,-6.5897,-6.5897,-6.5897,-6.5897,-6.5897,-6.5897,-6.5897,-6.6051,0.0,-6.6859,-6.7436,-6.8475,-6.9244,-6.986,-7.036,-7.086,-7.1437,-7.2129,-7.2668,-7.3437,-7.463,-7.5168,-7.563,-7.5976,-7.6015,-7.6015,-7.6015,-7.6476,-7.6746,-7.6746,-7.7207,-7.7438,-7.7438,-7.7438,-7.7438,-7.7438,-7.6976,-7.6476,-7.6015,-7.6015,-7.6015,-7.6015,-7.6015,-7.6015,-7.6015,-7.6015,-7.6015,-7.5861,-7.463,-7.4207,-7.4091,-7.3245,-7.2976,-7.2822,-7.1937,-7.1668,-7.1552,-7.1052,-7.0898,-7.0898,-7.0898,-7.0898,-7.0898,-7.0898,-7.0898,-7.0898,-7.0898,-7.0898,-7.0898,-7.0898,-7.0898,-7.0898,-7.0898,-7.0898,-7.0898,-7.0898,-7.0898,-7.0783,-7.0437,-7.009,-6.986,-6.986,-6.9436,-6.8629,-6.7244,-6.709,-6.6782,-6.5974,-6.5897,-6.5897,-6.5897,-6.5897,-6.5897,-6.5897,-6.5897,-6.5897,-6.5897,-6.5897,-6.5897,-6.5897,-6.5897,-6.5897,-6.5897,-6.5897,-6.5897,-6.5897,-6.5897,0.0,-6.5897,-6.5897,-6.5897,-6.5897,-6.5897,-6.5897,-6.5897,-6.5897,-6.5974,-6.6205,-6.6244,-6.6513,-6.7321,-6.7667,-6.8244,-6.9513,-6.9898,-7.0321,-7.1168,-7.1822,-7.236,-7.2822,-7.3476,-7.4168,-7.5014,-7.563,-7.6015,-7.6015,-7.6015,-7.6092,-7.6361,-7.6976,-7.74,-7.763,-7.8207,-7.8477,-7.8477,-7.8477,-7.8477,-7.8477,-7.79,-7.7169,-7.6361,-7.6361,-7.6207,-7.6015,-7.6015,-7.6015,-7.6015,-7.6015,-7.6015,-7.5938,-7.5284,-7.5053,-7.4938,-7.413,-7.3808,-7.3707,-7.2822,-7.2552,-7.2399,-7.1514,-7.1245,-7.1206,-7.0975,-7.0898,-7.0898,-7.0898,-7.0898,-7.0898,-7.0898,-7.0898,-7.0898,-7.0898,-7.0898,-7.0898,-7.0898,-7.0898,-7.0898,-7.0898,-7.0898,-7.0898,-7.0898,-7.0898,-7.0898,-7.0898,-7.0206,-6.9206,-6.7936,-6.7398,-6.6859,-6.6282,-6.6013,-6.5897,-6.5897,-6.5897,-6.5897,-6.5897,-6.5897,-6.5897,-6.5897,-6.5897,-6.5897,-6.5897,-6.5897,-6.5897,-6.5897,-6.5897,-6.5897,-6.5897,-6.5897,-6.5897,-6.5897,-6.5897,-6.5897,-6.5897,-6.5897,-6.5897,-6.5897,-6.5897,-6.6128,-6.6898,-6.7051,-6.7359,-6.8244,-6.909,-6.9629,-6.9706,-7.036,-7.1206,-7.2052,-7.2168,-7.2822,0.0,-7.4668,-7.5014,-7.5899,-7.5976,-7.6015,-7.6015,-7.6015,-7.6399,-7.7207,-7.7284,-7.7669,-7.8453,-7.8477,-7.8477,-7.8477,-7.8477,-7.8477,-7.8477,-7.8477,-7.8015,-7.7246,-7.7246,-7.6784,-7.6015,-7.6015,-7.6015,-7.6015,-7.6015,-7.6015,-7.6015,-7.5976,-7.5976,-7.5822,-7.4976,-7.4668,-7.4553,-7.3745,-7.3476,-7.3322,-7.2399,-7.2168,-7.1975,-7.1129,-7.0898,-7.0898,-7.0898,-7.0898,-7.0898,-7.0898,-7.0898,-7.0898,-7.0898,-7.0898,-7.0898,-7.0898,-7.0898,-7.0898,-7.0898,-7.0898,-7.0898,-7.0898,-7.0898,-7.0898,-7.0898,-7.0206,-6.9667,-6.9629,-6.809,-6.709,-6.7051,-6.6359,-6.5897,-6.5897,-6.5897,-6.5897,-6.5897,-6.5897,-6.5897,-6.5897,-6.5897,-6.5897,-6.5897,-6.5897,-6.5897,-6.5897,-6.5897,-6.5897,-6.5897,-6.5897,-6.5897,-6.5897,-6.5897,-6.5897,-6.5897,-6.5897,-6.6051,-6.659,-6.6705,-6.6974,-6.7821,-6.7975,-6.8244,-6.9129,-6.9513,-6.9898,-7.0437,-7.1245,-7.186,-7.2168,-7.3168,0.0,0.0,0.0,0.0,-7.5938,-7.6015,-7.6015,-7.6015,-7.6553,-7.6976,-7.7284,-7.8361,-7.9092,-7.9361,-7.9939,-8.0208,-8.0208,-8.0208,-7.9939,-7.9361,-7.9361,-7.89,-7.8054,-7.7515,-7.713,-7.6823,-7.6245,-7.6015,-7.6015,-7.6015,-7.6015,-7.6015,-7.6015,-7.6015,-7.5976,-7.5668,-7.5553,-7.5438,-7.4591,-7.4322,-7.413,-7.3322,-7.2668,-7.2129,-7.186,-7.136,-7.0898,-7.0898,-7.0898,-7.0898,-7.0898,-7.0898,-7.0898,-7.0898,-7.0898,-7.0898,-7.0898,-7.0898,-7.0898,-7.0898,-7.0898,-7.0898,-7.0898,-7.0898,-7.0898,-7.0898,-7.0667,-7.0283,-6.9744,-6.9167,-6.8359,-6.7205,-6.6859,-6.6474,-6.5936,-6.5897,-6.5897,-6.5897,-6.5897,-6.5897,-6.5897,-6.5897,-6.5897,-6.5897,-6.5897,-6.5897,-6.5897,-6.5897,-6.5897,-6.5897,-6.5897,-6.5897,-6.5897,-6.5897,-6.5897,-6.5897,-6.6128,-6.6474,-6.6974,-6.7359,-6.7821,-6.8706,-6.8859,-6.9129,-6.9975,-7.0129,-7.0321,-7.0821,-7.1629,-7.2322,-7.2629,-7.386,-7.4822,0.0,0.0,0.0,-7.5976,-7.6015,-7.613,-7.6438,-7.6976,-7.7553,-7.8169,-7.9246,-7.9939,-8.0246,-8.0823,-8.1093,-8.1093,-8.1093,-8.0823,-8.0246,-8.0246,-7.9785,-7.8938,-7.84,-7.8015,-7.7669,-7.6823,-7.6476,-7.6438,-7.613,-7.6015,-7.6015,-7.6015,-7.6015,-7.6015,-7.6015,-7.6015,-7.5899,-7.5361,-7.5168,-7.5014,-7.4168,-7.3553,-7.3014,-7.2745,-7.2052,-7.136,-7.136,-7.1129,-7.0898,-7.0898,-7.0898,-7.0898,-7.0898,-7.0898,-7.0898,-7.0898,-7.0898,-7.0898,-7.0898,-7.0898,-7.0898,-7.0898,-7.0898,-7.0898,-7.0898,-7.0898,-7.0706,-7.0167,-6.986,-6.9129,-6.7705,-6.7282,-6.6744,-6.5936,-6.5897,-6.5897,-6.5897,-6.5897,-6.5897,-6.5897,-6.5897,-6.5897,-6.5897,-6.5897,-6.5897,-6.5897,-6.5897,-6.5897,-6.5897,-6.5897,-6.5897,-6.5897,-6.5897,-6.5897,-6.5936,-6.6551,-6.7128,-6.7205,-6.7898,-6.8744,-6.959,-6.9744,-7.0014,-7.0783,-7.0898,-7.0898,-7.0898,-7.1668,-7.2552,0.0,0.0,0.0,0.0,0.0,0.0,-7.6015,0.0,-7.6361,-7.7246,-7.7323,-7.8092,-7.9746,-7.9862,-8.0246,-8.1093,-8.1093,-8.1093,-8.1093,-8.1093,-8.1093,-8.1093,-8.1093,-8.0669,-7.9862,-7.9823,-7.9323,-7.8477,-7.763,-7.7284,-7.7207,-7.6322,-7.6015,-7.6015,-7.6015,-7.6015,-7.6015,-7.6015,-7.6015,-7.6015,-7.6015,-7.6015,-7.5861,-7.5014,-7.4745,-7.4553,-7.3783,-7.2937,-7.2245,-7.2206,-7.1591,-7.0975,-7.0898,-7.0898,-7.0898,-7.0898,-7.0898,-7.0898,-7.0898,-7.0898,-7.0898,-7.0898,-7.0898,-7.0898,-7.0898,-7.0898,-7.0898,-7.0898,-7.0898,-7.0898,-7.0898,-7.0206,-6.9398,-6.8552,-6.7667,-6.6821,-6.6013,-6.5897,-6.5897,-6.5897,-6.5897,-6.5897,-6.5897,-6.5897,-6.5897,-6.5897,-6.5897,-6.5897,-6.5897,-6.5897,-6.5897,-6.5897,-6.5897,-6.5897,-6.5897,-6.5897,-6.6051,-6.6667,-6.6936,-6.7475,-6.8783,-6.9206,-6.9629,-7.0437,-7.0591,-7.0667,-7.086,-7.0898,0.0,-7.0898,-7.2206,0.0,-7.3476,0.0,-7.5745,-7.5976,-7.6015,0.0,0.0,-7.6015,-7.6361,-7.7246,-7.7861,-7.8669,-7.9785,-8.0439,-8.09,-8.1093,-8.1093,-8.1093,-8.1093,-8.1093,-8.1093,-8.1093,-8.1093,-8.0977,-8.0746,-8.0092,-7.9669,-7.9361,-7.79,-7.7284,-7.7207,-7.6322,-7.6015,-7.6015,-7.6015,-7.6015,-7.6015,-7.6015,-7.6015,-7.6015,-7.6015,-7.6015,-7.5976,-7.5745,-7.5207,-7.4668,-7.4437,-7.3822,-7.3014,-7.236,-7.2052,-7.1706,-7.1052,-7.0898,-7.0898,-7.0898,-7.0898,-7.0898,-7.0898,-7.0898,-7.0898,-7.0898,-7.0898,-7.0898,-7.0898,-7.0898,-7.0898,-7.0898,-7.0898,-7.0898,-7.0898,-7.0706,-7.0244,-6.9436,-6.859,-6.7705,-6.6859,-6.6244,-6.5897,-6.5897,-6.5897,-6.5897,-6.5897,-6.5897,-6.5897,-6.5897,-6.5897,-6.5897,-6.5897,-6.5897,-6.5897,-6.5897,-6.5897,-6.5897,-6.5897,-6.6167,-6.6551,-6.7013,-6.7667,-6.8513,-6.9513,-6.9975,-7.036,-7.0821,-7.0898,-7.0898,0.0,0.0,0.0,-7.0898,-7.2399,-7.3514,0.0,-7.4976,0.0,-7.6015,-7.6015,-7.6169,0.0,-7.6553,-7.6938,-7.7784,-7.8631,-7.9477,-8.0323,-8.0823,-8.1093,-8.1093,-8.1093,-8.1093,-8.1093,-8.1093,-8.1093,-8.1093,-8.1093,-8.1093,-8.1054,0.0,-8.0362,-8.0285,-7.8938,-7.8169,-7.7746,-7.6899,-7.6322,-7.6015,-7.6015,-7.6015,-7.6015,-7.6015,-7.6015,-7.6015,-7.6015,-7.6015,-7.6015,-7.6015,-7.5668,-7.5284,-7.5284,-7.4668,-7.3899,-7.3437,-7.2745,-7.2091,-7.1591,-7.1168,-7.0898,-7.0898,-7.0898,-7.0898,-7.0898,-7.0898,-7.0898,-7.0898,-7.0898,-7.0898,-7.0898,-7.0898,-7.0898,-7.0898,-7.0898,-7.0898,-7.0898,-7.0898,-7.0552,-6.9783,-6.8898,-6.8013,-6.7167,-6.632,-6.5897,-6.5897,-6.5897,-6.5897,-6.5897,-6.5897,-6.5897,-6.5897,-6.5897,-6.5897,-6.5897,-6.5897,-6.5897,-6.5897,-6.5897,-6.5936,-6.6013,-6.659,-6.7167,-6.7398,-6.859,-6.9744,-6.986,-7.0398,-7.0898,-7.0898,-7.0898,-7.0898,-7.0898,0.0,-7.0898,-7.0898,-7.2399,-7.3514,-7.3514,-7.4976,-7.6015,-7.6015,-7.6092,-7.6476,-7.7246,-7.7515,-7.7938,-7.8631,-7.94,-8.0208,-8.1054,-8.1093,-8.1093,-8.1093,-8.1093,-8.1093,-8.1093,-8.1093,-8.1093,-8.1093,-8.1093,-8.1093,-8.1093,-8.1093,-8.1093,-8.1016,-8.0169,-7.9285,-7.84,-7.7592,-7.6784,-7.6015,-7.6015,-7.6015,-7.6015,-7.6015,-7.6015,-7.6015,-7.6015,-7.6015,-7.6015,-7.6015,-7.6015,-7.6015,-7.6015,-7.5476,-7.4861,-7.4745,-7.363,-7.2476,-7.2245,-7.1629,-7.1052,-7.0937,-7.0898,-7.0898,-7.0898,-7.0898,-7.0898,-7.0898,-7.0898,-7.0898,-7.0898,-7.0898,-7.0898,-7.0898,-7.0898,-7.0898,-7.0898,-7.0898,-7.0629,-6.9937,-6.8975,-6.809,-6.7321,-6.6397,-6.5897,-6.5897,-6.5897,-6.5897,-6.5897,-6.5897,-6.5897,-6.5897,-6.5897,-6.5897,-6.5897,-6.5897,-6.5897,-6.5897,-6.5897,-6.6051,-6.6744,-6.7013,-6.7475,-6.8936,-6.9475,0.0,0.0,-7.0783,-7.0898,-7.0898,-7.0898,-7.0898,-7.0898,-7.0898,-7.0898,-7.0898,-7.2399,-7.3514,0.0,-7.4976,-7.6015,-7.6015,-7.663,0.0,0.0,-7.8592,-7.9438,-7.9592,-7.9708,-8.0208,-8.1054,-8.1093,-8.1093,-8.1093,-8.1093,-8.1093,-8.1093,-8.1093,-8.1093,-8.1093,-8.1093,-8.1093,-8.1093,-8.1093,0.0,-8.1016,-8.0169,-7.9285,-7.84,-7.7592,-7.6784,-7.6015,-7.6015,-7.6015,-7.6015,-7.6015,-7.6015,-7.6015,-7.6015,-7.6015,-7.6015,-7.6015,-7.6015,-7.6015,-7.6015,-7.5899,-7.563,-7.4899,-7.4476,-7.3937,-7.2514,-7.2091,-7.1783,-7.1052,-7.0898,-7.0898,-7.0898,-7.0898,-7.0898,-7.0898,-7.0898,-7.0898,-7.0898,-7.0898,-7.0898,-7.0898,-7.0898,-7.0898,-7.0898,-7.0898,-7.0821,-7.0706,-6.9283,-6.8346,-6.8167,-6.6744,-6.5897,-6.5897,-6.5897,-6.5897,-6.5897,-6.5897,-6.5897,-6.5897,-6.5897,-6.5897,-6.5897,-6.5897,-6.5897,-6.5897,-6.6205,-6.6628,-6.7013,-6.7782,-6.8667,-6.9513,0.0,0.0,0.0,-7.0898,-7.0898,-7.0898,-7.0898,0.0,-7.1514,-7.1206,-7.1052,-7.1514,-7.2706,0.0,-7.3514,-7.4976,-7.6015,0.0,-7.6784,-7.7476,-7.79,-7.9092,-7.9823,-7.9823,-8.0246,-8.0669,-8.1093,-8.1093,-8.1093,-8.1093,-8.1093,-8.1093,-8.1093,-8.1093,-8.1093,-8.1093,-8.1093,-8.1093,-8.1093,-8.1093,-8.1093,-8.1054,-8.0669,-7.9708,-7.8453,-7.8092,-7.713,-7.6015,-7.6015,-7.6015,-7.6015,-7.6015,-7.6015,-7.6015,-7.6015,-7.6015,-7.6015,-7.6015,-7.6015,-7.6015,-7.6015,-7.6015,-7.5899,-7.5476,-7.5053,-7.4514,-7.3707,-7.2822,-7.1937,-7.1091,-7.0898,-7.0898,-7.0898,-7.0898,-7.0898,-7.0898,-7.0898,-7.0898,-7.0898,-7.0898,-7.0898,-7.0898,-7.0898,-7.0898,-7.0898,-7.0898,-7.0898,-7.0898,-6.936,-6.8385,-6.8385,-6.6821,-6.5897,-6.5897,-6.5897,-6.5897,-6.5897,-6.5897,-6.5897,-6.5897,-6.5897,-6.5897,-6.5897,-6.5897,-6.5897,-6.609,-6.6628,-6.7167,-6.7552,-6.8706,-6.9744,-6.9937,-7.0437,0.0,-7.0898,-7.0898,-7.0898,-7.0898,-7.1052,-7.1398,0.0,-7.1783,-7.1706,-7.236,-7.3206,-7.3783,0.0,-7.5091,0.0,-7.6015,-7.6938,0.0,-7.8438,-7.9477,-8.0092,-8.0092,-8.0746,-8.1093,-8.1093,-8.1093,-8.1093,-8.1093,-8.1093,-8.1093,-8.1093,-8.1093,-8.1093,-8.1093,-8.1093,-8.1093,-8.1093,-8.1093,-8.1093,-8.1093,-8.1093,-8.0054,-7.8477,-7.8477,-7.7476,-7.6015,-7.6015,-7.6015,-7.6015,-7.6015,-7.6015,-7.6015,-7.6015,-7.6015,-7.6015,-7.6015,-7.6015,-7.6015,-7.6015,-7.6015,-7.6015,-7.6015,-7.5476,-7.4899,-7.4553,-7.3283,-7.1937,-7.1091,-7.0898,-7.0898,-7.0898,-7.0898,-7.0898,-7.0898,-7.0898,-7.0898,-7.0898,-7.0898,-7.0898,-7.0898,-7.0898,-7.0898,-7.0898,-7.0898,-7.0898,-7.0898,-6.936,-6.8385,-6.8385,-6.6821,-6.5897,-6.5897,-6.5897,-6.5897,-6.5897,-6.5897,-6.5897,-6.5897,-6.5897,-6.5897,-6.5897,-6.5897,-6.5897,-6.6782,-6.7051,-6.7475,-6.9052,-6.959,-6.9898,-7.0629,0.0,-7.0898,-7.0898,-7.0898,-7.0898,-7.0898,-7.1552,-7.2091,-7.2168,-7.2783,-7.3283,-7.336,-7.4091,-7.4591,-7.4591,0.0,0.0,-7.6015,-7.7438,-7.84,-7.8477,-8.0054,-8.0977,-8.0977,-8.1054,-8.1093,-8.1093,-8.1093,-8.1093,-8.1093,-8.1093,-8.1093,-8.1093,-8.1093,-8.1093,-8.1093,-8.1093,-8.1093,-8.1093,-8.1093,-8.1093,0.0,-8.1093,-8.0054,-7.8477,-7.8477,-7.7476,-7.6015,-7.6015,-7.6015,-7.6015,-7.6015,-7.6015,-7.6015,-7.6015,-7.6015,-7.6015,-7.6015,-7.6015,-7.6015,-7.6015,-7.6015,-7.6015,-7.6015,-7.5938,-7.5515,-7.3976,-7.2899,-7.1937,-7.1091,-7.0898,-7.0898,-7.0898,-7.0898,-7.0898,-7.0898,-7.0898,-7.0898,-7.0898,-7.0898,-7.0898,-7.0898,-7.0898,-7.0898,-7.0898,-7.0898,-7.0898,-7.0898,-6.936,-6.8385,-6.8385,-6.6821,-6.5897,-6.5897,-6.5897,-6.5897,-6.5897,-6.5897,-6.5897,-6.5897,-6.5897,-6.5897,-6.5897,-6.5897,-6.5897,-6.7013,-6.7859,-6.8821,-6.9513,-7.0052,-7.0514,-7.0821,0.0,-7.0898,-7.0898,-7.0898,-7.1052,-7.1591,-7.1975,-7.2514,-7.3553,-7.3591,0.0,-7.4168,-7.4514,-7.4707,-7.4707,-7.5476,0.0,0.0,0.0,-7.8938,-7.9977,-8.0708,-8.1093,-8.1093,-8.1093,-8.1093,-8.1093,-8.1093,-8.1093,-8.1093,-8.1093,-8.1093,-8.1093,-8.1093,-8.1093,-8.1093,-8.1093,-8.1093,-8.1093,-8.1093,-8.1093,0.0,-8.0516,-7.9592,-7.8438,-7.7977,-7.7053,-7.6015,-7.6015,-7.6015,-7.6015,-7.6015,-7.6015,-7.6015,-7.6015,-7.6015,-7.6015,-7.6015,-7.6015,-7.6015,-7.6015,-7.6015,-7.6015,-7.6015,-7.6015,-7.5707,-7.4514,-7.3591,-7.2745,-7.186,-7.1283,-7.0898,-7.0898,-7.0898,-7.0898,-7.0898,-7.0898,-7.0898,-7.0898,-7.0898,-7.0898,-7.0898,-7.0898,-7.0898,-7.0898,-7.0898,-7.0898,-7.0898,-6.936,-6.8385,-6.8385,-6.6821,-6.5897,-6.5897,-6.5897,-6.5897,-6.5897,-6.5897,-6.5897,-6.5897,-6.5897,-6.5897,-6.5897,-6.5897,-6.5897,-6.7744,-6.8783,-6.9744,-7.0014,-7.0475,-7.0898,0.0,0.0,-7.0898,-7.0898,-7.1091,-7.1475,-7.2091,-7.2591,-7.3322,-7.4514,-7.4437,-7.4437,-7.5014,-7.5091,-7.5091,0.0,0.0,-7.6015,0.0,-7.7515,-7.9208,-8.0977,-8.1093,-8.1093,-8.1093,-8.1093,-8.1093,-8.1093,-8.1093,-8.1093,-8.1093,-8.1093,-8.1093,-8.1093,-8.1093,-8.1093,-8.1093,-8.1093,-8.1093,-8.1093,-8.1093,-8.1093,0.0,-8.0169,-7.9285,-7.84,-7.7592,-7.6784,-7.6015,-7.6015,-7.6015,-7.6015,-7.6015,-7.6015,-7.6015,-7.6015,-7.6015,-7.6015,-7.6015,-7.6015,-7.6015,-7.6015,-7.6015,-7.6015,-7.6015,-7.6015,-7.5784,-7.4899,-7.4091,-7.3245,-7.2399,-7.1514,-7.0898,-7.0898,-7.0898,-7.0898,-7.0898,-7.0898,-7.0898,-7.0898,-7.0898,-7.0898,-7.0898,-7.0898,-7.0898,-7.0898,-7.0898,-7.0898,-7.0898,-6.936,-6.8385,-6.8385,-6.6821,-6.5897,-6.5897,-6.5897,-6.5897,-6.5897,-6.5897,-6.5897,-6.5897,-6.5897,-6.5897,-6.5897,-6.5897,-6.5897,-6.9206,-6.9706,-6.9898,-7.0706,-7.0898,-7.0898,-7.0898,-7.0898,-7.0898,-7.0898,-7.1591,-7.2168,-7.2206,-7.3553,-7.4668,-7.4707,-7.5438,0.0,-7.5976,-7.5976,-7.5976,0.0,0.0,-7.6015,-7.6015,-7.7515,-7.9208,-8.0977,-8.1093,0.0,-8.1093,-8.1093,-8.1093,-8.1093,-8.1093,-8.1093,-8.1093,-8.1093,-8.1093,-8.1093,-8.1093,-8.1093,-8.1093,-8.1093,-8.1093,-8.1093,-8.1093,-8.1093,0.0,-8.0169,-7.9285,-7.84,-7.7592,-7.6784,-7.6015,-7.6015,-7.6015,-7.6015,-7.6015,-7.6015,-7.6015,-7.6015,-7.6015,-7.6015,-7.6015,-7.6015,-7.6015,-7.6015,-7.6015,-7.6015,-7.6015,-7.6015,-7.5784,-7.4899,-7.4091,-7.3245,-7.2399,-7.1514,-7.0898,-7.0898,-7.0898,-7.0898,-7.0898,-7.0898,-7.0898,-7.0898,-7.0898,-7.0898,-7.0898,-7.0898,-7.0898,-7.0898,-7.0898,-7.0898,-7.0898,-6.936,-6.8385,-6.8385,-6.6821,-6.5897,-6.5897,-6.5897,-6.5897,-6.5897,-6.5897,-6.5897,-6.5897,-6.5897,-6.5897,-6.5897,-6.5897,-6.5897,-6.9552,-7.009,-7.0591,-7.0821,-7.0898,-7.0898,-7.0898,-7.0898,-7.0898,-7.0898,-7.1591,-7.236,-7.2976,-7.3976,-7.4899,-7.5476,-7.5822,-7.6015,0.0,0.0,0.0,-7.6015,-7.6015,-7.6245,0.0,0.0,-7.8977,-8.0131,-8.0746,-8.1093,-8.1093,-8.1093,-8.1093,-8.1093,-8.1093,-8.1093,-8.1093,-8.1093,-8.1093,-8.1093,-8.1093,-8.1093,-8.1093,-8.1093,-8.1093,-8.1093,-8.1093,-8.0746,-8.0131,-7.9285,-7.84,-7.7592,-7.6746,-7.6245,-7.6015,-7.6015,-7.6015,-7.6015,-7.6015,-7.6015,-7.6015,-7.6015,-7.6015,-7.6015,-7.6015,-7.6015,-7.6015,-7.6015,-7.6015,-7.6015,-7.6015,-7.6015,-7.5938,-7.5668,-7.4514,-7.3437,-7.3168,-7.1937,-7.0898,-7.0898,-7.0898,-7.0898,-7.0898,-7.0898,-7.0898,-7.0898,-7.0898,-7.0898,-7.0898,-7.0898,-7.0898,-7.0898,-7.0898,-7.0898,-7.0898,-6.936,-6.8385,-6.8385,-6.6821,-6.5897,-6.5897,-6.5897,-6.5897,-6.5897,-6.5897,-6.5897,-6.5897,-6.5897,-6.5897,-6.5897,-6.5897,-6.5897,-7.0167,-7.0514,-7.0898,-7.0898,-7.0898,-7.0898,-7.0898,-7.0898,-7.0898,-7.0898,-7.186,-7.286,-7.3399,-7.4437,-7.5361,-7.5899,-7.6015,-7.6015,0.0,0.0,0.0,-7.6015,0.0,0.0,0.0,-7.8015,-7.8861,-7.9746,-8.0592,-8.1093,-8.1093,-8.1093,-8.1093,-8.1093,-8.1093,-8.1093,-8.1093,-8.1093,-8.1093,-8.1093,-8.1093,-8.1093,-8.1093,-8.1093,-8.1093,-8.1093,-8.0746,-8.0285,0.0,-7.8515,-7.7746,-7.7207,-7.6322,-7.6015,-7.6015,-7.6015,-7.6015,-7.6015,-7.6015,-7.6015,-7.6015,-7.6015,-7.6015,-7.6015,-7.6015,-7.6015,-7.6015,-7.6015,-7.6015,-7.6015,-7.6015,-7.6015,-7.6015,-7.6015,-7.4707,-7.3514,-7.3514,-7.2129,-7.0898,-7.0898,-7.0898,-7.0898,-7.0898,-7.0898,-7.0898,-7.0898,-7.0898,-7.0898,-7.0898,-7.0898,-7.0898,-7.0898,-7.0898,-7.0898,-7.0898,-6.9667,-6.8744,-6.8436,-6.7128,-6.6205,-6.5897,-6.5897,-6.5897,-6.5897,-6.5897,-6.5897,-6.5897,-6.5897,-6.5897,-6.5897,-6.5897,-6.5897,0.0,-7.0898,-7.0898,-7.0898,-7.0898,-7.0898,-7.0898,-7.0898,0.0,-7.0898,-7.2283,-7.3514,-7.3514,-7.4861,-7.6015,-7.6015,-7.6015,-7.6015,0.0,-7.6015,0.0,0.0,-7.6015,0.0,-7.713,-7.7938,-7.8784,-7.9631,-8.0516,-8.1016,-8.1093,-8.1093,-8.1093,-8.1093,-8.1093,-8.1093,-8.1093,-8.1093,-8.1093,-8.1093,-8.1093,-8.1093,-8.1093,-8.1093,-8.1054,0.0,-8.0169,-7.9746,-7.9515,-7.7938,-7.7246,-7.713,-7.6322,-7.6015,-7.6015,-7.6015,-7.6015,-7.6015,-7.6015,-7.6015,-7.6015,-7.6015,-7.6015,-7.6015,-7.6015,-7.6015,-7.6015,-7.6015,-7.6015,-7.6015,-7.6015,-7.6015,-7.6015,-7.6015,-7.4707,-7.3514,-7.3514,-7.2129,-7.0898,-7.0898,-7.0898,-7.0898,-7.0898,-7.0898,-7.0898,-7.0898,-7.0898,-7.0898,-7.0898,-7.0898,-7.0898,-7.0898,-7.0898,-7.0898,-7.0898,-7.0167,-6.9321,-6.8462,-6.759,-6.6744,-6.5936,-6.5897,-6.5897,-6.5897,-6.5897,-6.5897,-6.5897,-6.5897,-6.5897,-6.5897,-6.5897,-6.5897,-7.0898,0.0,-7.0898,-7.0898,-7.0898,-7.0898,0.0,-7.0898,-7.0898,-7.0898,-7.2283,-7.3514,-7.3514,-7.4861,-7.6015,-7.6015,-7.6015,-7.6015,-7.6015,0.0,0.0,-7.6015,-7.6015,-7.6092,-7.6284,-7.7092,-7.79,-7.8746,-7.9592,-8.04,-8.1054,-8.1093,-8.1093,-8.1093,-8.1093,-8.1093,-8.1093,-8.1093,-8.1093,-8.1093,-8.1093,-8.1093,-8.1093,-8.1093,-8.0746,-8.0092,-7.99,-7.9054,-7.7861,-7.7438,-7.6899,-7.6284,-7.6092,-7.6015,-7.6015,-7.6015,-7.6015,-7.6015,-7.6015,-7.6015,-7.6015,-7.6015,-7.6015,-7.6015,-7.6015,-7.6015,-7.6015,-7.6015,-7.6015,-7.6015,-7.6015,-7.6015,-7.6015,-7.6015,-7.4707,-7.3514,-7.3514,-7.2129,-7.0898,-7.0898,-7.0898,-7.0898,-7.0898,-7.0898,-7.0898,-7.0898,-7.0898,-7.0898,-7.0898,-7.0898,-7.0898,-7.0898,-7.0898,-7.0898,-7.0898,-7.0167,-6.9321,-6.8462,-6.759,-6.6744,-6.5936,-6.5897,-6.5897,-6.5897,-6.5897,-6.5897,-6.5897,-6.5897,-6.5897,-6.5897,-6.5897,-6.5897,-7.0898,-7.0898,-7.0898,-7.0898,-7.0898,-7.0898,-7.0898,-7.0898,-7.0898,-7.0898,-7.2283,-7.3514,-7.3514,-7.4861,-7.6015,-7.6015,-7.6015,0.0,0.0,0.0,-7.6015,-7.6015,-7.6015,-7.6015,0.0,-7.6784,-7.7476,-7.79,-7.8746,-7.9592,-8.0477,-8.0131,-8.0092,-8.0477,-8.0131,-8.0285,-8.1093,-8.1093,-8.09,-8.0516,-8.0516,-8.0285,-7.99,-7.99,-7.9631,-7.9169,-7.8823,-7.813,-7.7284,-7.6861,-7.6438,-7.6015,-7.6015,-7.6015,-7.6015,-7.6015,-7.6015,-7.6015,-7.6015,-7.6015,-7.6015,-7.6015,-7.6015,-7.6015,-7.6015,-7.6015,-7.6015,-7.6015,-7.6015,-7.6015,-7.6015,-7.6015,-7.6015,-7.6015,-7.4707,-7.3514,-7.3514,-7.2129,-7.0898,-7.0898,-7.0898,-7.0898,-7.0898,-7.0898,-7.0898,-7.0898,-7.0898,-7.0898,-7.0898,-7.0898,-7.0898,-7.0898,-7.0898,-7.0898,-7.0898,-7.0514,-6.9706,-6.8475,-6.7975,-6.7167,-6.5936,-6.5897,-6.5897,-6.5897,-6.5897,-6.5897,-6.5897,-6.5897,-6.5897,-6.5897,-6.5897,-6.5897,-7.0898,-7.0898,-7.0898,-7.0898,-7.0898,-7.0898,-7.0898,-7.0898,0.0,0.0,0.0,0.0,0.0,-7.4861,0.0,0.0,0.0,0.0,-7.6015,-7.6015,-7.6015,-7.6015,-7.6015,0.0,-7.6015,-7.6669,-7.7169,-7.7284,-7.7938,-7.8669,-7.9554,-7.89,-7.8823,-7.9592,-7.89,-7.9208,-8.0669,-8.0708,-8.0323,-7.9592,-7.9592,-7.9208,-7.8477,-7.8477,-7.8438,-7.8284,0.0,0.0,-7.7053,-7.6284,-7.6015,-7.6015,-7.6015,-7.6015,-7.6015,-7.6015,-7.6015,-7.6015,-7.6015,-7.6015,-7.6015,-7.6015,-7.6015,-7.6015,-7.6015,-7.6015,-7.6015,-7.6015,-7.6015,-7.6015,-7.6015,-7.6015,-7.6015,-7.6015,-7.4707,-7.3514,-7.3514,-7.2129,-7.0898,-7.0898,-7.0898,-7.0898,-7.0898,-7.0898,-7.0898,-7.0898,-7.0898,-7.0898,-7.0898,-7.0898,-7.0898,-7.0898,-7.0898,-7.0898,-7.0898,-7.0898,-7.0167,-6.85,-6.8385,-6.7667,-6.5974,-6.5897,-6.5897,-6.5897,-6.5897,-6.5897,-6.5897,-6.5897,-6.5897,-6.5897,-6.5897,-6.5897,-7.0898,-7.0898,-7.0898,-7.0898,-7.0898,-7.0898,-7.0898,-7.0898,-7.0898,0.0,0.0,0.0,0.0,-7.4861,-7.6015,0.0,0.0,-7.6015,0.0,0.0,-7.6015,-7.6015,0.0,-7.6015,-7.6015,-7.613,-7.6515,-7.7246,-7.74,-7.7823,-7.8669,-7.8554,-7.8554,-7.8707,-7.8554,-7.8646,-7.89,-7.89,-7.8823,-7.8707,-7.8707,-7.8631,-7.8477,-7.8477,-7.813,-7.7476,0.0,-7.6861,-7.6207,-7.6053,-7.6015,-7.6015,-7.6015,-7.6015,-7.6015,-7.6015,-7.6015,-7.6015,-7.6015,-7.6015,-7.6015,-7.6015,-7.6015,-7.6015,-7.6015,-7.6015,-7.6015,-7.6015,-7.6015,-7.6015,-7.6015,-7.6015,-7.6015,-7.6015,-7.4707,-7.3514,-7.3514,-7.2129,-7.0898,-7.0898,-7.0898,-7.0898,-7.0898,-7.0898,-7.0898,-7.0898,-7.0898,-7.0898,-7.0898,-7.0898,-7.0898,-7.0898,-7.0898,-7.0898,-7.0898,-7.0898,-7.0167,-6.85,-6.8385,-6.7667,-6.5974,-6.5897,-6.5897,-6.5897,-6.5897,-6.5897,-6.5897,-6.5897,-6.5897,-6.5897,-6.5897,-6.5897,-7.0898,-7.0898,-7.0898,-7.0898,-7.0898,-7.0898,-7.0898,-7.0898,-7.0898,0.0,0.0,0.0,0.0,0.0,-7.6015,-7.6015,0.0,-7.6015,-7.6015,-7.6015,-7.6015,0.0,0.0,-7.6015,-7.6015,-7.6015,-7.6169,-7.6553,-7.6592,-7.6938,-7.7784,-7.74,-7.7361,-7.7823,-7.74,-7.713,-7.713,-7.713,-7.74,-7.7861,-7.7861,-7.7592,-7.713,-7.713,-7.6938,-7.6592,0.0,-7.6361,-7.6015,-7.6015,-7.6015,-7.6015,-7.6015,-7.6015,-7.6015,-7.6015,-7.6015,-7.6015,-7.6015,-7.6015,-7.6015,-7.6015,-7.6015,-7.6015,-7.6015,-7.6015,-7.6015,-7.6015,-7.6015,-7.6015,-7.6015,-7.6015,-7.6015,-7.6015,-7.4707,-7.3514,-7.3514,-7.2129,-7.0898,-7.0898,-7.0898,-7.0898,-7.0898,-7.0898,-7.0898,-7.0898,-7.0898,-7.0898,-7.0898,-7.0898,-7.0898,-7.0898,-7.0898,-7.0898,-7.0898,-7.0898,-7.0167,-6.85,-6.7552,-6.6705,-6.5936,-6.5897,-6.5897,-6.5897,-6.5897,-6.5897,-6.5897,-6.5897,-6.5897,-6.5897,-6.5897,-6.5897,-7.0898,-7.0898,-7.0898,-7.0898,-7.0898,-7.0898,-7.0898,-7.0898,-7.0898,-7.0898,0.0,0.0,0.0,-7.4861,0.0,-7.6015,-7.6015,-7.6015,-7.6015,-7.6015,-7.6015,-7.6015,-7.6015,-7.6015,-7.6015,-7.6015,-7.6015,-7.6015,-7.6015,-7.6284,-7.6938,-7.6361,-7.6322,-7.6976,-7.6361,-7.6015,-7.6015,-7.6015,-7.6322,-7.6976,-7.6976,-7.663,-7.6015,-7.6015,-7.6015,-7.6015,-7.6015,-7.6015,-7.6015,-7.6015,-7.6015,-7.6015,-7.6015,-7.6015,-7.6015,-7.6015,-7.6015,-7.6015,-7.6015,-7.6015,-7.6015,-7.6015,-7.6015,-7.6015,-7.6015,-7.6015,-7.6015,-7.6015,-7.6015,-7.6015,-7.6015,-7.6015,-7.6015,-7.6015,-7.4707,-7.3514,-7.3514,-7.2129,-7.0898,-7.0898,-7.0898,-7.0898,-7.0898,-7.0898,-7.0898,-7.0898,-7.0898,-7.0898,-7.0898,-7.0898,-7.0898,-7.0898,-7.0898,-7.0898,-7.0898,-7.0744,-6.9975,-6.8513,-6.7013,-6.609,-6.5897,-6.5897,-6.5897,-6.5897,-6.5897,-6.5897,-6.5897,-6.5897,-6.5897,-6.5897,-6.5897,-6.5897,-7.0898,-7.0898,-7.0898,-7.0898,-7.0898,-7.0898,-7.0898,-7.0898,-7.0898,-7.0898,-7.2283,0.0,0.0,-7.4861,-7.6015,-7.6015,-7.6015,-7.6015,-7.6015,0.0,-7.6015,-7.6015,-7.6015,-7.6015,-7.6015,-7.6015,-7.6015,-7.6015,-7.6015,-7.6015,-7.6092,-7.6015,-7.6015,-7.6092,-7.6015,-7.6015,-7.6015,-7.6015,-7.6015,-7.6092,-7.6092,-7.6053,-7.6015,-7.6015,-7.6015,-7.6015,-7.6015,-7.6015,-7.6015,-7.6015,-7.6015,-7.6015,-7.6015,-7.6015,-7.6015,-7.6015,-7.6015,-7.6015,-7.6015,-7.6015,-7.6015,-7.6015,-7.6015,-7.6015,-7.6015,-7.6015,-7.6015,-7.6015,-7.6015,-7.6015,-7.6015,-7.6015,-7.6015,-7.6015,-7.4707,-7.3514,-7.3514,-7.2129,-7.0898,-7.0898,-7.0898,-7.0898,-7.0898,-7.0898,-7.0898,-7.0898,-7.0898,-7.0898,-7.0898,-7.0898,-7.0898,-7.0898,-7.0898,-7.0898,-7.0898,-7.0206,-6.9398,-6.8462,-6.7513,-6.6667,-6.5936,-6.5897,-6.5897,-6.5897,-6.5897,-6.5897,-6.5897,-6.5897,-6.5897,-6.5897,-6.5897,-6.5897,-7.0898,-7.0898,-7.0898,-7.0898,-7.0898,-7.0898,-7.0898,-7.0898,-7.0898,-7.0898,-7.2283,-7.3822,0.0,0.0,-7.6015,-7.6015,-7.6015,-7.6015,-7.6015,-7.6015,-7.6015,-7.6015,-7.6015,-7.6015,-7.6015,-7.6015,-7.6015,-7.6015,-7.6015,-7.6015,-7.6015,-7.6015,-7.6015,-7.6015,-7.6015,-7.6015,-7.6015,-7.6015,-7.6015,-7.6015,-7.6015,-7.6015,-7.6015,-7.6015,-7.6015,-7.6015,-7.6015,-7.6015,-7.6015,-7.6015,-7.6015,-7.6015,-7.6015,-7.6015,-7.6015,-7.6015,-7.6015,-7.6015,-7.6015,-7.6015,-7.6015,-7.6015,-7.6015,-7.6015,-7.6015,-7.6015,-7.6015,-7.6015,-7.6015,-7.6015,-7.6015,-7.6015,-7.6015,-7.6015,-7.4707,-7.3514,-7.3514,-7.2129,-7.0898,-7.0898,-7.0898,-7.0898,-7.0898,-7.0898,-7.0898,-7.0898,-7.0898,-7.0898,-7.0898,-7.0898,-7.0898,-7.0898,-7.0898,-7.0898,-7.0898,-7.0629,-7.009,-6.9244,-6.7859,-6.6744,-6.5936,-6.5897,-6.5897,-6.5897,-6.5897,-6.5897,-6.5897,-6.5897,-6.5897,-6.5897,-6.5897,-6.5897,-7.0898,-7.0898,-7.0898,-7.0898,-7.0898,-7.0898,-7.0898,-7.0898,-7.0898,-7.0898,-7.2283,-7.4014,-7.5707,0.0,0.0,0.0,-7.6015,-7.6015,-7.6015,-7.6015,-7.6015,-7.6015,-7.6015,-7.6015,-7.6015,-7.6015,-7.6015,-7.6015,-7.6015,-7.6015,-7.6015,-7.6015,-7.6015,-7.6015,-7.6015,-7.6015,-7.6015,-7.6015,-7.6015,-7.6015,-7.6015,-7.6015,-7.6015,-7.6015,-7.6015,-7.6015,-7.6015,-7.6015,-7.6015,-7.6015,-7.6015,-7.6015,-7.6015,-7.6015,-7.6015,-7.6015,-7.6015,-7.6015,-7.6015,-7.6015,-7.6015,-7.6015,-7.6015,-7.6015,-7.6015,-7.6015,-7.6015,-7.6015,-7.6015,-7.6015,-7.6015,-7.6015,-7.6015,-7.6015,-7.4899,-7.3822,-7.3553,-7.236,-7.1245,-7.0937,-7.0898,-7.0898,-7.0898,-7.0898,-7.0898,-7.0898,-7.0898,-7.0898,-7.0898,-7.0898,-7.0898,-7.0898,-7.0898,-7.0898,-7.0898,-7.0898,-7.0552,-6.9744,-6.8321,-6.7128,-6.632,-6.6013,-6.5897,-6.5897,-6.5897,-6.5897,-6.5897,-6.5897,-6.5897,-6.5897,-6.5897,-6.5897,-7.0898,-7.0898,-7.0898,-7.0898,-7.0898,-7.0898,-7.0898,-7.0898,-7.0898,-7.0937,-7.2322,-7.4014,-7.5707,-7.6015,0.0,-7.6015,-7.6015,-7.6015,-7.6015,-7.6015,-7.6015,-7.6015,-7.6015,-7.6015,-7.6015,-7.6015,-7.6015,-7.6015,-7.6015,-7.6015,-7.6015,-7.6015,-7.6015,-7.6015,-7.6015,-7.6015,-7.6015,-7.6015,-7.6015,-7.6015,-7.6015,-7.6015,-7.6015,-7.6015,-7.6015,-7.6015,-7.6015,-7.6015,-7.6015,-7.6015,-7.6015,-7.6015,-7.6015,-7.6015,-7.6015,-7.6015,-7.6015,-7.6015,-7.6015,-7.6015,-7.6015,-7.6015,-7.6015,-7.6015,-7.6015,-7.6015,-7.6015,-7.6015,-7.6015,-7.6015,-7.6015,-7.6015,-7.6015,-7.6015,-7.5322,-7.4476,-7.3668,-7.2822,-7.1937,-7.1052,-7.0898,-7.0898,-7.0898,-7.0898,-7.0898,-7.0898,-7.0898,-7.0898,-7.0898,-7.0898,-7.0898,-7.0898,-7.0898,-7.0898,-7.0898,-7.0898,-7.0552,-6.9744,-6.8898,-6.8013,-6.7128,-6.632,-6.5897,-6.5897,-6.5897,-6.5897,-6.5897,-6.5897,-6.5897,-6.5897,-6.5897,-6.5897,-7.0898,-7.0898,-7.0898,-7.0898,-7.0898,-7.0898,-7.0898,-7.0898,-7.1245,0.0,-7.3591,-7.4668,-7.5784,-7.6015,0.0,-7.6015,-7.6015,-7.6015,-7.6015,-7.6015,-7.6015,-7.6015,-7.6015,-7.6015,-7.6015,-7.6015,-7.6015,-7.6015,-7.6015,-7.6015,-7.6015,-7.6015,-7.6015,-7.6015,-7.6015,-7.6015,-7.6015,-7.6015,-7.6015,-7.6015,-7.6015,-7.6015,-7.6015,-7.6015,-7.6015,-7.6015,-7.6015,-7.6015,-7.6015,-7.6015,-7.6015,-7.6015,-7.6015,-7.6015,-7.6015,-7.6015,-7.6015,-7.6015,-7.6015,-7.6015,-7.6015,-7.6015,-7.6015,-7.6015,-7.6015,-7.6015,-7.6015,-7.6015,-7.6015,-7.6015,-7.6015,-7.6015,-7.6015,-7.6015,-7.5322,-7.4476,-7.3668,-7.2822,-7.1937,-7.1052,-7.0898,-7.0898,-7.0898,-7.0898,-7.0898,-7.0898,-7.0898,-7.0898,-7.0898,-7.0898,-7.0898,-7.0898,-7.0898,-7.0898,-7.0898,-7.0898,-7.0783,-7.0552,-6.9783,-6.8667,-6.7167,-6.632,-6.5897,-6.5897,-6.5897,-6.5897,-6.5897,-6.5897,-6.5897,-6.5897,-6.5897,-6.5897,-7.0898,-7.0898,-7.0898,-7.0898,-7.0898,-7.0975,-7.1321,0.0,0.0,0.0,-7.4361,-7.4976,-7.5822,-7.6015,0.0,-7.6015,-7.6015,-7.6015,-7.6015,-7.6015,-7.6015,-7.6015,-7.6015,-7.6015,-7.6015,-7.6015,-7.6015,-7.6015,-7.6015,-7.6015,-7.6015,-7.6015,-7.6015,-7.6015,-7.6015,-7.6015,-7.6015,-7.6015,-7.6015,-7.6015,-7.6015,-7.6015,-7.6015,-7.6015,-7.6015,-7.6015,-7.6015,-7.6015,-7.6015,-7.6015,-7.6015,-7.6015,-7.6015,-7.6015,-7.6015,-7.6015,-7.6015,-7.6015,-7.6015,-7.6015,-7.6015,-7.6015,-7.6015,-7.6015,-7.6015,-7.6015,-7.6015,-7.6015,-7.6015,-7.6015,-7.6015,-7.6015,-7.6015,-7.6015,-7.5592,-7.4899,-7.3745,-7.3091,-7.236,-7.1129,-7.0898,-7.0898,-7.0898,-7.0898,-7.0898,-7.0898,-7.0898,-7.0898,-7.0898,-7.0898,-7.0898,-7.0898,-7.0898,-7.0898,-7.0898,-7.0898,-7.0898,-7.0898,-7.0129,-6.909,-6.7667,-6.6821,-6.6244,-6.5897,-6.5897,-6.5897,-6.5897,-6.5897,-6.5897,-6.5897,-6.5897,-6.5897,-7.0898,-7.0975,-7.1014,-7.1014,-7.1091,-7.136,-7.2206,-7.2437,-7.286,-7.4399,0.0,-7.5053,-7.5861,-7.6015,-7.6015,-7.6015,-7.6015,-7.6015,-7.6015,-7.6015,-7.6015,-7.6015,-7.6015,-7.6015,-7.6015,-7.6015,-7.6015,-7.6015,-7.6015,-7.6015,-7.6015,-7.6015,-7.6015,-7.6015,-7.6015,-7.6015,-7.6015,-7.6015,-7.6015,-7.6015,-7.6015,-7.6015,-7.6015,-7.6015,-7.6015,-7.6015,-7.6015,-7.6015,-7.6015,-7.6015,-7.6015,-7.6015,-7.6015,-7.6015,-7.6015,-7.6015,-7.6015,-7.6015,-7.6015,-7.6015,-7.6015,-7.6015,-7.6015,-7.6015,-7.6015,-7.6015,-7.6015,-7.6015,-7.6015,-7.6015,-7.6015,-7.6015,-7.6015,-7.6015,-7.6015,-7.5553,-7.3976,-7.3553,-7.3014,-7.1321,-7.0937,-7.0898,-7.0898,-7.0898,-7.0898,-7.0898,-7.0898,-7.0898,-7.0898,-7.0898,-7.0898,-7.0898,-7.0898,-7.0898,-7.0898,-7.0898,-7.0898,-7.0898,-7.0206,-6.9436,-6.8552,-6.759,-6.6705,-6.5897,-6.5897,-6.5897,-6.5897,-6.5897,-6.5897,-6.5897,-6.5897,-6.5897,-7.0898,-7.1398,-7.1898,-7.1898,-7.2437,-7.3168,-7.3976,-7.4168,-7.4245,-7.463,-7.5245,-7.5784,-7.5976,-7.6015,-7.6015,-7.6015,-7.6015,-7.6015,-7.6015,-7.6015,-7.6015,-7.6015,-7.6015,-7.6015,-7.6015,-7.6015,-7.6015,-7.6015,-7.6015,-7.6015,-7.6015,-7.6015,-7.6015,-7.6015,-7.6015,-7.6015,-7.6015,-7.6015,-7.6015,-7.6015,-7.6015,-7.6015,-7.6015,-7.6015,-7.6015,-7.6015,-7.6015,-7.6015,-7.6015,-7.6015,-7.6015,-7.6015,-7.6015,-7.6015,-7.6015,-7.6015,-7.6015,-7.6015,-7.6015,-7.6015,-7.6015,-7.6015,-7.6015,-7.6015,-7.6015,-7.6015,-7.6015,-7.6015,-7.6015,-7.6015,-7.6015,-7.6015,-7.6015,-7.6015,-7.6015,-7.5707,-7.4668,-7.3937,-7.3206,-7.2129,-7.136,-7.0898,-7.0898,-7.0898,-7.0898,-7.0898,-7.0898,-7.0898,-7.0898,-7.0898,-7.0898,-7.0898,-7.0898,-7.0898,-7.0898,-7.0898,-7.0898,-7.0898,-7.0744,-7.0283,-6.9436,-6.7936,-6.6705,-6.5897,-6.5897,-6.5897,-6.5897,-6.5897,-6.5897,-6.5897,-6.5897,-6.5897,-7.2129,-7.2476,0.0,-7.2822,0.0,-7.4168,-7.4591,-7.5014,-7.5322,-7.5322,-7.5668,-7.6015,-7.6015,-7.6015,-7.6015,-7.6015,-7.6015,-7.6015,-7.6015,-7.6015,-7.6015,-7.6015,-7.6015,-7.6015,-7.6015,-7.6015,-7.6015,-7.6015,-7.6015,-7.6015,-7.6015,-7.6015,-7.6015,-7.6015,-7.6015,-7.6015,-7.6015,-7.6015,-7.6015,-7.6015,-7.6015,-7.6015,-7.6015,-7.6015,-7.6015,-7.6015,-7.6015,-7.6015,-7.6015,-7.6015,-7.6015,-7.6015,-7.6015,-7.6015,-7.6015,-7.6015,-7.6015,-7.6015,-7.6015,-7.6015,-7.6015,-7.6015,-7.6015,-7.6015,-7.6015,-7.6015,-7.6015,-7.6015,-7.6015,-7.6015,-7.6015,-7.6015,-7.6015,-7.6015,-7.6015,-7.5745,-7.4899,-7.4361,-7.3707,-7.2437,-7.1822,-7.1398,-7.0975,-7.0898,-7.0898,-7.0898,-7.0898,-7.0898,-7.0898,-7.0898,-7.0898,-7.0898,-7.0898,-7.0898,-7.0898,-7.0898,-7.0898,-7.0898,-7.0898,-7.0552,-6.9744,-6.8436,-6.7321,-6.6474,-6.609,-6.5897,-6.5897,-6.5897,-6.5897,-6.5897,-6.5897,-6.5897,-7.3514,-7.3577,-7.3745,-7.3899,-7.4437,0.0,-7.4938,-7.5476,-7.6015,-7.6015,-7.6015,-7.6015,-7.6015,-7.6015,-7.6015,-7.6015,-7.6015,-7.6015,-7.6015,-7.6015,-7.6015,-7.6015,-7.6015,-7.6015,-7.6015,-7.6015,-7.6015,-7.6015,-7.6015,-7.6015,-7.6015,-7.6015,-7.6015,-7.6015,-7.6015,-7.6015,-7.6015,-7.6015,-7.6015,-7.6015,-7.6015,-7.6015,-7.6015,-7.6015,-7.6015,-7.6015,-7.6015,-7.6015,-7.6015,-7.6015,-7.6015,-7.6015,-7.6015,-7.6015,-7.6015,-7.6015,-7.6015,-7.6015,-7.6015,-7.6015,-7.6015,-7.6015,-7.6015,-7.6015,-7.6015,-7.6015,-7.6015,-7.6015,-7.6015,-7.6015,-7.6015,-7.6015,-7.6015,-7.6015,-7.6015,-7.5784,-7.5091,-7.4822,-7.4284,-7.2899,-7.2399,-7.1975,-7.1245,-7.1014,-7.0898,-7.0898,-7.0898,-7.0898,-7.0898,-7.0898,-7.0898,-7.0898,-7.0898,-7.0898,-7.0898,-7.0898,-7.0898,-7.0898,-7.0898,-7.0591,-6.9937,-6.909,-6.8205,-6.7321,-6.6397,-6.5897,-6.5897,-6.5897,-6.5897,-6.5897,-6.5897,-6.5897,-7.3514,0.0,-7.4707,0.0,-7.5745,-7.5822,0.0,0.0,-7.6015,0.0,-7.6015,-7.6015,-7.6015,-7.6015,-7.6015,-7.6015,-7.6015,-7.6015,-7.6015,-7.6015,-7.6015,-7.6015,-7.6015,-7.6015,-7.6015,-7.6015,-7.6015,-7.6015,-7.6015,-7.6015,-7.6015,-7.6015,-7.6015,-7.6015,-7.6015,-7.6015,-7.6015,-7.6015,-7.6015,-7.6015,-7.6015,-7.6015,-7.6015,-7.6015,-7.6015,-7.6015,-7.6015,-7.6015,-7.6015,-7.6015,-7.6015,-7.6015,-7.6015,-7.6015,-7.6015,-7.6015,-7.6015,-7.6015,-7.6015,-7.6015,-7.6015,-7.6015,-7.6015,-7.6015,-7.6015,-7.6015,-7.6015,-7.6015,-7.6015,-7.6015,-7.6015,-7.6015,-7.6015,-7.6015,-7.6015,-7.5976,-7.5861,-7.5245,-7.463,-7.4399,-7.3206,-7.2168,-7.2052,-7.1398,-7.0898,-7.0898,-7.0898,-7.0898,-7.0898,-7.0898,-7.0898,-7.0898,-7.0898,-7.0898,-7.0898,-7.0898,-7.0898,-7.0898,-7.0898,-7.086,-7.0744,-6.9975,-6.9129,-6.8244,-6.6705,-6.5897,-6.5897,-6.5897,-6.5897,-6.5897,-6.5897,-6.5897,-7.4899,-7.5168,-7.5515,0.0,-7.6015,-7.6015,-7.6015,-7.6015,-7.6015,-7.6015,-7.6015,-7.6015,-7.6015,-7.6015,-7.6015,-7.6015,-7.6015,-7.6015,-7.6015,-7.6015,-7.6015,-7.6015,-7.6015,-7.6015,-7.6015,-7.6015,-7.6015,-7.6015,-7.6015,-7.6015,-7.6015,-7.6015,-7.6015,-7.6015,-7.6015,-7.6015,-7.6015,-7.6015,-7.6015,-7.6015,-7.6015,-7.6015,-7.6015,-7.6015,-7.6015,-7.6015,-7.6015,-7.6015,-7.6015,-7.6015,-7.6015,-7.6015,-7.6015,-7.6015,-7.6015,-7.6015,-7.6015,-7.6015,-7.6015,-7.6015,-7.6015,-7.6015,-7.6015,-7.6015,-7.6015,-7.6015,-7.6015,-7.6015,-7.6015,-7.6015,-7.6015,-7.6015,-7.6015,-7.6015,-7.6015,-7.6015,-7.6015,-7.5707,-7.5284,-7.4784,-7.3745,-7.2783,-7.2283,-7.186,-7.1475,-7.0975,-7.0898,-7.0898,-7.0898,-7.0898,-7.0898,-7.0898,-7.0898,-7.0898,-7.0898,-7.0898,-7.0898,-7.0898,-7.0898,-7.0898,-7.0898,-7.0129,-6.9513,-6.9129,-6.7436,-6.6359,-6.5897,-6.5897,-6.5897,-6.5897,-6.5897,-6.5897,0.0,0.0,-7.6015,-7.6015,-7.6015,-7.6015,0.0,0.0,-7.6015,0.0,-7.6015,-7.6015,-7.6015,-7.6015,-7.6015,-7.6015,-7.6015,-7.6015,-7.6015,-7.6015,-7.6015,-7.6015,-7.6015,-7.6015,-7.6015,-7.6015,-7.6015,-7.6015,-7.6015,-7.6015,-7.6015,-7.6015,-7.6015,-7.6015,-7.6015,-7.6015,-7.6015,-7.6015,-7.6015,-7.6015,-7.6015,-7.6015,-7.6015,-7.6015,-7.6015,-7.6015,-7.6015,-7.6015,-7.6015,-7.6015,-7.6015,-7.6015,-7.6015,-7.6015,-7.6015,-7.6015,-7.6015,-7.6015,-7.6015,-7.6015,-7.6015,-7.6015,-7.6015,-7.6015,-7.6015,-7.6015,-7.6015,-7.6015,-7.6015,-7.6015,-7.6015,-7.6015,-7.6015,-7.6015,-7.6015,-7.6015,-7.6015,-7.6015,-7.5822,-7.5168,-7.4361,-7.3591,-7.2937,-7.2668,-7.2245,-7.136,-7.1245,-7.1168,-7.0937,-7.0898,-7.0898,-7.0898,-7.0898,-7.0898,-7.0898,-7.0898,-7.0898,-7.0898,-7.0898,-7.0898,-7.0898,-7.0321,-6.9898,-6.9706,-6.8436,-6.7244,-6.6205,-6.6013,-6.5897,-6.5897,-6.5897,-6.5897,0.0,-7.6015,0.0,-7.6015,-7.6015,-7.6015,0.0,0.0,-7.6015,-7.6015,-7.6015,-7.6015,-7.6015,-7.6015,-7.6015,-7.6015,-7.6015,-7.6015,-7.6015,-7.6015,-7.6015,-7.6015,-7.6015,-7.6015,-7.6015,-7.6015,-7.6015,-7.6015,-7.6015,-7.6015,-7.6015,-7.6015,-7.6015,-7.6015,-7.6015,-7.6015,-7.6015,-7.6015,-7.6015,-7.6015,-7.6015,-7.6015,-7.6015,-7.6015,-7.6015,-7.6015,-7.6015,-7.6015,-7.6015,-7.6015,-7.6015,-7.6015,-7.6015,-7.6015,-7.6015,-7.6015,-7.6015,-7.6015,-7.6015,-7.6015,-7.6015,-7.6015,-7.6015,-7.6015,-7.6015,-7.6015,-7.6015,-7.6015,-7.6015,-7.6015,-7.6015,-7.6015,-7.6015,-7.6015,-7.6015,-7.6015,-7.6015,-7.6015,-7.5976,-7.5938,-7.5245,-7.463,-7.4591,-7.3937,-7.3129,-7.2245,-7.2129,-7.1822,-7.1014,-7.0898,-7.0898,-7.0898,-7.0898,-7.0898,-7.0898,-7.0898,-7.0898,-7.0898,-7.0898,-7.0898,-7.0898,-7.086,-7.0475,-6.9706,-6.9629,-6.8744,-6.7051,-6.6282,-6.5897,-6.5897,-6.5897,-6.5897,0.0,0.0,0.0,-7.6015,-7.6015,-7.6015,-7.6015,-7.6015,-7.6015,-7.6015,-7.6015,-7.6015,-7.6015,-7.6015,-7.6015,-7.6015,-7.5515,-7.5168,-7.5168,-7.4707,-7.4399,-7.4399,-7.4399,-7.4399,-7.4399,-7.4399,-7.4399,-7.4399,-7.4399,-7.4399,-7.4399,-7.4399,-7.4399,-7.4399,-7.4399,-7.4399,-7.4399,-7.4399,-7.4399,-7.4399,-7.4399,-7.4399,-7.4399,-7.4399,-7.4399,-7.4437,-7.4938,-7.5476,-7.6015,-7.6015,-7.6015,-7.6015,-7.6015,-7.6015,-7.6015,-7.6015,-7.6015,-7.6015,-7.6015,-7.6015,-7.6015,-7.6015,-7.6015,-7.6015,-7.6015,-7.6015,-7.6015,-7.6015,-7.6015,-7.6015,-7.6015,-7.6015,-7.6015,-7.6015,-7.6015,-7.6015,-7.6015,-7.6015,-7.6015,-7.6015,-7.5745,-7.5361,-7.4822,-7.4476,-7.3976,-7.3168,-7.3014,-7.2706,-7.186,-7.1745,-7.1514,-7.0975,-7.0898,-7.0898,-7.0898,-7.0898,-7.0898,-7.0898,-7.0898,-7.0898,-7.0898,-7.0898,-7.0744,-7.0475,-6.9975,-6.8821,-6.709,-6.6821,-6.6397,-6.5897,-6.5897,-6.5897,-7.6015,0.0,0.0,0.0,-7.6015,-7.6015,-7.6015,0.0,-7.6015,-7.6015,-7.6015,-7.6015,-7.6015,-7.6015,-7.6015,-7.6015,-7.5284,-7.4707,-7.4707,-7.4014,-7.3514,-7.3514,-7.3514,-7.3514,-7.3514,-7.3514,-7.3514,-7.3514,-7.3514,0.0,-7.3514,-7.3514,-7.3514,-7.3514,-7.3514,-7.3514,-7.3514,-7.3514,-7.3514,-7.3514,-7.3514,-7.3514,-7.3514,-7.3514,-7.3514,-7.3553,-7.4091,-7.4784,-7.5592,-7.5861,-7.6015,-7.6015,-7.6015,-7.6015,-7.6015,-7.6015,-7.6015,-7.6015,-7.6015,-7.6015,-7.6015,-7.6015,-7.6015,-7.6015,-7.6015,-7.6015,-7.6015,-7.6015,-7.6015,-7.6015,-7.6015,-7.6015,-7.6015,-7.6015,-7.6015,-7.6015,-7.6015,-7.6015,-7.6015,-7.6015,-7.6015,-7.5822,-7.5245,-7.513,-7.4861,-7.4053,-7.3899,-7.3591,-7.2745,-7.236,-7.1975,-7.1398,-7.1052,-7.0898,-7.0898,-7.0898,-7.0898,-7.0898,-7.0898,-7.0898,-7.0898,-7.0898,-7.0898,-7.0898,-7.0398,-6.9398,-6.7975,-6.7398,-6.6821,-6.6282,-6.6013,-6.5897,0.0,0.0,0.0,0.0,0.0,0.0,-7.6015,0.0,-7.6015,-7.6015,-7.6015,-7.6015,-7.6015,-7.6015,-7.5976,-7.5976,-7.5245,-7.4668,-7.463,-7.3937,-7.3423,-7.3423,-7.3423,-7.3423,-7.3423,-7.3423,-7.3423,-7.3423,-7.3423,-7.3423,-7.3423,-7.3423,-7.3423,-7.3423,-7.3423,-7.3423,-7.3423,-7.3423,-7.3423,-7.3423,-7.3423,-7.3423,-7.3423,-7.3423,-7.3423,-7.3423,-7.3437,-7.3937,-7.4745,-7.5592,-7.5976,-7.6015,-7.6015,-7.6015,-7.6015,-7.6015,-7.6015,-7.6015,-7.6015,-7.6015,-7.6015,-7.6015,-7.6015,-7.6015,-7.6015,-7.6015,-7.6015,-7.6015,-7.6015,-7.6015,-7.6015,-7.6015,-7.6015,-7.6015,-7.6015,-7.6015,-7.6015,-7.6015,-7.6015,-7.6015,-7.6015,-7.6015,-7.6015,-7.6015,-7.5707,-7.4861,-7.4745,-7.4437,-7.363,-7.2783,-7.2245,-7.2206,-7.1437,-7.0937,-7.0898,-7.0898,-7.0898,-7.0898,-7.0898,-7.0898,-7.0898,-7.0898,-7.0898,-7.0898,-7.0898,-7.0514,-6.9744,-6.8013,-6.7167,-6.7128,-6.632,-6.5897,-7.6015,0.0,0.0,0.0,0.0,0.0,-7.6015,-7.6015,-7.6015,-7.6015,-7.6015,-7.6015,-7.6015,-7.6015,-7.5784,-7.5168,-7.4361,-7.363,-7.2976,-7.2168,-7.1629,-7.1629,-7.1629,-7.1629,-7.1629,-7.1629,-7.1629,0.0,-7.1629,-7.1629,-7.1629,-7.1629,-7.1629,-7.1629,-7.1629,-7.1629,-7.1629,-7.1629,-7.1629,-7.1629,-7.1629,-7.1629,-7.1629,-7.1629,-7.1629,-7.1668,-7.2283,-7.3053,-7.3899,-7.4707,-7.5438,-7.6015,-7.6015,-7.6015,-7.6015,-7.6015,-7.6015,-7.6015,-7.6015,-7.6015,-7.6015,-7.6015,-7.6015,-7.6015,-7.6015,-7.6015,-7.6015,-7.6015,-7.6015,-7.6015,-7.6015,-7.6015,-7.6015,-7.6015,-7.6015,-7.6015,-7.6015,-7.6015,-7.6015,-7.6015,-7.6015,-7.6015,-7.6015,-7.6015,-7.5938,-7.5668,-7.563,-7.5322,-7.4476,-7.4168,-7.3553,-7.2322,-7.1975,-7.1591,-7.0937,-7.0898,-7.0898,-7.0898,-7.0898,-7.0898,-7.0898,-7.0898,-7.0898,-7.0898,-7.0898,-7.0783,-7.0552,-6.9513,-6.8667,-6.8013,-6.7167,-6.6436,0.0,0.0,0.0,0.0,0.0,0.0,-7.6015,-7.6015,-7.6015,0.0,-7.6015,-7.6015,-7.6015,-7.6015,-7.5592,-7.4399,-7.3822,-7.3206,-7.2322,-7.1437,-7.0898,-7.0898,-7.0898,-7.0898,-7.0898,-7.0898,-7.0898,-7.0898,-7.0898,-7.0898,-7.0898,-7.0898,-7.0898,-7.0898,-7.0898,-7.0898,-7.0898,-7.0898,-7.0898,-7.0898,-7.0898,-7.0898,-7.0898,-7.0898,-7.0898,-7.0937,-7.1437,-7.236,-7.3538,-7.4014,-7.4899,-7.6015,-7.6015,-7.6015,-7.6015,-7.6015,-7.6015,-7.6015,-7.6015,-7.6015,-7.6015,-7.6015,-7.6015,-7.6015,-7.6015,-7.6015,-7.6015,-7.6015,-7.6015,-7.6015,-7.6015,-7.6015,-7.6015,-7.6015,-7.6015,-7.6015,-7.6015,-7.6015,-7.6015,-7.6015,-7.6015,-7.6015,-7.6015,-7.6015,-7.6015,-7.6015,-7.6015,-7.5822,-7.5322,-7.4938,-7.4322,-7.336,-7.2629,-7.1975,-7.1475,-7.1091,-7.0898,-7.0898,-7.0898,-7.0898,-7.0898,-7.0898,-7.0898,-7.0898,-7.0898,-7.0898,-7.0898,-7.009,-6.9244,-6.8385,-6.7898,-6.7398,0.0,0.0,0.0,-7.6015,-7.6015,0.0,-7.6015,-7.6015,-7.6015,-7.6015,-7.6015,-7.6015,-7.6015,-7.6015,-7.5438,-7.3783,-7.3514,-7.3168,-7.2168,-7.1398,-7.0898,-7.0898,-7.0898,-7.0898,-7.0898,-7.0898,-7.0898,-7.0898,-7.0898,-7.0898,-7.0898,-7.0898,-7.0898,-7.0898,-7.0898,-7.0898,-7.0898,-7.0898,-7.0898,-7.0898,-7.0898,-7.0898,-7.0898,-7.0898,-7.0898,-7.0898,-7.1014,-7.1975,-7.3514,-7.3577,-7.4591,-7.6015,-7.6015,-7.6015,-7.6015,-7.6015,-7.6015,-7.6015,-7.6015,-7.6015,-7.6015,-7.6015,-7.6015,-7.6015,-7.6015,-7.6015,-7.6015,-7.6015,-7.6015,-7.6015,-7.6015,-7.6015,-7.6015,-7.6015,-7.6015,-7.6015,-7.6015,-7.6015,-7.6015,-7.6015,-7.6015,-7.6015,-7.6015,-7.6015,-7.6015,-7.6015,-7.6015,-7.6015,-7.6015,-7.5322,-7.4822,-7.4707,-7.3283,-7.2322,-7.2206,-7.1398,-7.0898,-7.0898,-7.0898,-7.0898,-7.0898,-7.0898,-7.0898,-7.0898,-7.0898,-7.0898,-7.0898,-7.0167,-6.9398,-6.8552,-6.8552,-6.8513,0.0,0.0,0.0,0.0,-7.6015,0.0,-7.6015,-7.6015,-7.6015,0.0,-7.6015,-7.6015,-7.6015,-7.6015,-7.5438,-7.3783,-7.3514,-7.2937,-7.136,-7.1014,-7.0898,-7.0898,-7.0898,-7.0898,-7.0898,-7.0898,-7.0898,-7.0898,-7.0898,-7.0898,-7.0898,-7.0898,-7.0898,-7.0898,-7.0898,-7.0898,-7.0898,-7.0898,-7.0898,-7.0898,-7.0898,-7.0898,-7.0898,-7.0898,-7.0898,-7.0937,-7.1629,-7.2552,-7.3553,-7.4207,-7.5091,-7.6015,-7.6015,-7.6015,-7.6015,-7.6015,-7.6015,-7.6015,-7.6015,-7.6015,-7.6015,-7.6015,-7.6015,-7.6015,-7.6015,-7.6015,-7.6015,-7.6015,-7.6015,-7.6015,-7.6015,-7.6015,-7.6015,-7.6015,-7.6015,-7.6015,-7.6015,-7.6015,-7.6015,-7.6015,-7.6015,-7.6015,-7.6015,-7.6015,-7.6015,-7.6015,-7.6015,-7.6015,-7.6015,-7.5861,-7.5476,-7.4784,-7.3822,-7.2976,-7.2245,-7.1398,-7.0898,-7.0898,-7.0898,-7.0898,-7.0898,-7.0898,-7.0898,-7.0898,-7.0898,-7.0898,-7.0898,-7.0744,-7.0244,-6.9436,-6.9436,-6.909,0.0,0.0,0.0,-7.6015,-7.6015,0.0,0.0,-7.6015,-7.6015,-7.6015,-7.6015,-7.6015,-7.6015,-7.6015,-7.5438,-7.3783,-7.3514,-7.2899,-7.1168,-7.0898,-7.0898,-7.0898,-7.0898,-7.0898,-7.0898,-7.0898,-7.0898,-7.0898,-7.0898,-7.0898,-7.0898,-7.0898,-7.0898,-7.0898,-7.0898,-7.0898,-7.0898,-7.0898,-7.0898,-7.0898,-7.0898,-7.0898,-7.0898,-7.0898,-7.0898,-7.0937,-7.1822,-7.2706,-7.3553,-7.4361,-7.5207,-7.6015,-7.6015,-7.6015,-7.6015,-7.6015,-7.6015,-7.6015,-7.6015,-7.6015,-7.6015,-7.6015,-7.6015,-7.6015,-7.6015,-7.6015,-7.6015,-7.6015,-7.6015,-7.6015,-7.6015,-7.6015,-7.6015,-7.6015,-7.6015,-7.6015,-7.6015,-7.6015,-7.6015,-7.6015,-7.6015,-7.6015,-7.6015,-7.6015,-7.6015,-7.6015,-7.6015,-7.6015,-7.6015,-7.6015,-7.5822,-7.5399,-7.4591,-7.3745,-7.2937,-7.2052,-7.136,-7.0937,-7.0898,-7.0898,-7.0898,-7.0898,-7.0898,-7.0898,-7.0898,-7.0898,-7.0898,-7.0898,-7.0706,-7.0283,-7.0283,-7.0052,-7.6015,0.0,0.0,0.0,-7.6015,-7.6015,0.0,0.0,0.0,-7.6015,0.0,0.0,0.0,0.0,0.0,0.0,0.0,0.0,0.0,-7.1014,0.0,-7.0898,-7.0898,-7.0898,-7.0898,-7.0898,-7.0898,-7.0898,-7.0898,-7.0898,-7.0898,-7.0898,-7.0898,-7.0898,-7.0898,-7.0898,-7.0898,-7.0898,-7.0898,-7.0898,-7.0898,-7.0898,-7.0898,-7.0898,-7.0975,-7.1206,-7.2052,-7.2937,-7.3783,-7.463,-7.5361,-7.6015,-7.6015,-7.6015,-7.6015,-7.6015,-7.6015,-7.6015,-7.6015,-7.6015,-7.6015,-7.6015,-7.6015,-7.6015,-7.6015,-7.6015,-7.6015,-7.6015,-7.6015,-7.6015,-7.6015,-7.6015,-7.6015,-7.6015,-7.6015,-7.6015,-7.6015,-7.6015,-7.6015,-7.6015,-7.6015,-7.6015,-7.6015,-7.6015,-7.6015,-7.6015,-7.6015,-7.6015,-7.6015,-7.6015,-7.6015,-7.6015,-7.5207,-7.4361,-7.3591,-7.2706,-7.1822,-7.0975,-7.0898,-7.0898,-7.0898,-7.0898,-7.0898,-7.0898,-7.0898,-7.0898,-7.0898,-7.0898,-7.0898,-7.0898,-7.0898,-7.0898,0.0,0.0,0.0,0.0,-7.6015,-7.6015,-7.6015,0.0,-7.6015,-7.6015,0.0,0.0,0.0,0.0,0.0,0.0,0.0,0.0,-7.2168,-7.1398,-7.0898,-7.0898,-7.0898,-7.0898,-7.0898,-7.0898,-7.0898,-7.0898,-7.0898,-7.0898,-7.0898,-7.0898,-7.0898,-7.0898,-7.0898,-7.0898,-7.0898,-7.0898,-7.0898,-7.0898,-7.0898,-7.0898,-7.0898,-7.0898,-7.1321,-7.2091,-7.2976,-7.3822,-7.463,-7.5515,-7.5899,-7.6015,-7.6015,-7.6015,-7.6015,-7.6015,-7.6015,-7.6015,-7.6015,-7.6015,-7.6015,-7.6015,-7.6015,-7.6015,-7.6015,-7.6015,-7.6015,-7.6015,-7.6015,-7.6015,-7.6015,-7.6015,-7.6015,-7.6015,-7.6015,-7.6015,-7.6015,-7.6015,-7.6015,-7.6015,-7.6015,-7.6015,-7.6015,-7.6015,-7.6015,-7.6015,-7.6015,-7.6015,-7.6015,-7.6015,-7.6015,-7.6015,-7.5207,-7.4361,-7.3591,-7.2706,-7.1822,-7.0975,-7.0898,-7.0898,-7.0898,-7.0898,-7.0898,-7.0898,-7.0898,-7.0898,-7.0898,-7.0898,-7.0898,-7.0898,-7.0898,-7.0898,0.0,0.0,0.0,0.0,0.0,0.0,-7.6015,0.0,-7.6015,0.0,0.0,0.0,0.0,0.0,0.0,0.0,-7.3745,0.0,0.0,0.0,-7.0898,0.0,0.0,0.0,-7.0898,-7.0898,-7.0898,-7.0898,-7.0898,-7.0898,-7.0898,-7.0898,-7.0898,-7.0898,-7.0898,-7.0898,-7.0898,-7.0898,-7.0898,-7.0898,-7.0898,-7.0898,-7.0898,-7.0898,-7.136,-7.2245,-7.3129,-7.3976,-7.4784,-7.563,-7.6015,-7.6015,-7.6015,-7.6015,-7.6015,-7.6015,-7.6015,-7.6015,-7.6015,-7.6015,-7.6015,-7.6015,-7.6015,-7.6015,-7.6015,-7.6015,-7.6015,-7.6015,-7.6015,-7.6015,-7.6015,-7.6015,-7.6015,-7.6015,-7.6015,-7.6015,-7.6015,-7.6015,-7.6015,-7.6015,-7.6015,-7.6015,-7.6015,-7.6015,-7.6015,-7.6015,-7.6015,-7.6015,-7.6015,-7.6015,-7.6015,-7.6015,-7.5668,-7.513,-7.4284,-7.3437,-7.2591,-7.1706,-7.1168,-7.0898,-7.0898,-7.0898,-7.0898,-7.0898,-7.0898,-7.0898,-7.0898,-7.0898,-7.0898,-7.0898,-7.0898,-7.0898,-7.6015,0.0,0.0,0.0,0.0,0.0,0.0,0.0,0.0,0.0,0.0,0.0,0.0,0.0,0.0,0.0,0.0,-7.2976,0.0,-7.1052,0.0,0.0,0.0,0.0,0.0,-7.0898,-7.0898,-7.0898,-7.0898,-7.0898,-7.0898,-7.0898,-7.0898,-7.0898,-7.0898,-7.0898,-7.0898,-7.0898,-7.0898,-7.0898,-7.0898,-7.0898,-7.0898,-7.0898,-7.1514,-7.2591,-7.3245,-7.4091,-7.513,-7.5745,-7.6015,-7.6015,-7.6015,-7.6015,-7.6015,-7.6015,-7.6015,-7.6015,-7.6015,-7.6015,-7.6015,-7.6015,-7.6015,-7.6015,-7.6015,-7.6015,-7.6015,-7.6015,-7.6015,-7.6015,-7.6015,-7.6015,-7.6015,-7.6015,-7.6015,-7.6015,-7.6015,-7.6015,-7.6015,-7.6015,-7.6015,-7.6015,-7.6015,-7.6015,-7.6015,-7.6015,-7.6015,-7.6015,-7.6015,-7.6015,-7.6015,-7.6015,-7.6015,-7.5668,-7.4784,-7.4168,-7.336,-7.2283,-7.136,-7.0898,-7.0898,-7.0898,-7.0898,-7.0898,-7.0898,-7.0898,-7.0898,-7.0898,-7.0898,-7.0898,-7.0898,-7.0898,0.0,0.0,0.0,-7.6015,-7.6015,0.0,0.0,0.0,-7.6015,0.0,0.0,0.0,0.0,0.0,0.0,0.0,0.0,0.0,0.0,0.0,0.0,0.0,0.0,0.0,0.0,-7.0898,-7.0898,0.0,-7.0898,-7.0898,-7.0898,-7.0898,-7.0898,-7.0898,-7.0898,-7.0898,-7.0898,-7.0898,-7.0898,-7.0898,-7.0898,-7.0898,-7.0898,-7.0898,-7.186,-7.3476,-7.35,-7.4437,-7.5976,-7.5976,-7.6015,-7.6015,-7.6015,-7.6015,-7.6015,-7.6015,-7.6015,-7.6015,-7.6015,-7.6015,-7.6015,-7.6015,-7.6015,-7.6015,-7.6015,-7.6015,-7.6015,-7.6015,-7.6015,-7.6015,-7.6015,-7.6015,-7.6015,-7.6015,-7.6015,-7.6015,-7.6015,-7.6015,-7.6015,-7.6015,-7.6015,-7.6015,-7.6015,-7.6015,-7.6015,-7.6015,-7.6015,-7.6015,-7.6015,-7.6015,-7.6015,-7.6015,-7.6015,-7.5668,-7.4784,-7.4668,-7.3976,-7.2283,-7.136,-7.0898,-7.0898,-7.0898,-7.0898,-7.0898,-7.0898,-7.0898,-7.0898,-7.0898,-7.0898,-7.0898,-7.0898,-7.0898,-7.6015,-7.6015,-7.6015,-7.6015,-7.6015,-7.6015,0.0,0.0,0.0,0.0,0.0,0.0,0.0,0.0,0.0,0.0,0.0,0.0,0.0,0.0,0.0,0.0,0.0,0.0,0.0,0.0,0.0,0.0,-7.0898,0.0,-7.0898,-7.0898,-7.0898,-7.0898,-7.0898,-7.0898,-7.0898,-7.0898,-7.0898,-7.0898,-7.0898,-7.0898,-7.0937,-7.1514,-7.2399,-7.3553,-7.4053,-7.4938,-7.6015,-7.6015,-7.6015,-7.6015,-7.6015,-7.6015,-7.6015,-7.6015,-7.6015,-7.6015,-7.6015,-7.6015,-7.6015,-7.6015,-7.6015,-7.6015,-7.6015,-7.6015,-7.6015,-7.6015,-7.6015,-7.6015,-7.6015,-7.6015,-7.6015,-7.6015,-7.6015,-7.6015,-7.6015,-7.6015,-7.6015,-7.6015,-7.6015,-7.6015,-7.6015,-7.6015,-7.6015,-7.6015,-7.6015,-7.6015,-7.6015,-7.6015,-7.6015,-7.6015,-7.6015,-7.5861,-7.5592,-7.5014,-7.4245,-7.3129,-7.2245,-7.1745,-7.1745,-7.1206,-7.0898,-7.0898,-7.0898,-7.0898,-7.0898,-7.0898,-7.0898,-7.0898,-7.0898,-7.0898,-7.6015,-7.6015,-7.6015,-7.6015,-7.6015,-7.6015,-7.6015,0.0,-7.6015,0.0,0.0,0.0,0.0,0.0,0.0,0.0,0.0,0.0,0.0,-7.0898,0.0,0.0,0.0,0.0,0.0,0.0,0.0,0.0,0.0,0.0,0.0,-7.0898,-7.0898,-7.0898,-7.0898,-7.0898,-7.0898,-7.0898,-7.0898,-7.0898,-7.0898,-7.0898,-7.0937,-7.1783,-7.2668,-7.3538,-7.4361,-7.5207,-7.6015,-7.6015,-7.6015,-7.6015,-7.6015,-7.6015,-7.6015,-7.6015,-7.6015,-7.6015,-7.6015,-7.6015,-7.6015,-7.6015,-7.6015,-7.6015,-7.6015,-7.6015,-7.6015,-7.6015,-7.6015,-7.6015,-7.6015,-7.6015,-7.6015,-7.6015,-7.6015,-7.6015,-7.6015,-7.6015,-7.6015,-7.6015,-7.6015,-7.6015,-7.6015,-7.6015,-7.6015,-7.6015,-7.6015,-7.6015,-7.6015,-7.6015,-7.6015,-7.6015,-7.6015,-7.6015,-7.6015,-7.5207,-7.4476,-7.3976,-7.3129,-7.2668,-7.2668,-7.2129,-7.1822,-7.1822,-7.1822,-7.1822,-7.1822,-7.1822,-7.1668,-7.136,-7.136,-7.1206]},{"header":{"parameterUnit":"m.s-1","parameterCategory":1,"la1":30.6,"la2":29.2853,"lo1":-89.7004,"lo2":-87.6739,"dy":0.0162,"dx":0.0183,"nx":112,"ny":82,"refTime":"2024-05-12T18:00:00:Z","depth":0,"parameterNumber":3,"parameterNumberName":"V-component_of_WINDS"},"data":[0.0,0.0,0.0,0.0,0.0,0.0,0.0,0.0,0.0,0.0,0.0,0.0,0.0,0.0,0.0,0.0,0.0,0.0,0.0,0.0,0.0,0.0,0.0,0.0,0.0,0.0,0.0,0.0,0.0,0.0,0.0,0.0,0.0,0.0,0.0,0.0,0.0,0.0,0.0,0.0,0.0,0.0,0.0,0.0,0.0,0.0,0.0,0.0,0.0,0.0,0.0,0.0,0.0,0.0,0.0,0.0,0.0,0.0,0.0,0.0,0.0,0.0,0.0,0.0,0.0,0.0,0.0,0.0,0.0,0.0,0.0,0.0,0.0,0.0,0.0,0.0,0.0,0.0,0.0,0.0,0.0,0.0,0.0,0.0,0.0,0.0,0.0,0.0,0.0,0.0,1.2671,1.5749,1.5918,1.649,1.8324,1.8263,1.8062,1.8062,0.0,0.0,0.0,0.0,0.0,0.0,0.0,0.0,0.0,0.0,0.0,0.0,0.0,0.0,0.0,0.0,0.0,0.0,0.0,0.0,0.0,0.0,0.0,0.0,0.0,0.0,0.0,0.0,0.0,0.0,0.0,0.0,0.0,0.0,0.0,0.0,0.0,0.0,0.0,0.0,0.0,0.0,0.0,0.0,0.0,0.0,0.0,0.0,0.0,0.0,0.0,0.0,0.0,0.0,0.0,0.0,0.0,0.0,0.0,0.0,0.0,0.0,0.0,0.0,0.0,0.0,0.0,0.0,0.0,0.0,0.0,0.0,0.0,0.0,0.0,0.0,0.0,0.0,0.0,0.0,0.0,0.0,0.0,0.0,0.0,0.0,0.0,0.0,0.0,0.0,0.0,0.0,0.0,0.0,0.0,0.0,0.0,0.0,0.0,0.0,0.0,0.0,0.0,0.0,1.2671,1.5749,1.495,1.5412,1.8255,1.845,1.8424,1.8424,0.0,0.0,0.0,0.0,0.0,0.0,0.0,0.0,0.0,0.0,0.0,0.0,0.0,0.0,0.0,0.0,0.0,0.0,0.0,0.0,0.0,0.0,0.0,0.0,0.0,0.0,0.0,0.0,0.0,0.0,0.0,0.0,0.0,0.0,0.0,0.0,0.0,0.0,0.0,0.0,0.0,0.0,0.0,0.0,0.0,0.0,0.0,0.0,0.0,0.0,0.0,0.0,0.0,0.0,0.0,0.0,0.0,0.0,0.0,0.0,0.0,0.0,0.0,0.0,0.0,0.0,0.0,0.0,0.0,0.0,0.0,0.0,0.0,0.0,0.0,0.0,0.0,0.0,0.0,0.0,0.0,0.0,0.0,0.0,0.0,0.0,0.0,0.0,0.0,0.0,0.0,0.0,0.0,0.0,0.0,0.0,0.0,0.0,0.0,0.0,0.0,0.0,0.0,1.1422,1.2425,1.382,1.4179,1.5225,1.7494,1.829,1.8731,1.8731,1.8317,0.0,0.0,0.0,0.0,0.0,0.0,0.0,0.0,0.0,0.0,0.0,0.0,0.0,0.0,0.0,0.0,0.0,0.0,0.0,0.0,0.0,0.0,0.0,0.0,0.0,0.0,0.0,0.0,0.0,0.0,0.0,0.0,0.0,0.0,0.0,0.0,0.0,0.0,0.0,0.0,0.0,0.0,0.0,0.0,0.0,0.0,0.0,0.0,0.0,0.0,0.0,0.0,0.0,0.0,0.0,0.0,0.0,0.0,0.0,0.0,0.0,0.0,0.0,0.0,0.0,0.0,0.0,0.0,0.0,0.0,0.0,0.0,0.0,0.0,0.0,0.0,0.0,0.0,0.0,0.0,0.0,0.0,0.0,0.0,0.0,0.0,0.0,0.0,0.0,0.0,0.0,0.0,0.0,0.0,0.0,0.0,0.0,0.0,0.0,0.0,0.0,0.0,1.0921,1.1817,1.2283,1.3389,1.4919,1.6879,1.789,1.8612,1.8968,1.8758,0.0,0.0,0.0,0.0,0.0,0.0,0.0,0.0,0.0,0.0,0.0,0.0,0.0,0.0,0.0,0.0,0.0,0.0,0.0,0.0,0.0,0.0,0.0,0.0,0.0,0.0,0.0,0.0,0.0,0.0,0.0,0.0,0.0,0.0,0.0,0.0,0.0,0.0,0.0,0.0,0.0,0.0,0.0,0.0,0.0,0.0,0.0,0.0,0.0,0.0,0.0,0.0,0.0,0.0,0.0,0.0,0.0,0.0,0.0,0.0,0.0,0.0,0.0,0.0,0.0,0.0,0.0,0.0,0.0,0.0,0.0,0.0,0.0,0.0,0.0,0.0,0.0,0.0,0.0,0.0,0.0,0.0,0.0,0.0,0.0,0.0,0.0,0.0,0.0,0.0,0.0,0.0,0.0,0.0,0.0,0.0,0.0,0.0,0.0,0.0,0.0,0.0,1.0183,1.082,1.2457,1.2581,1.3817,1.6906,1.715,1.7769,1.9274,1.9052,0.0,0.0,0.0,0.0,0.0,0.0,0.0,0.0,0.0,0.0,0.0,0.0,0.0,0.0,0.0,0.0,0.0,0.0,0.0,0.0,0.0,0.0,0.0,0.0,0.0,0.0,0.0,0.0,0.0,0.0,0.0,0.0,0.0,0.0,0.0,0.0,0.0,0.0,0.0,0.0,0.0,0.0,0.0,0.0,0.0,0.0,0.0,0.0,0.0,0.0,0.0,0.0,0.0,0.0,0.0,0.0,0.0,0.0,0.0,0.0,0.0,0.0,0.0,0.0,0.0,0.0,0.0,0.0,0.0,0.0,0.0,0.0,0.0,0.0,0.0,0.0,0.0,0.0,0.0,0.0,0.0,0.0,0.0,0.0,0.0,0.0,0.0,0.0,0.0,0.0,0.0,0.0,0.0,0.0,0.0,0.0,0.0,0.0,0.0,0.0,0.0,0.0,1.0229,1.0461,0.0,1.2027,1.3101,1.427,1.6084,1.7399,1.8005,0.0,0.0,0.0,0.0,0.0,0.0,0.0,0.0,0.0,0.0,0.0,0.0,0.0,0.0,0.0,0.0,0.0,0.0,0.0,0.0,0.0,0.0,0.0,0.0,0.0,0.0,0.0,0.0,0.0,0.0,0.0,0.0,0.0,0.0,0.0,0.0,0.0,0.0,0.0,0.0,0.0,0.0,0.0,0.0,0.0,0.0,0.0,0.0,0.0,0.0,0.0,0.0,0.0,0.0,0.0,0.0,0.0,0.0,0.0,0.0,0.0,0.0,0.0,0.0,0.0,0.0,0.0,0.0,0.0,0.0,0.0,0.0,0.0,0.0,0.0,0.0,0.0,0.0,0.0,0.0,0.0,0.0,0.0,0.0,0.0,0.0,0.0,0.0,0.0,0.0,0.0,0.0,0.0,0.0,0.0,0.0,0.0,0.0,0.0,0.0,0.0,0.0,1.0412,1.0378,1.0365,0.0,1.1381,1.2226,1.2733,1.4599,1.6193,1.7236,0.0,0.0,0.0,0.0,0.0,0.0,0.0,0.0,0.0,0.0,0.0,0.0,0.0,0.0,0.0,0.0,0.0,0.0,0.0,0.0,0.0,0.0,0.0,0.0,0.0,0.0,0.0,0.0,0.0,0.0,0.0,0.0,0.0,0.0,0.0,0.0,0.0,0.0,0.0,0.0,0.0,0.0,0.0,0.0,0.0,0.0,0.0,0.0,0.0,0.0,0.0,0.0,0.0,0.0,0.0,0.0,0.0,0.0,0.0,0.0,0.0,0.0,0.0,0.0,0.0,0.0,0.0,0.0,0.0,0.0,0.0,0.0,0.0,0.0,0.0,0.0,0.0,0.0,0.0,0.0,0.0,0.0,0.0,0.0,0.0,0.0,0.0,0.0,0.0,0.0,0.0,0.0,0.0,0.0,0.0,0.0,0.0,0.0,0.0,0.0,0.0,0.0,1.0683,1.0588,1.0555,1.0704,1.0582,1.1135,1.2733,1.275,1.4073,0.0,0.0,0.0,0.0,0.0,0.0,0.0,0.0,0.0,0.0,0.0,0.0,0.0,0.0,0.0,0.0,0.0,0.0,0.0,0.0,0.0,0.0,0.0,0.0,0.0,0.0,0.0,0.0,0.0,0.0,0.0,0.0,0.0,0.0,0.0,0.0,0.0,0.0,0.0,0.0,0.0,0.0,0.0,0.0,0.0,0.0,0.0,0.0,0.0,0.0,0.0,0.0,0.0,0.0,0.0,0.0,0.0,0.0,0.0,0.0,0.0,0.0,0.0,0.0,0.0,0.0,0.0,0.0,0.0,0.0,0.0,0.0,0.0,0.0,0.0,0.0,0.0,0.0,0.0,0.0,0.0,0.0,0.0,0.0,0.0,0.0,0.0,0.0,0.0,0.0,0.0,0.0,0.0,0.0,0.0,0.0,0.0,0.0,0.0,0.0,0.0,0.0,0.0,1.0799,1.0751,1.067,1.0717,1.0677,1.0847,1.13,1.2241,1.3216,1.4233,0.0,0.0,0.0,0.0,0.0,0.0,0.0,0.0,0.0,0.0,0.0,0.0,0.0,0.0,0.0,0.0,0.0,0.0,0.0,0.0,0.0,0.0,0.0,0.0,0.0,0.0,0.0,0.0,0.0,0.0,0.0,0.0,0.0,0.0,0.0,0.0,0.0,0.0,0.0,0.0,0.0,0.0,0.0,0.0,0.0,0.0,0.0,0.0,0.0,0.0,0.0,0.0,0.0,0.0,0.0,0.0,0.0,0.0,0.0,0.0,0.0,0.0,0.0,0.0,0.0,0.0,0.0,0.0,0.0,0.0,0.0,0.0,0.0,0.0,0.0,0.0,0.0,0.0,0.0,0.0,0.0,0.0,0.0,0.0,0.0,0.0,0.0,0.0,0.0,0.0,0.0,0.0,0.0,0.0,0.0,0.0,0.0,0.0,0.0,0.0,0.0,0.0,1.1036,1.0955,1.0894,1.0894,1.0894,1.0894,1.0894,1.1615,1.2693,1.4113,0.0,0.0,0.0,0.0,0.0,0.0,0.0,0.0,0.0,0.0,0.0,0.0,0.0,0.0,0.0,0.0,0.0,0.0,0.0,0.0,0.0,0.0,0.0,0.0,0.0,0.0,0.0,0.0,0.0,0.0,0.0,0.0,0.0,0.0,0.0,0.0,0.0,0.0,0.0,0.0,0.0,0.0,0.0,0.0,0.0,0.0,0.0,0.0,0.0,0.0,0.0,0.0,0.0,0.0,0.0,0.0,0.0,0.0,0.0,0.0,0.0,0.0,0.0,0.0,0.0,0.0,0.0,0.0,0.0,0.0,0.0,0.0,0.0,0.0,0.0,0.0,0.0,0.0,0.0,0.0,0.0,0.0,0.0,0.0,0.0,0.0,0.0,0.0,0.0,0.0,0.0,0.0,0.0,0.0,0.0,0.0,0.0,0.0,0.0,0.0,0.0,0.0,1.1255,1.1241,1.1234,1.1234,1.1234,1.1234,1.1234,1.1043,1.2292,1.5395,0.0,0.0,0.0,0.0,0.0,0.0,0.0,0.0,0.0,0.0,0.0,0.0,0.0,0.0,0.0,0.0,0.0,0.0,0.0,0.0,0.0,0.0,0.0,0.0,0.0,0.0,0.0,0.0,0.0,0.0,0.0,0.0,0.0,0.0,0.0,0.0,0.0,0.0,0.0,0.0,0.0,0.0,0.0,0.0,0.0,0.0,0.0,0.0,0.0,0.0,0.0,0.0,0.0,0.0,0.0,0.0,0.0,0.0,0.0,0.0,1.1043,0.0,0.0,0.0,0.0,0.0,0.0,0.0,0.0,0.0,0.0,0.0,0.0,0.0,0.0,0.0,0.0,0.0,0.0,0.0,0.0,0.0,0.0,0.0,0.0,0.0,0.0,0.0,0.0,0.0,0.0,0.0,0.0,0.0,0.0,0.0,0.0,0.0,0.0,0.0,0.0,0.0,1.1341,1.124,1.1234,1.1234,1.1234,1.1234,1.1234,1.1131,1.1405,1.1955,1.3203,0.0,0.0,0.0,0.0,0.0,0.0,0.0,0.0,0.0,0.0,0.0,0.0,0.0,0.0,0.0,0.0,0.0,0.0,0.0,0.0,0.0,0.0,0.0,0.0,0.0,0.0,0.0,0.0,0.0,0.0,0.0,0.0,0.0,0.0,0.0,0.0,0.0,0.0,0.0,0.0,0.0,0.0,0.0,0.0,0.0,0.0,0.0,0.0,0.0,0.0,0.0,0.0,0.0,0.0,0.0,0.0,0.0,0.0,0.0,0.0,1.1234,0.0,0.0,0.0,0.0,0.0,0.0,0.0,0.0,0.0,0.0,0.0,0.0,0.0,0.0,0.0,0.0,0.0,0.0,0.0,0.0,0.0,0.0,0.0,0.0,0.0,0.0,0.0,0.0,0.0,0.0,0.0,0.0,0.0,0.0,0.0,0.0,0.0,0.0,0.0,0.0,1.1497,1.143,1.1382,1.1382,1.1382,1.1382,1.1382,1.1314,1.158,1.2322,1.3178,0.0,0.0,0.0,0.0,0.0,0.0,0.0,0.0,0.0,0.0,0.0,0.0,0.0,0.0,0.0,0.0,0.0,0.0,0.0,0.0,0.0,0.0,0.0,0.0,0.0,0.0,0.0,0.0,0.0,0.0,0.0,0.0,0.0,0.0,0.0,0.0,0.0,0.0,0.0,0.0,0.0,0.0,0.0,0.0,0.0,0.0,0.0,0.0,0.0,0.0,0.0,0.0,0.0,1.1619,1.1619,1.1619,1.1619,1.1619,1.1606,1.1355,1.124,1.124,1.124,0.0,0.0,0.0,0.0,0.0,0.0,0.0,0.0,0.0,0.0,0.0,0.0,0.0,0.0,0.0,0.0,0.0,0.0,0.0,0.0,0.0,0.0,0.0,0.0,1.1219,1.124,1.124,0.0,0.0,0.0,0.0,0.0,0.0,0.0,0.0,0.0,0.0,0.0,1.1619,1.1619,1.1619,1.1619,1.1619,1.1619,1.1619,1.1504,1.2044,1.3472,1.3465,1.3908,0.0,0.0,0.0,0.0,0.0,0.0,0.0,0.0,0.0,0.0,0.0,0.0,0.0,0.0,0.0,0.0,0.0,0.0,0.0,0.0,0.0,0.0,0.0,0.0,0.0,0.0,0.0,0.0,0.0,0.0,0.0,0.0,1.0799,1.082,0.0,0.0,0.0,0.0,0.0,0.0,0.0,0.0,0.0,0.0,0.0,0.0,0.0,1.1599,1.1619,1.1619,1.1619,1.1619,1.1619,1.1619,1.1619,1.1619,1.1619,1.1619,1.1579,0.0,1.1558,1.1558,0.0,0.0,0.0,0.0,0.0,0.0,0.0,0.0,0.0,0.0,0.0,0.0,0.0,0.0,0.0,0.0,0.0,0.0,0.0,0.0,0.0,0.0,1.1362,1.1362,1.1463,1.1558,0.0,1.1457,1.1362,1.1362,1.147,0.0,0.0,0.0,0.0,0.0,0.0,0.0,1.1619,1.1619,1.1619,1.1619,1.1619,1.1619,1.1619,1.1599,1.1603,1.1748,1.172,1.1776,1.1819,1.3133,0.0,0.0,0.0,0.0,0.0,0.0,0.0,0.0,0.0,0.0,0.0,0.0,0.0,0.0,0.0,0.0,0.0,0.0,0.0,0.0,0.0,0.0,0.0,0.0,0.0,0.0,0.0,0.0,0.0,1.0934,1.107,1.107,1.1199,1.1294,0.0,0.0,0.0,0.0,0.0,0.0,0.0,0.0,0.0,1.1619,1.1619,1.1619,1.1619,1.1619,1.1619,1.1619,1.1619,1.1619,1.1619,1.1619,1.1619,1.1619,1.1619,1.1619,1.1619,1.1619,1.1619,1.1613,0.0,0.0,0.0,0.0,1.1416,1.1416,1.1416,1.1416,1.1416,1.1416,0.0,0.0,0.0,0.0,0.0,0.0,0.0,1.1416,0.0,0.0,1.1518,1.1518,1.1572,1.1619,1.1619,1.1565,1.1518,0.0,1.1572,1.1619,1.1619,0.0,0.0,0.0,0.0,1.1619,1.1619,1.1619,1.1619,1.1619,1.1619,1.1619,1.1619,1.1619,1.1592,1.1525,1.1518,1.145,1.1301,1.1982,1.2209,0.0,0.0,0.0,0.0,0.0,0.0,0.0,0.0,0.0,0.0,0.0,0.0,0.0,0.0,0.0,0.0,0.0,0.0,0.0,0.0,0.0,0.0,0.0,0.0,0.0,0.0,0.0,0.0,1.1131,1.1219,1.1219,1.1355,1.145,0.0,0.0,0.0,0.0,0.0,0.0,1.1619,1.1619,1.1619,1.1619,1.1619,1.1619,1.1619,1.1653,1.1674,1.1674,1.1714,1.1735,1.1735,1.1735,1.1735,1.1728,1.1687,1.1674,1.1674,1.1633,1.1619,1.1619,1.1619,1.1619,1.1619,1.1619,1.1619,1.1619,1.1619,1.1619,1.1619,1.1619,1.1619,1.1619,1.1619,0.0,0.0,0.0,0.0,1.1619,1.1619,1.1619,1.1619,1.1619,1.1619,1.1619,1.1619,1.1619,1.1619,0.0,1.1619,1.1619,1.1619,0.0,0.0,0.0,0.0,1.1619,1.1619,1.1619,1.1619,1.1619,1.1619,1.1619,1.1619,1.1619,1.1619,1.1619,1.1619,1.1565,1.1457,1.1409,1.1335,1.1226,0.0,0.0,0.0,0.0,0.0,0.0,0.0,0.0,0.0,0.0,0.0,0.0,0.0,0.0,0.0,0.0,0.0,0.0,0.0,0.0,0.0,0.0,0.0,0.0,0.0,0.0,0.0,0.0,0.0,1.1382,1.1511,0.0,0.0,0.0,0.0,1.1619,1.1619,1.1619,1.1619,1.1619,1.1619,1.1619,1.1619,1.1619,1.1619,1.1755,1.1823,1.1823,1.1972,1.204,1.204,1.204,1.204,1.2033,1.1884,1.1823,1.1809,1.1674,1.1619,1.1619,1.1619,1.1619,1.1619,1.1619,1.1619,1.1619,1.1619,1.1619,1.1619,1.1619,1.1619,1.1619,1.1619,1.1619,0.0,0.0,1.1619,1.1619,1.1619,1.1619,1.1619,1.1619,1.1619,1.1619,1.1619,1.1619,1.1619,0.0,1.1619,1.1619,1.1619,0.0,1.1619,1.1619,1.1619,1.1619,1.1619,1.1619,1.1619,1.1619,1.1619,1.1619,1.1619,1.1619,1.1619,1.1619,1.1619,1.1613,1.1606,1.147,1.1389,1.1382,1.1365,0.0,0.0,0.0,0.0,0.0,0.0,0.0,0.0,0.0,0.0,0.0,0.0,0.0,0.0,0.0,0.0,0.0,0.0,0.0,0.0,0.0,0.0,0.0,0.0,0.0,0.0,0.0,0.0,1.1538,1.1586,0.0,1.1619,1.1619,1.1619,1.1619,1.1619,1.1619,1.1619,1.1708,1.1755,1.1755,1.185,1.1904,1.1904,1.1952,1.1979,1.1979,1.2033,1.2135,1.2135,1.2135,1.2135,1.2135,1.2006,1.1979,1.1972,1.1925,1.1789,1.1619,1.1619,1.1619,1.1619,1.1619,1.1619,1.1619,1.1619,1.1619,1.1619,1.1619,1.1619,1.1619,1.1619,1.1619,1.1619,1.1619,1.1619,1.1619,1.1619,1.1619,1.1619,1.1619,1.1619,1.1619,1.1619,1.1619,1.1619,1.1619,1.1619,1.1619,1.1619,1.1619,1.1619,1.1619,1.1619,1.1619,1.1619,1.1619,1.1619,1.1619,1.1619,1.1619,1.1619,1.1619,1.1619,1.1619,1.1619,1.1619,1.1619,1.1565,1.1538,1.1538,1.1389,1.1629,0.0,0.0,0.0,0.0,0.0,0.0,0.0,0.0,0.0,0.0,0.0,0.0,0.0,0.0,0.0,0.0,0.0,0.0,0.0,0.0,0.0,0.0,0.0,0.0,0.0,0.0,1.1619,1.1619,1.1619,1.1619,1.1619,1.1619,1.1619,1.1619,1.166,1.1687,1.1687,1.183,1.1911,1.1911,1.2006,1.2088,1.2142,1.2189,1.2237,1.2291,1.2338,1.2366,1.2366,1.2366,1.2338,1.2284,1.223,1.2182,1.2135,1.2081,1.1945,1.1769,1.1769,1.1735,1.1687,1.1687,1.166,1.1619,1.1619,1.1619,1.1619,1.1619,1.1619,1.1619,1.1619,1.1619,1.1619,1.1619,1.1619,1.1619,1.1619,1.1619,1.1619,1.1619,1.1619,1.1619,1.1619,1.1619,1.1619,1.1619,1.1619,1.1619,1.1619,1.1619,1.1619,1.1619,1.1619,1.1619,1.1619,1.1619,1.1619,1.1619,1.1619,1.1619,1.1619,1.1619,1.1619,1.1619,1.1619,1.1619,1.1619,1.1619,1.1619,1.1619,1.147,1.1389,1.1389,0.0,0.0,0.0,0.0,0.0,0.0,0.0,0.0,0.0,0.0,0.0,0.0,0.0,0.0,0.0,0.0,0.0,0.0,0.0,0.0,0.0,0.0,0.0,1.1619,1.1619,1.1619,1.1619,1.1619,1.1619,1.1619,1.1619,1.1626,1.1626,1.1755,1.1837,1.1837,1.1986,1.2074,1.2074,1.2088,1.2162,1.2311,1.2447,1.2589,1.2739,1.2888,1.2963,1.2963,1.2963,1.2881,1.2725,1.2583,1.244,1.2298,1.2149,1.2081,1.2155,1.2067,1.1972,1.1837,1.1837,1.1748,1.1633,1.1633,1.1633,1.1626,1.1626,1.1619,1.1619,1.1619,1.1619,1.1619,1.1619,1.1619,1.1619,1.1619,1.1619,1.1619,1.1619,1.1619,1.1619,1.1619,1.1619,1.1619,1.1619,1.1619,1.1619,1.1619,1.1619,1.1619,1.1619,1.1619,0.0,1.1619,1.1619,1.1619,1.1619,1.1619,1.1619,1.1619,1.1619,1.1619,1.1619,1.1619,1.1619,1.1619,1.1619,1.1619,1.1619,1.147,1.1396,1.1396,0.0,0.0,0.0,0.0,0.0,0.0,0.0,0.0,0.0,0.0,0.0,0.0,0.0,0.0,0.0,0.0,0.0,0.0,0.0,0.0,0.0,1.1619,1.1619,1.1619,1.1619,1.1619,1.1619,1.1619,1.1619,1.1619,1.1714,1.1775,1.1775,1.1911,1.1999,1.1999,1.2244,1.2379,1.2379,1.2596,1.2732,1.2773,1.2813,1.2854,1.2901,1.2942,1.2963,1.2963,1.2963,1.2935,1.2895,1.2854,1.2813,1.2766,1.261,1.2549,1.2515,1.2189,1.2033,1.1999,1.1999,1.1972,1.1938,1.1938,1.1864,1.1775,1.1775,1.1701,1.1619,1.1619,1.1619,1.1619,1.1619,1.1619,1.1619,1.1619,1.1619,1.1619,1.1619,1.1619,1.1619,1.1619,1.1619,1.1619,1.1619,1.1619,1.1619,1.1619,1.1619,1.1619,1.1619,1.1619,0.0,1.1619,1.1619,1.1619,1.1619,1.1619,1.1619,1.1619,1.1619,1.1619,1.1619,1.1619,1.1619,1.1619,1.1619,1.1619,1.1619,1.1579,1.1558,0.0,0.0,0.0,0.0,0.0,0.0,0.0,0.0,0.0,0.0,0.0,0.0,0.0,0.0,0.0,0.0,0.0,0.0,0.0,0.0,0.0,0.0,1.1619,1.1619,1.1619,1.1619,1.1619,1.1619,1.1674,1.1708,1.1708,1.1843,1.1925,1.1925,1.2121,1.2244,1.2244,1.2528,1.2691,1.2691,1.2868,1.307,1.3051,1.3051,1.3085,1.3146,1.3146,1.3146,1.3146,1.3146,1.3112,1.3051,1.3051,1.3017,1.2956,1.2861,1.2827,0.0,0.0,0.0,0.0,0.0,1.2135,1.2135,1.2135,1.2006,1.1925,1.1925,1.187,1.1803,1.1803,1.1803,1.1803,1.1803,1.1803,1.1803,1.1803,1.1803,1.1803,1.1803,1.1803,1.1803,1.1803,1.1803,1.1803,1.1803,1.1803,0.0,1.1803,1.1701,1.1619,1.1619,1.1619,1.1619,1.1619,1.1619,1.1619,1.1619,1.1619,1.1619,1.1619,1.1619,0.0,0.0,0.0,1.1619,1.1619,1.1619,0.0,0.0,0.0,1.1619,1.1619,1.1531,0.0,0.0,1.1097,1.0989,0.0,0.0,0.0,0.0,0.0,0.0,0.0,0.0,0.0,0.0,0.0,0.0,0.0,0.0,0.0,0.0,1.1619,1.1619,1.1619,1.1633,1.1647,1.1647,1.1755,1.1837,1.1857,1.1999,1.2094,1.2108,1.2372,1.2535,1.2556,0.0,0.0,0.0,0.0,1.3071,1.32,1.32,1.3268,1.3403,1.3403,1.3403,1.3403,1.3403,1.3329,1.32,1.32,1.3125,1.301,1.299,1.2976,1.2935,1.2644,1.244,1.2298,1.2162,1.219,1.219,1.219,0.0,0.0,1.2088,1.2074,1.2135,1.2135,1.2135,1.2135,1.2135,1.2135,1.2135,1.2135,1.2135,1.2135,1.2135,1.2135,1.2135,1.2135,1.2135,1.2135,1.2135,1.2135,1.2135,1.2135,1.183,1.1647,1.1647,1.1633,1.1619,1.1619,1.1619,1.1619,1.1619,0.0,0.0,1.1619,1.1619,1.1619,1.1619,1.1619,1.1619,1.1619,1.1619,1.1619,1.1619,1.1619,1.1619,1.1619,1.1619,1.1619,1.1613,1.1321,1.1192,0.0,0.0,0.0,0.0,0.0,0.0,0.0,0.0,0.0,0.0,0.0,0.0,0.0,0.0,0.0,1.1619,1.1619,1.1619,1.1619,1.1714,1.1789,1.1789,1.1816,1.1877,1.2006,1.2155,1.2291,1.2406,1.2583,1.2739,1.2868,1.3037,1.3132,1.3132,1.3254,1.3329,1.3356,1.3356,1.337,1.3403,0.0,0.0,1.3403,1.3403,1.3383,1.3356,1.3356,1.3342,1.3308,1.3186,1.3064,1.2942,1.2759,1.2589,1.2461,1.2427,1.242,1.242,1.242,1.2338,1.2244,1.2244,1.2162,1.2135,1.2135,1.2135,0.0,1.2135,1.2135,1.2135,1.2135,1.2135,1.2135,1.2135,1.2135,1.2135,1.2135,1.2135,1.2135,1.2135,1.2135,1.2135,1.2135,1.1911,1.1789,1.1789,1.1694,1.1619,1.1619,1.1619,1.1619,1.1619,1.1619,1.1619,1.1619,1.1619,1.1619,1.1619,1.1619,1.1619,1.1619,1.1619,1.1619,1.1619,1.1619,1.1619,1.1619,1.1619,1.1619,1.1613,1.143,1.1348,0.0,0.0,0.0,0.0,0.0,0.0,0.0,0.0,0.0,0.0,0.0,1.1619,1.1619,0.0,1.1619,1.1619,1.1619,1.1647,1.1714,1.1789,1.183,1.183,1.1965,1.2088,1.2169,1.2379,1.2542,1.261,1.2827,1.2983,1.3064,1.3207,1.3288,1.3288,1.3363,1.3403,1.3403,1.3403,1.3403,1.3403,1.3403,1.3403,1.3403,1.3403,1.3403,1.3403,1.3403,1.3403,1.3397,1.3315,1.32,1.3057,1.2983,1.2861,1.2725,1.2644,1.2617,1.2603,1.2528,1.2454,1.2393,1.2393,1.2345,1.2284,1.2284,1.2284,1.2284,1.2284,1.2284,1.2284,1.2284,1.2284,1.2284,1.2284,1.2284,1.2284,1.2284,1.2284,1.2284,1.2284,1.2284,1.2284,1.2284,1.2162,1.2033,1.1959,1.1884,1.1843,1.1843,1.1775,1.1728,1.1728,1.166,1.1619,1.1619,1.1619,1.1619,1.1619,1.1619,1.1619,1.1619,1.1619,1.1619,1.1619,1.1619,1.1619,1.1619,1.1619,1.1619,1.1619,1.1538,1.1504,0.0,0.0,0.0,0.0,0.0,0.0,0.0,0.0,1.1619,1.1619,1.1619,1.1619,1.1619,1.1619,1.1619,1.1619,1.164,1.1701,1.1816,1.1884,1.1918,1.1918,1.2135,1.2311,1.2372,1.2589,1.2752,1.2813,1.3037,1.3186,1.3214,1.3336,1.3403,1.3403,1.3403,1.3403,1.3403,1.3403,1.3403,1.3403,1.3403,1.3403,1.3403,1.3403,1.3403,1.3403,1.3403,1.3403,1.3403,1.3403,1.3329,1.3214,1.3214,1.3146,1.3024,1.284,1.2773,1.2752,1.2596,1.2549,1.2542,1.2515,1.2501,1.2501,1.2501,1.2501,1.2501,1.2501,1.2501,1.2501,1.2501,1.2501,1.2501,1.2501,1.2501,1.2501,1.2501,1.2501,1.2501,1.2501,1.2501,1.2501,1.2501,1.2406,1.2277,1.2128,1.2155,1.2135,1.2135,1.1952,1.1864,1.1837,1.1728,1.1647,1.1619,1.1619,1.1619,1.1619,1.1619,1.1619,1.1619,1.1619,1.1619,1.1619,1.1619,1.1619,1.1619,1.1619,1.1619,1.1619,1.1619,1.1619,1.1613,1.1619,1.1619,1.1619,1.1619,1.1619,0.0,0.0,1.1619,1.1619,1.1619,1.1619,1.1619,1.1619,1.1619,1.1619,1.1728,1.1816,1.183,1.2067,1.2237,1.2237,1.2271,1.2393,1.2657,1.2712,1.284,1.3105,1.3152,1.3234,1.337,1.339,1.3403,1.3403,1.3403,1.3403,1.3403,1.3403,1.3403,1.3403,1.3403,1.3403,1.3403,1.3403,1.3403,1.3403,1.3403,1.3403,1.3403,1.3403,1.339,1.3376,1.3376,1.3363,1.3315,1.3037,1.2935,1.2915,1.2759,1.2705,1.2684,1.2549,1.2501,1.2501,1.2501,1.2501,1.2501,1.2501,1.2501,1.2501,1.2501,1.2501,1.2501,1.2501,1.2501,1.2501,1.2501,1.2501,1.2501,1.2501,1.2501,1.2501,1.2501,1.2488,1.2427,1.2284,1.2149,1.2135,1.2135,1.2047,1.1986,1.1843,1.1816,1.1755,1.1633,1.1619,1.1619,1.1619,1.1619,1.1619,1.1619,1.1619,1.1619,1.1619,1.1619,1.1619,1.1619,1.1619,1.1619,1.1619,1.1619,1.1619,1.1619,1.1619,1.1619,0.0,1.1619,1.1619,1.1619,1.1619,1.1619,1.1619,1.1619,1.1619,1.1619,1.1619,1.1647,0.0,1.1789,1.1891,1.2074,1.221,1.2318,1.2406,1.2494,1.2596,1.2718,1.2813,1.2949,1.3159,1.3254,1.3336,1.3397,1.3403,1.3403,1.3403,1.3485,1.3532,1.3532,1.3614,1.3654,1.3654,1.3654,1.3654,1.3654,1.3573,1.3485,1.3403,1.3403,1.3403,1.3403,1.3403,1.3403,1.3403,1.3403,1.3403,1.3376,1.3159,1.3085,1.3064,1.2915,1.2868,1.284,1.2684,1.2637,1.2617,1.2528,1.2501,1.2501,1.2501,1.2501,1.2501,1.2501,1.2501,1.2501,1.2501,1.2501,1.2501,1.2501,1.2501,1.2501,1.2501,1.2501,1.2501,1.2501,1.2501,1.2481,1.242,1.2359,1.2318,1.2318,1.2244,1.2101,1.1857,1.183,1.1775,1.1633,1.1619,1.1619,1.1619,1.1619,1.1619,1.1619,1.1619,1.1619,1.1619,1.1619,1.1619,1.1619,1.1619,1.1619,1.1619,1.1619,1.1619,1.1619,1.1619,0.0,1.1619,1.1619,1.1619,1.1619,1.1619,1.1619,1.1619,1.1619,1.1633,1.1674,1.1681,1.1728,1.187,1.1932,1.2033,1.2257,1.2325,1.24,1.2549,1.2664,1.2759,1.284,1.2956,1.3078,1.3227,1.3336,1.3403,1.3403,1.3403,1.3417,1.3464,1.3573,1.3648,1.3688,1.379,1.3838,1.3838,1.3838,1.3838,1.3838,1.3736,1.3607,1.3464,1.3464,1.3437,1.3403,1.3403,1.3403,1.3403,1.3403,1.3403,1.339,1.3275,1.3234,1.3214,1.3071,1.3097,1.2996,1.284,1.2793,1.2766,1.261,1.2562,1.2556,1.2515,1.2501,1.2501,1.2501,1.2501,1.2501,1.2501,1.2501,1.2501,1.2501,1.2501,1.2501,1.2501,1.2501,1.2501,1.2501,1.2501,1.2501,1.2501,1.2501,1.2501,1.2501,1.2379,1.2203,1.1979,1.1884,1.1789,1.1687,1.164,1.1619,1.1619,1.1619,1.1619,1.1619,1.1619,1.1619,1.1619,1.1619,1.1619,1.1619,1.1619,1.1619,1.1619,1.1619,1.1619,1.1619,1.1619,1.1619,1.1619,1.1619,1.1619,1.1619,1.1619,1.1619,1.1619,1.1619,1.166,1.1796,1.1823,1.1877,1.2033,1.2182,1.2277,1.2291,1.2406,1.2556,1.2705,1.2725,1.284,0.0,1.3166,1.3227,1.3383,1.3397,1.3403,1.3403,1.3403,1.3471,1.3614,1.3627,1.3695,1.3745,1.3838,1.3838,1.3838,1.3838,1.3838,1.3838,1.3838,1.3756,1.362,1.362,1.3539,1.3403,1.3403,1.3403,1.3403,1.3403,1.3403,1.3403,1.3397,1.3397,1.337,1.322,1.3166,1.3146,1.3003,1.2956,1.2929,1.2766,1.2725,1.2691,1.2542,1.2501,1.2501,1.2501,1.2501,1.2501,1.2501,1.2501,1.2501,1.2501,1.2501,1.2501,1.2501,1.2501,1.2501,1.2501,1.2501,1.2501,1.2501,1.2501,1.2501,1.2501,1.2379,1.2284,1.2277,1.2006,1.183,1.1823,1.1701,1.1619,1.1619,1.1619,1.1619,1.1619,1.1619,1.1619,1.1619,1.1619,1.1619,1.1619,1.1619,1.1619,1.1619,1.1619,1.1619,1.1619,1.1619,1.1619,1.1619,1.1619,1.1619,1.1619,1.1619,1.1647,1.1742,1.1762,1.1809,1.1959,1.1986,1.2033,1.2189,1.2257,1.2325,1.242,1.2562,1.2671,1.2725,1.2901,0.0,0.0,0.0,0.0,1.339,1.3403,1.3403,1.3403,1.3498,1.3573,1.3627,1.3817,1.3946,1.3994,1.4095,1.4143,1.4143,1.4143,1.4095,1.3994,1.3994,1.3912,1.3763,1.3668,1.36,1.3546,1.3444,1.3403,1.3403,1.3403,1.3403,1.3403,1.3403,1.3403,1.3397,1.3342,1.3322,1.3302,1.3152,1.3105,1.3071,1.2929,1.2813,1.2718,1.2671,1.2583,1.2501,1.2501,1.2501,1.2501,1.2501,1.2501,1.2501,1.2501,1.2501,1.2501,1.2501,1.2501,1.2501,1.2501,1.2501,1.2501,1.2501,1.2501,1.2501,1.2501,1.2461,1.2393,1.2298,1.2196,1.2054,1.185,1.1789,1.1721,1.1626,1.1619,1.1619,1.1619,1.1619,1.1619,1.1619,1.1619,1.1619,1.1619,1.1619,1.1619,1.1619,1.1619,1.1619,1.1619,1.1619,1.1619,1.1619,1.1619,1.1619,1.1619,1.166,1.1721,1.1809,1.1877,1.1959,1.2115,1.2142,1.2189,1.2338,1.2366,1.24,1.2488,1.263,1.2752,1.2807,1.3024,1.3193,0.0,0.0,0.0,1.3397,1.3403,1.3424,1.3478,1.3573,1.3675,1.3783,1.3973,1.4095,1.415,1.4251,1.4299,1.4299,1.4299,1.4251,1.415,1.415,1.4068,1.3919,1.3824,1.3756,1.3695,1.3546,1.3485,1.3478,1.3424,1.3403,1.3403,1.3403,1.3403,1.3403,1.3403,1.3403,1.3383,1.3288,1.3254,1.3227,1.3078,1.2969,1.2874,1.2827,1.2705,1.2583,1.2583,1.2542,1.2501,1.2501,1.2501,1.2501,1.2501,1.2501,1.2501,1.2501,1.2501,1.2501,1.2501,1.2501,1.2501,1.2501,1.2501,1.2501,1.2501,1.2501,1.2467,1.2372,1.2318,1.2189,1.1938,1.1864,1.1769,1.1626,1.1619,1.1619,1.1619,1.1619,1.1619,1.1619,1.1619,1.1619,1.1619,1.1619,1.1619,1.1619,1.1619,1.1619,1.1619,1.1619,1.1619,1.1619,1.1619,1.1619,1.1626,1.1735,1.1837,1.185,1.1972,1.2121,1.2271,1.2298,1.2345,1.2481,1.2501,1.2501,1.2501,1.2637,1.2793,0.0,0.0,0.0,0.0,0.0,0.0,1.3403,0.0,1.3464,1.362,1.3634,1.377,1.4061,1.4082,1.415,1.4299,1.4299,1.4299,1.4299,1.4299,1.4299,1.4299,1.4299,1.4224,1.4082,1.4075,1.3987,1.3838,1.3688,1.3627,1.3614,1.3458,1.3403,1.3403,1.3403,1.3403,1.3403,1.3403,1.3403,1.3403,1.3403,1.3403,1.3376,1.3227,1.318,1.3146,1.301,1.2861,1.2739,1.2732,1.2623,1.2515,1.2501,1.2501,1.2501,1.2501,1.2501,1.2501,1.2501,1.2501,1.2501,1.2501,1.2501,1.2501,1.2501,1.2501,1.2501,1.2501,1.2501,1.2501,1.2501,1.2379,1.2237,1.2088,1.1932,1.1782,1.164,1.1619,1.1619,1.1619,1.1619,1.1619,1.1619,1.1619,1.1619,1.1619,1.1619,1.1619,1.1619,1.1619,1.1619,1.1619,1.1619,1.1619,1.1619,1.1619,1.1647,1.1755,1.1803,1.1898,1.2128,1.2203,1.2277,1.242,1.2447,1.2461,1.2494,1.2501,0.0,1.2501,1.2732,0.0,1.2956,0.0,1.3356,1.3397,1.3403,0.0,0.0,1.3403,1.3464,1.362,1.3729,1.3871,1.4068,1.4183,1.4265,1.4299,1.4299,1.4299,1.4299,1.4299,1.4299,1.4299,1.4299,1.4278,1.4238,1.4122,1.4048,1.3994,1.3736,1.3627,1.3614,1.3458,1.3403,1.3403,1.3403,1.3403,1.3403,1.3403,1.3403,1.3403,1.3403,1.3403,1.3397,1.3356,1.3261,1.3166,1.3125,1.3017,1.2874,1.2759,1.2705,1.2644,1.2528,1.2501,1.2501,1.2501,1.2501,1.2501,1.2501,1.2501,1.2501,1.2501,1.2501,1.2501,1.2501,1.2501,1.2501,1.2501,1.2501,1.2501,1.2501,1.2467,1.2386,1.2244,1.2094,1.1938,1.1789,1.1681,1.1619,1.1619,1.1619,1.1619,1.1619,1.1619,1.1619,1.1619,1.1619,1.1619,1.1619,1.1619,1.1619,1.1619,1.1619,1.1619,1.1619,1.1667,1.1735,1.1816,1.1932,1.2081,1.2257,1.2338,1.2406,1.2488,1.2501,1.2501,0.0,0.0,0.0,1.2501,1.2766,1.2963,0.0,1.322,0.0,1.3403,1.3403,1.3431,0.0,1.3498,1.3566,1.3715,1.3865,1.4014,1.4163,1.4251,1.4299,1.4299,1.4299,1.4299,1.4299,1.4299,1.4299,1.4299,1.4299,1.4299,1.4292,0.0,1.417,1.4156,1.3919,1.3783,1.3709,1.3559,1.3458,1.3403,1.3403,1.3403,1.3403,1.3403,1.3403,1.3403,1.3403,1.3403,1.3403,1.3403,1.3342,1.3275,1.3275,1.3166,1.303,1.2949,1.2827,1.2712,1.2623,1.2549,1.2501,1.2501,1.2501,1.2501,1.2501,1.2501,1.2501,1.2501,1.2501,1.2501,1.2501,1.2501,1.2501,1.2501,1.2501,1.2501,1.2501,1.2501,1.244,1.2305,1.2149,1.1993,1.1843,1.1694,1.1619,1.1619,1.1619,1.1619,1.1619,1.1619,1.1619,1.1619,1.1619,1.1619,1.1619,1.1619,1.1619,1.1619,1.1619,1.1626,1.164,1.1742,1.1843,1.1884,1.2094,1.2298,1.2318,1.2413,1.2501,1.2501,1.2501,1.2501,1.2501,0.0,1.2501,1.2501,1.2766,1.2963,1.2963,1.322,1.3403,1.3403,1.3417,1.3485,1.362,1.3668,1.3743,1.3865,1.4,1.4143,1.4292,1.4299,1.4299,1.4299,1.4299,1.4299,1.4299,1.4299,1.4299,1.4299,1.4299,1.4299,1.4299,1.4299,1.4299,1.4285,1.4136,1.398,1.3824,1.3682,1.3539,1.3403,1.3403,1.3403,1.3403,1.3403,1.3403,1.3403,1.3403,1.3403,1.3403,1.3403,1.3403,1.3403,1.3403,1.3308,1.32,1.318,1.2983,1.2779,1.2739,1.263,1.2528,1.2508,1.2501,1.2501,1.2501,1.2501,1.2501,1.2501,1.2501,1.2501,1.2501,1.2501,1.2501,1.2501,1.2501,1.2501,1.2501,1.2501,1.2454,1.2332,1.2162,1.2006,1.187,1.1708,1.1619,1.1619,1.1619,1.1619,1.1619,1.1619,1.1619,1.1619,1.1619,1.1619,1.1619,1.1619,1.1619,1.1619,1.1619,1.1647,1.1769,1.1816,1.1898,1.2155,1.225,0.0,0.0,1.2481,1.2501,1.2501,1.2501,1.2501,1.2501,1.2501,1.2501,1.2501,1.2766,1.2963,0.0,1.322,1.3403,1.3403,1.3512,0.0,0.0,1.3858,1.4007,1.4034,1.4055,1.4143,1.4292,1.4299,1.4299,1.4299,1.4299,1.4299,1.4299,1.4299,1.4299,1.4299,1.4299,1.4299,1.4299,1.4299,0.0,1.4285,1.4136,1.398,1.3824,1.3682,1.3539,1.3403,1.3403,1.3403,1.3403,1.3403,1.3403,1.3403,1.3403,1.3403,1.3403,1.3403,1.3403,1.3403,1.3403,1.3383,1.3336,1.3207,1.3132,1.3037,1.2786,1.2712,1.2657,1.2528,1.2501,1.2501,1.2501,1.2501,1.2501,1.2501,1.2501,1.2501,1.2501,1.2501,1.2501,1.2501,1.2501,1.2501,1.2501,1.2501,1.2488,1.2467,1.2216,1.2128,1.202,1.1769,1.1619,1.1619,1.1619,1.1619,1.1619,1.1619,1.1619,1.1619,1.1619,1.1619,1.1619,1.1619,1.1619,1.1619,1.1674,1.1748,1.1816,1.1952,1.2108,1.2257,0.0,0.0,0.0,1.2501,1.2501,1.2501,1.2501,0.0,1.261,1.2556,1.2528,1.261,1.282,0.0,1.2963,1.322,1.3403,0.0,1.3539,1.3661,1.3736,1.3946,1.4075,1.4075,1.415,1.4224,1.4299,1.4299,1.4299,1.4299,1.4299,1.4299,1.4299,1.4299,1.4299,1.4299,1.4299,1.4299,1.4299,1.4299,1.4299,1.4292,1.4224,1.4055,1.3745,1.377,1.36,1.3403,1.3403,1.3403,1.3403,1.3403,1.3403,1.3403,1.3403,1.3403,1.3403,1.3403,1.3403,1.3403,1.3403,1.3403,1.3383,1.3308,1.3234,1.3139,1.2996,1.284,1.2684,1.2535,1.2501,1.2501,1.2501,1.2501,1.2501,1.2501,1.2501,1.2501,1.2501,1.2501,1.2501,1.2501,1.2501,1.2501,1.2501,1.2501,1.2501,1.2501,1.223,1.2135,1.2135,1.1782,1.1619,1.1619,1.1619,1.1619,1.1619,1.1619,1.1619,1.1619,1.1619,1.1619,1.1619,1.1619,1.1619,1.1653,1.1748,1.1843,1.1911,1.2115,1.2298,1.2332,1.242,0.0,1.2501,1.2501,1.2501,1.2501,1.2528,1.2589,0.0,1.2657,1.2644,1.2759,1.2908,1.301,0.0,1.3241,0.0,1.3403,1.3566,0.0,1.3831,1.4014,1.4122,1.4122,1.4238,1.4299,1.4299,1.4299,1.4299,1.4299,1.4299,1.4299,1.4299,1.4299,1.4299,1.4299,1.4299,1.4299,1.4299,1.4299,1.4299,1.4299,1.4299,1.4116,1.3838,1.3838,1.3661,1.3403,1.3403,1.3403,1.3403,1.3403,1.3403,1.3403,1.3403,1.3403,1.3403,1.3403,1.3403,1.3403,1.3403,1.3403,1.3403,1.3403,1.3308,1.3207,1.3146,1.2922,1.2684,1.2535,1.2501,1.2501,1.2501,1.2501,1.2501,1.2501,1.2501,1.2501,1.2501,1.2501,1.2501,1.2501,1.2501,1.2501,1.2501,1.2501,1.2501,1.2501,1.223,1.2135,1.2135,1.1782,1.1619,1.1619,1.1619,1.1619,1.1619,1.1619,1.1619,1.1619,1.1619,1.1619,1.1619,1.1619,1.1619,1.1775,1.1823,1.1898,1.2176,1.2271,1.2325,1.2454,0.0,1.2501,1.2501,1.2501,1.2501,1.2501,1.2617,1.2712,1.2725,1.2834,1.2922,1.2935,1.3064,1.3152,1.3152,0.0,0.0,1.3403,1.3654,1.3824,1.3838,1.4116,1.4278,1.4278,1.4292,1.4299,1.4299,1.4299,1.4299,1.4299,1.4299,1.4299,1.4299,1.4299,1.4299,1.4299,1.4299,1.4299,1.4299,1.4299,1.4299,0.0,1.4299,1.4116,1.3838,1.3838,1.3661,1.3403,1.3403,1.3403,1.3403,1.3403,1.3403,1.3403,1.3403,1.3403,1.3403,1.3403,1.3403,1.3403,1.3403,1.3403,1.3403,1.3403,1.339,1.3315,1.3044,1.2854,1.2684,1.2535,1.2501,1.2501,1.2501,1.2501,1.2501,1.2501,1.2501,1.2501,1.2501,1.2501,1.2501,1.2501,1.2501,1.2501,1.2501,1.2501,1.2501,1.2501,1.223,1.2135,1.2135,1.1782,1.1619,1.1619,1.1619,1.1619,1.1619,1.1619,1.1619,1.1619,1.1619,1.1619,1.1619,1.1619,1.1619,1.1816,1.1965,1.2135,1.2257,1.2352,1.2433,1.2488,0.0,1.2501,1.2501,1.2501,1.2528,1.2623,1.2691,1.2786,1.2969,1.2976,0.0,1.3078,1.3139,1.3173,1.3173,1.3308,0.0,0.0,0.0,1.3919,1.4102,1.4231,1.4299,1.4299,1.4299,1.4299,1.4299,1.4299,1.4299,1.4299,1.4299,1.4299,1.4299,1.4299,1.4299,1.4299,1.4299,1.4299,1.4299,1.4299,1.4299,0.0,1.4197,1.4034,1.3831,1.3749,1.3587,1.3403,1.3403,1.3403,1.3403,1.3403,1.3403,1.3403,1.3403,1.3403,1.3403,1.3403,1.3403,1.3403,1.3403,1.3403,1.3403,1.3403,1.3403,1.3349,1.3139,1.2976,1.2827,1.2671,1.2569,1.2501,1.2501,1.2501,1.2501,1.2501,1.2501,1.2501,1.2501,1.2501,1.2501,1.2501,1.2501,1.2501,1.2501,1.2501,1.2501,1.2501,1.223,1.2135,1.2135,1.1782,1.1619,1.1619,1.1619,1.1619,1.1619,1.1619,1.1619,1.1619,1.1619,1.1619,1.1619,1.1619,1.1619,1.1945,1.2128,1.2298,1.2345,1.2427,1.2501,0.0,0.0,1.2501,1.2501,1.2535,1.2603,1.2712,1.28,1.2929,1.3139,1.3125,1.3125,1.3227,1.3241,1.3241,0.0,0.0,1.3403,0.0,1.3668,1.3966,1.4278,1.4299,1.4299,1.4299,1.4299,1.4299,1.4299,1.4299,1.4299,1.4299,1.4299,1.4299,1.4299,1.4299,1.4299,1.4299,1.4299,1.4299,1.4299,1.4299,1.4299,0.0,1.4136,1.398,1.3824,1.3682,1.3539,1.3403,1.3403,1.3403,1.3403,1.3403,1.3403,1.3403,1.3403,1.3403,1.3403,1.3403,1.3403,1.3403,1.3403,1.3403,1.3403,1.3403,1.3403,1.3363,1.3207,1.3064,1.2915,1.2766,1.261,1.2501,1.2501,1.2501,1.2501,1.2501,1.2501,1.2501,1.2501,1.2501,1.2501,1.2501,1.2501,1.2501,1.2501,1.2501,1.2501,1.2501,1.223,1.2135,1.2135,1.1782,1.1619,1.1619,1.1619,1.1619,1.1619,1.1619,1.1619,1.1619,1.1619,1.1619,1.1619,1.1619,1.1619,1.2203,1.2291,1.2325,1.2467,1.2501,1.2501,1.2501,1.2501,1.2501,1.2501,1.2623,1.2725,1.2732,1.2969,1.3166,1.3173,1.3302,0.0,1.3397,1.3397,1.3397,0.0,0.0,1.3403,1.3403,1.3668,1.3966,1.4278,1.4299,0.0,1.4299,1.4299,1.4299,1.4299,1.4299,1.4299,1.4299,1.4299,1.4299,1.4299,1.4299,1.4299,1.4299,1.4299,1.4299,1.4299,1.4299,1.4299,0.0,1.4136,1.398,1.3824,1.3682,1.3539,1.3403,1.3403,1.3403,1.3403,1.3403,1.3403,1.3403,1.3403,1.3403,1.3403,1.3403,1.3403,1.3403,1.3403,1.3403,1.3403,1.3403,1.3403,1.3363,1.3207,1.3064,1.2915,1.2766,1.261,1.2501,1.2501,1.2501,1.2501,1.2501,1.2501,1.2501,1.2501,1.2501,1.2501,1.2501,1.2501,1.2501,1.2501,1.2501,1.2501,1.2501,1.223,1.2135,1.2135,1.1782,1.1619,1.1619,1.1619,1.1619,1.1619,1.1619,1.1619,1.1619,1.1619,1.1619,1.1619,1.1619,1.1619,1.2264,1.2359,1.2447,1.2488,1.2501,1.2501,1.2501,1.2501,1.2501,1.2501,1.2623,1.2759,1.2868,1.3044,1.3207,1.3308,1.337,1.3403,0.0,0.0,0.0,1.3403,1.3403,1.3444,0.0,0.0,1.3926,1.4129,1.4238,1.4299,1.4299,1.4299,1.4299,1.4299,1.4299,1.4299,1.4299,1.4299,1.4299,1.4299,1.4299,1.4299,1.4299,1.4299,1.4299,1.4299,1.4299,1.4238,1.4129,1.398,1.3824,1.3682,1.3532,1.3444,1.3403,1.3403,1.3403,1.3403,1.3403,1.3403,1.3403,1.3403,1.3403,1.3403,1.3403,1.3403,1.3403,1.3403,1.3403,1.3403,1.3403,1.3403,1.339,1.3342,1.3139,1.2949,1.2901,1.2684,1.2501,1.2501,1.2501,1.2501,1.2501,1.2501,1.2501,1.2501,1.2501,1.2501,1.2501,1.2501,1.2501,1.2501,1.2501,1.2501,1.2501,1.223,1.2135,1.2135,1.1782,1.1619,1.1619,1.1619,1.1619,1.1619,1.1619,1.1619,1.1619,1.1619,1.1619,1.1619,1.1619,1.1619,1.2372,1.2433,1.2501,1.2501,1.2501,1.2501,1.2501,1.2501,1.2501,1.2501,1.2671,1.2847,1.2942,1.3125,1.3288,1.3383,1.3403,1.3403,0.0,0.0,0.0,1.3403,0.0,0.0,0.0,1.3756,1.3905,1.4061,1.4211,1.4299,1.4299,1.4299,1.4299,1.4299,1.4299,1.4299,1.4299,1.4299,1.4299,1.4299,1.4299,1.4299,1.4299,1.4299,1.4299,1.4299,1.4238,1.4156,0.0,1.3844,1.3709,1.3614,1.3458,1.3403,1.3403,1.3403,1.3403,1.3403,1.3403,1.3403,1.3403,1.3403,1.3403,1.3403,1.3403,1.3403,1.3403,1.3403,1.3403,1.3403,1.3403,1.3403,1.3403,1.3403,1.3173,1.2963,1.2963,1.2718,1.2501,1.2501,1.2501,1.2501,1.2501,1.2501,1.2501,1.2501,1.2501,1.2501,1.2501,1.2501,1.2501,1.2501,1.2501,1.2501,1.2501,1.2284,1.2121,1.2067,1.1837,1.1674,1.1619,1.1619,1.1619,1.1619,1.1619,1.1619,1.1619,1.1619,1.1619,1.1619,1.1619,1.1619,0.0,1.2501,1.2501,1.2501,1.2501,1.2501,1.2501,1.2501,0.0,1.2501,1.2745,1.2963,1.2963,1.32,1.3403,1.3403,1.3403,1.3403,0.0,1.3403,0.0,0.0,1.3403,0.0,1.36,1.3743,1.3892,1.4041,1.4197,1.4285,1.4299,1.4299,1.4299,1.4299,1.4299,1.4299,1.4299,1.4299,1.4299,1.4299,1.4299,1.4299,1.4299,1.4299,1.4292,0.0,1.4136,1.4061,1.4021,1.3743,1.362,1.36,1.3458,1.3403,1.3403,1.3403,1.3403,1.3403,1.3403,1.3403,1.3403,1.3403,1.3403,1.3403,1.3403,1.3403,1.3403,1.3403,1.3403,1.3403,1.3403,1.3403,1.3403,1.3403,1.3173,1.2963,1.2963,1.2718,1.2501,1.2501,1.2501,1.2501,1.2501,1.2501,1.2501,1.2501,1.2501,1.2501,1.2501,1.2501,1.2501,1.2501,1.2501,1.2501,1.2501,1.2372,1.2223,1.2149,1.1918,1.1769,1.1626,1.1619,1.1619,1.1619,1.1619,1.1619,1.1619,1.1619,1.1619,1.1619,1.1619,1.1619,1.2501,0.0,1.2501,1.2501,1.2501,1.2501,0.0,1.2501,1.2501,1.2501,1.2745,1.2963,1.2963,1.32,1.3403,1.3403,1.3403,1.3403,1.3403,0.0,0.0,1.3403,1.3403,1.3417,1.3451,1.3593,1.3736,1.3885,1.4034,1.4177,1.4292,1.4299,1.4299,1.4299,1.4299,1.4299,1.4299,1.4299,1.4299,1.4299,1.4299,1.4299,1.4299,1.4299,1.4238,1.4122,1.4089,1.3939,1.3729,1.3654,1.3559,1.3451,1.3417,1.3403,1.3403,1.3403,1.3403,1.3403,1.3403,1.3403,1.3403,1.3403,1.3403,1.3403,1.3403,1.3403,1.3403,1.3403,1.3403,1.3403,1.3403,1.3403,1.3403,1.3403,1.3173,1.2963,1.2963,1.2718,1.2501,1.2501,1.2501,1.2501,1.2501,1.2501,1.2501,1.2501,1.2501,1.2501,1.2501,1.2501,1.2501,1.2501,1.2501,1.2501,1.2501,1.2372,1.2223,1.2149,1.1918,1.1769,1.1626,1.1619,1.1619,1.1619,1.1619,1.1619,1.1619,1.1619,1.1619,1.1619,1.1619,1.1619,1.2501,1.2501,1.2501,1.2501,1.2501,1.2501,1.2501,1.2501,1.2501,1.2501,1.2745,1.2963,1.2963,1.32,1.3403,1.3403,1.3403,0.0,0.0,0.0,1.3403,1.3403,1.3403,1.3403,0.0,1.3539,1.3661,1.3736,1.3885,1.4034,1.419,1.4129,1.4122,1.419,1.4129,1.4156,1.4299,1.4299,1.4265,1.4197,1.4197,1.4156,1.4089,1.4089,1.4041,1.396,1.3899,1.3777,1.3627,1.3553,1.3478,1.3403,1.3403,1.3403,1.3403,1.3403,1.3403,1.3403,1.3403,1.3403,1.3403,1.3403,1.3403,1.3403,1.3403,1.3403,1.3403,1.3403,1.3403,1.3403,1.3403,1.3403,1.3403,1.3403,1.3173,1.2963,1.2963,1.2718,1.2501,1.2501,1.2501,1.2501,1.2501,1.2501,1.2501,1.2501,1.2501,1.2501,1.2501,1.2501,1.2501,1.2501,1.2501,1.2501,1.2501,1.2433,1.2291,1.2074,1.1986,1.1843,1.1626,1.1619,1.1619,1.1619,1.1619,1.1619,1.1619,1.1619,1.1619,1.1619,1.1619,1.1619,1.2501,1.2501,1.2501,1.2501,1.2501,1.2501,1.2501,1.2501,0.0,0.0,0.0,0.0,0.0,1.32,0.0,0.0,0.0,0.0,1.3403,1.3403,1.3403,1.3403,1.3403,0.0,1.3403,1.3519,1.3607,1.3627,1.3743,1.3871,1.4027,1.3912,1.3899,1.4034,1.3912,1.3966,1.4224,1.4231,1.4163,1.4034,1.4034,1.3966,1.3838,1.3838,1.3831,1.3804,0.0,0.0,1.3587,1.3451,1.3403,1.3403,1.3403,1.3403,1.3403,1.3403,1.3403,1.3403,1.3403,1.3403,1.3403,1.3403,1.3403,1.3403,1.3403,1.3403,1.3403,1.3403,1.3403,1.3403,1.3403,1.3403,1.3403,1.3403,1.3173,1.2963,1.2963,1.2718,1.2501,1.2501,1.2501,1.2501,1.2501,1.2501,1.2501,1.2501,1.2501,1.2501,1.2501,1.2501,1.2501,1.2501,1.2501,1.2501,1.2501,1.2501,1.2372,1.2155,1.2135,1.1932,1.1633,1.1619,1.1619,1.1619,1.1619,1.1619,1.1619,1.1619,1.1619,1.1619,1.1619,1.1619,1.2501,1.2501,1.2501,1.2501,1.2501,1.2501,1.2501,1.2501,1.2501,0.0,0.0,0.0,0.0,1.32,1.3403,0.0,0.0,1.3403,0.0,0.0,1.3403,1.3403,0.0,1.3403,1.3403,1.3424,1.3492,1.362,1.3648,1.3722,1.3871,1.3851,1.3851,1.3878,1.3851,1.3779,1.3912,1.3912,1.3899,1.3878,1.3878,1.3865,1.3838,1.3838,1.3777,1.3661,0.0,1.3553,1.3437,1.341,1.3403,1.3403,1.3403,1.3403,1.3403,1.3403,1.3403,1.3403,1.3403,1.3403,1.3403,1.3403,1.3403,1.3403,1.3403,1.3403,1.3403,1.3403,1.3403,1.3403,1.3403,1.3403,1.3403,1.3403,1.3173,1.2963,1.2963,1.2718,1.2501,1.2501,1.2501,1.2501,1.2501,1.2501,1.2501,1.2501,1.2501,1.2501,1.2501,1.2501,1.2501,1.2501,1.2501,1.2501,1.2501,1.2501,1.2372,1.2155,1.2135,1.1932,1.1633,1.1619,1.1619,1.1619,1.1619,1.1619,1.1619,1.1619,1.1619,1.1619,1.1619,1.1619,1.2501,1.2501,1.2501,1.2501,1.2501,1.2501,1.2501,1.2501,1.2501,0.0,0.0,0.0,0.0,0.0,1.3403,1.3403,0.0,1.3403,1.3403,1.3403,1.3403,0.0,0.0,1.3403,1.3403,1.3403,1.3431,1.3498,1.3505,1.3566,1.3715,1.3648,1.3641,1.3722,1.3648,1.36,1.36,1.36,1.3648,1.3729,1.3729,1.3682,1.36,1.36,1.3566,1.3505,0.0,1.3464,1.3403,1.3403,1.3403,1.3403,1.3403,1.3403,1.3403,1.3403,1.3403,1.3403,1.3403,1.3403,1.3403,1.3403,1.3403,1.3403,1.3403,1.3403,1.3403,1.3403,1.3403,1.3403,1.3403,1.3403,1.3403,1.3403,1.3173,1.2963,1.2963,1.2718,1.2501,1.2501,1.2501,1.2501,1.2501,1.2501,1.2501,1.2501,1.2501,1.2501,1.2501,1.2501,1.2501,1.2501,1.2501,1.2501,1.2501,1.2501,1.2372,1.2155,1.1911,1.1762,1.1626,1.1619,1.1619,1.1619,1.1619,1.1619,1.1619,1.1619,1.1619,1.1619,1.1619,1.1619,1.2501,1.2501,1.2501,1.2501,1.2501,1.2501,1.2501,1.2501,1.2501,1.2501,0.0,0.0,0.0,1.32,0.0,1.3403,1.3403,1.3403,1.3403,1.3403,1.3403,1.3403,1.3403,1.3403,1.3403,1.3403,1.3403,1.3403,1.3403,1.3451,1.3566,1.3464,1.3458,1.3573,1.3464,1.3403,1.3403,1.3403,1.3458,1.3573,1.3573,1.3512,1.3403,1.3403,1.3403,1.3403,1.3403,1.3403,1.3403,1.3403,1.3403,1.3403,1.3403,1.3403,1.3403,1.3403,1.3403,1.3403,1.3403,1.3403,1.3403,1.3403,1.3403,1.3403,1.3403,1.3403,1.3403,1.3403,1.3403,1.3403,1.3403,1.3403,1.3403,1.3403,1.3173,1.2963,1.2963,1.2718,1.2501,1.2501,1.2501,1.2501,1.2501,1.2501,1.2501,1.2501,1.2501,1.2501,1.2501,1.2501,1.2501,1.2501,1.2501,1.2501,1.2501,1.2474,1.2338,1.2081,1.1816,1.1653,1.1619,1.1619,1.1619,1.1619,1.1619,1.1619,1.1619,1.1619,1.1619,1.1619,1.1619,1.1619,1.2501,1.2501,1.2501,1.2501,1.2501,1.2501,1.2501,1.2501,1.2501,1.2501,1.2745,0.0,0.0,1.32,1.3403,1.3403,1.3403,1.3403,1.3403,0.0,1.3403,1.3403,1.3403,1.3403,1.3403,1.3403,1.3403,1.3403,1.3403,1.3403,1.3417,1.3403,1.3403,1.3417,1.3403,1.3403,1.3403,1.3403,1.3403,1.3417,1.3417,1.341,1.3403,1.3403,1.3403,1.3403,1.3403,1.3403,1.3403,1.3403,1.3403,1.3403,1.3403,1.3403,1.3403,1.3403,1.3403,1.3403,1.3403,1.3403,1.3403,1.3403,1.3403,1.3403,1.3403,1.3403,1.3403,1.3403,1.3403,1.3403,1.3403,1.3403,1.3403,1.3403,1.3173,1.2963,1.2963,1.2718,1.2501,1.2501,1.2501,1.2501,1.2501,1.2501,1.2501,1.2501,1.2501,1.2501,1.2501,1.2501,1.2501,1.2501,1.2501,1.2501,1.2501,1.2379,1.2237,1.2149,1.1904,1.1755,1.1626,1.1619,1.1619,1.1619,1.1619,1.1619,1.1619,1.1619,1.1619,1.1619,1.1619,1.1619,1.2501,1.2501,1.2501,1.2501,1.2501,1.2501,1.2501,1.2501,1.2501,1.2501,1.2745,1.3017,0.0,0.0,1.3403,1.3403,1.3403,1.3403,1.3403,1.3403,1.3403,1.3403,1.3403,1.3403,1.3403,1.3403,1.3403,1.3403,1.3403,1.3403,1.3403,1.3403,1.3403,1.3403,1.3403,1.3403,1.3403,1.3403,1.3403,1.3403,1.3403,1.3403,1.3403,1.3403,1.3403,1.3403,1.3403,1.3403,1.3403,1.3403,1.3403,1.3403,1.3403,1.3403,1.3403,1.3403,1.3403,1.3403,1.3403,1.3403,1.3403,1.3403,1.3403,1.3403,1.3403,1.3403,1.3403,1.3403,1.3403,1.3403,1.3403,1.3403,1.3403,1.3403,1.3173,1.2963,1.2963,1.2718,1.2501,1.2501,1.2501,1.2501,1.2501,1.2501,1.2501,1.2501,1.2501,1.2501,1.2501,1.2501,1.2501,1.2501,1.2501,1.2501,1.2501,1.2454,1.2359,1.221,1.1965,1.1769,1.1626,1.1619,1.1619,1.1619,1.1619,1.1619,1.1619,1.1619,1.1619,1.1619,1.1619,1.1619,1.2501,1.2501,1.2501,1.2501,1.2501,1.2501,1.2501,1.2501,1.2501,1.2501,1.2745,1.3051,1.3349,0.0,0.0,0.0,1.3403,1.3403,1.3403,1.3403,1.3403,1.3403,1.3403,1.3403,1.3403,1.3403,1.3403,1.3403,1.3403,1.3403,1.3403,1.3403,1.3403,1.3403,1.3403,1.3403,1.3403,1.3403,1.3403,1.3403,1.3403,1.3403,1.3403,1.3403,1.3403,1.3403,1.3403,1.3403,1.3403,1.3403,1.3403,1.3403,1.3403,1.3403,1.3403,1.3403,1.3403,1.3403,1.3403,1.3403,1.3403,1.3403,1.3403,1.3403,1.3403,1.3403,1.3403,1.3403,1.3403,1.3403,1.3403,1.3403,1.3403,1.3403,1.3207,1.3017,1.2969,1.2759,1.2562,1.2508,1.2501,1.2501,1.2501,1.2501,1.2501,1.2501,1.2501,1.2501,1.2501,1.2501,1.2501,1.2501,1.2501,1.2501,1.2501,1.2501,1.244,1.2298,1.2047,1.1837,1.1694,1.164,1.1619,1.1619,1.1619,1.1619,1.1619,1.1619,1.1619,1.1619,1.1619,1.1619,1.2501,1.2501,1.2501,1.2501,1.2501,1.2501,1.2501,1.2501,1.2501,1.2508,1.2752,1.3051,1.3349,1.3403,0.0,1.3403,1.3403,1.3403,1.3403,1.3403,1.3403,1.3403,1.3403,1.3403,1.3403,1.3403,1.3403,1.3403,1.3403,1.3403,1.3403,1.3403,1.3403,1.3403,1.3403,1.3403,1.3403,1.3403,1.3403,1.3403,1.3403,1.3403,1.3403,1.3403,1.3403,1.3403,1.3403,1.3403,1.3403,1.3403,1.3403,1.3403,1.3403,1.3403,1.3403,1.3403,1.3403,1.3403,1.3403,1.3403,1.3403,1.3403,1.3403,1.3403,1.3403,1.3403,1.3403,1.3403,1.3403,1.3403,1.3403,1.3403,1.3403,1.3403,1.3281,1.3132,1.299,1.284,1.2684,1.2528,1.2501,1.2501,1.2501,1.2501,1.2501,1.2501,1.2501,1.2501,1.2501,1.2501,1.2501,1.2501,1.2501,1.2501,1.2501,1.2501,1.244,1.2298,1.2149,1.1993,1.1837,1.1694,1.1619,1.1619,1.1619,1.1619,1.1619,1.1619,1.1619,1.1619,1.1619,1.1619,1.2501,1.2501,1.2501,1.2501,1.2501,1.2501,1.2501,1.2501,1.2562,0.0,1.2976,1.3166,1.3363,1.3403,0.0,1.3403,1.3403,1.3403,1.3403,1.3403,1.3403,1.3403,1.3403,1.3403,1.3403,1.3403,1.3403,1.3403,1.3403,1.3403,1.3403,1.3403,1.3403,1.3403,1.3403,1.3403,1.3403,1.3403,1.3403,1.3403,1.3403,1.3403,1.3403,1.3403,1.3403,1.3403,1.3403,1.3403,1.3403,1.3403,1.3403,1.3403,1.3403,1.3403,1.3403,1.3403,1.3403,1.3403,1.3403,1.3403,1.3403,1.3403,1.3403,1.3403,1.3403,1.3403,1.3403,1.3403,1.3403,1.3403,1.3403,1.3403,1.3403,1.3403,1.3281,1.3132,1.299,1.284,1.2684,1.2528,1.2501,1.2501,1.2501,1.2501,1.2501,1.2501,1.2501,1.2501,1.2501,1.2501,1.2501,1.2501,1.2501,1.2501,1.2501,1.2501,1.2481,1.244,1.2305,1.2108,1.1843,1.1694,1.1619,1.1619,1.1619,1.1619,1.1619,1.1619,1.1619,1.1619,1.1619,1.1619,1.2501,1.2501,1.2501,1.2501,1.2501,1.2515,1.2576,0.0,0.0,0.0,1.3112,1.322,1.337,1.3403,0.0,1.3403,1.3403,1.3403,1.3403,1.3403,1.3403,1.3403,1.3403,1.3403,1.3403,1.3403,1.3403,1.3403,1.3403,1.3403,1.3403,1.3403,1.3403,1.3403,1.3403,1.3403,1.3403,1.3403,1.3403,1.3403,1.3403,1.3403,1.3403,1.3403,1.3403,1.3403,1.3403,1.3403,1.3403,1.3403,1.3403,1.3403,1.3403,1.3403,1.3403,1.3403,1.3403,1.3403,1.3403,1.3403,1.3403,1.3403,1.3403,1.3403,1.3403,1.3403,1.3403,1.3403,1.3403,1.3403,1.3403,1.3403,1.3403,1.3403,1.3329,1.3207,1.3003,1.2888,1.2759,1.2542,1.2501,1.2501,1.2501,1.2501,1.2501,1.2501,1.2501,1.2501,1.2501,1.2501,1.2501,1.2501,1.2501,1.2501,1.2501,1.2501,1.2501,1.2501,1.2366,1.2182,1.1932,1.1782,1.1681,1.1619,1.1619,1.1619,1.1619,1.1619,1.1619,1.1619,1.1619,1.1619,1.2501,1.2515,1.2522,1.2522,1.2535,1.2583,1.2732,1.2773,1.2847,1.3119,0.0,1.3234,1.3376,1.3403,1.3403,1.3403,1.3403,1.3403,1.3403,1.3403,1.3403,1.3403,1.3403,1.3403,1.3403,1.3403,1.3403,1.3403,1.3403,1.3403,1.3403,1.3403,1.3403,1.3403,1.3403,1.3403,1.3403,1.3403,1.3403,1.3403,1.3403,1.3403,1.3403,1.3403,1.3403,1.3403,1.3403,1.3403,1.3403,1.3403,1.3403,1.3403,1.3403,1.3403,1.3403,1.3403,1.3403,1.3403,1.3403,1.3403,1.3403,1.3403,1.3403,1.3403,1.3403,1.3403,1.3403,1.3403,1.3403,1.3403,1.3403,1.3403,1.3403,1.3403,1.3403,1.3322,1.3044,1.2969,1.2874,1.2576,1.2508,1.2501,1.2501,1.2501,1.2501,1.2501,1.2501,1.2501,1.2501,1.2501,1.2501,1.2501,1.2501,1.2501,1.2501,1.2501,1.2501,1.2501,1.2379,1.2244,1.2088,1.1918,1.1762,1.1619,1.1619,1.1619,1.1619,1.1619,1.1619,1.1619,1.1619,1.1619,1.2501,1.2589,1.2678,1.2678,1.2773,1.2901,1.3044,1.3078,1.3091,1.3159,1.3268,1.3363,1.3397,1.3403,1.3403,1.3403,1.3403,1.3403,1.3403,1.3403,1.3403,1.3403,1.3403,1.3403,1.3403,1.3403,1.3403,1.3403,1.3403,1.3403,1.3403,1.3403,1.3403,1.3403,1.3403,1.3403,1.3403,1.3403,1.3403,1.3403,1.3403,1.3403,1.3403,1.3403,1.3403,1.3403,1.3403,1.3403,1.3403,1.3403,1.3403,1.3403,1.3403,1.3403,1.3403,1.3403,1.3403,1.3403,1.3403,1.3403,1.3403,1.3403,1.3403,1.3403,1.3403,1.3403,1.3403,1.3403,1.3403,1.3403,1.3403,1.3403,1.3403,1.3403,1.3403,1.3349,1.3166,1.3037,1.2908,1.2718,1.2583,1.2501,1.2501,1.2501,1.2501,1.2501,1.2501,1.2501,1.2501,1.2501,1.2501,1.2501,1.2501,1.2501,1.2501,1.2501,1.2501,1.2501,1.2474,1.2393,1.2244,1.1979,1.1762,1.1619,1.1619,1.1619,1.1619,1.1619,1.1619,1.1619,1.1619,1.1619,1.2718,1.2779,0.0,1.284,0.0,1.3078,1.3152,1.3227,1.3281,1.3281,1.3342,1.3403,1.3403,1.3403,1.3403,1.3403,1.3403,1.3403,1.3403,1.3403,1.3403,1.3403,1.3403,1.3403,1.3403,1.3403,1.3403,1.3403,1.3403,1.3403,1.3403,1.3403,1.3403,1.3403,1.3403,1.3403,1.3403,1.3403,1.3403,1.3403,1.3403,1.3403,1.3403,1.3403,1.3403,1.3403,1.3403,1.3403,1.3403,1.3403,1.3403,1.3403,1.3403,1.3403,1.3403,1.3403,1.3403,1.3403,1.3403,1.3403,1.3403,1.3403,1.3403,1.3403,1.3403,1.3403,1.3403,1.3403,1.3403,1.3403,1.3403,1.3403,1.3403,1.3403,1.3403,1.3356,1.3207,1.3112,1.2996,1.2773,1.2664,1.2589,1.2515,1.2501,1.2501,1.2501,1.2501,1.2501,1.2501,1.2501,1.2501,1.2501,1.2501,1.2501,1.2501,1.2501,1.2501,1.2501,1.2501,1.244,1.2298,1.2067,1.187,1.1721,1.1653,1.1619,1.1619,1.1619,1.1619,1.1619,1.1619,1.1619,1.2963,1.3056,1.3003,1.303,1.3125,0.0,1.3214,1.3308,1.3403,1.3403,1.3403,1.3403,1.3403,1.3403,1.3403,1.3403,1.3403,1.3403,1.3403,1.3403,1.3403,1.3403,1.3403,1.3403,1.3403,1.3403,1.3403,1.3403,1.3403,1.3403,1.3403,1.3403,1.3403,1.3403,1.3403,1.3403,1.3403,1.3403,1.3403,1.3403,1.3403,1.3403,1.3403,1.3403,1.3403,1.3403,1.3403,1.3403,1.3403,1.3403,1.3403,1.3403,1.3403,1.3403,1.3403,1.3403,1.3403,1.3403,1.3403,1.3403,1.3403,1.3403,1.3403,1.3403,1.3403,1.3403,1.3403,1.3403,1.3403,1.3403,1.3403,1.3403,1.3403,1.3403,1.3403,1.3363,1.3241,1.3193,1.3098,1.2854,1.2766,1.2691,1.2562,1.2522,1.2501,1.2501,1.2501,1.2501,1.2501,1.2501,1.2501,1.2501,1.2501,1.2501,1.2501,1.2501,1.2501,1.2501,1.2501,1.2447,1.2332,1.2182,1.2026,1.187,1.1708,1.1619,1.1619,1.1619,1.1619,1.1619,1.1619,1.1619,1.2963,0.0,1.3173,0.0,1.3356,1.337,0.0,0.0,1.3403,0.0,1.3403,1.3403,1.3403,1.3403,1.3403,1.3403,1.3403,1.3403,1.3403,1.3403,1.3403,1.3403,1.3403,1.3403,1.3403,1.3403,1.3403,1.3403,1.3403,1.3403,1.3403,1.3403,1.3403,1.3403,1.3403,1.3403,1.3403,1.3403,1.3403,1.3403,1.3403,1.3403,1.3403,1.3403,1.3403,1.3403,1.3403,1.3403,1.3403,1.3403,1.3403,1.3403,1.3403,1.3403,1.3403,1.3403,1.3403,1.3403,1.3403,1.3403,1.3403,1.3403,1.3403,1.3403,1.3403,1.3403,1.3403,1.3403,1.3403,1.3403,1.3403,1.3403,1.3403,1.3403,1.3403,1.3397,1.3376,1.3268,1.3159,1.3119,1.2908,1.2725,1.2705,1.2589,1.2501,1.2501,1.2501,1.2501,1.2501,1.2501,1.2501,1.2501,1.2501,1.2501,1.2501,1.2501,1.2501,1.2501,1.2501,1.2494,1.2474,1.2338,1.2189,1.2033,1.1762,1.1619,1.1619,1.1619,1.1619,1.1619,1.1619,1.1619,1.3207,1.3254,1.3315,0.0,1.3403,1.3403,1.3403,1.3403,1.3403,1.3403,1.3403,1.3403,1.3403,1.3403,1.3403,1.3403,1.3403,1.3403,1.3403,1.3403,1.3403,1.3403,1.3403,1.3403,1.3403,1.3403,1.3403,1.3403,1.3403,1.3403,1.3403,1.3403,1.3403,1.3403,1.3403,1.3403,1.3403,1.3403,1.3403,1.3403,1.3403,1.3403,1.3403,1.3403,1.3403,1.3403,1.3403,1.3403,1.3403,1.3403,1.3403,1.3403,1.3403,1.3403,1.3403,1.3403,1.3403,1.3403,1.3403,1.3403,1.3403,1.3403,1.3403,1.3403,1.3403,1.3403,1.3403,1.3403,1.3403,1.3403,1.3403,1.3403,1.3403,1.3403,1.3403,1.3403,1.3403,1.3349,1.3275,1.3186,1.3003,1.2834,1.2745,1.2671,1.2603,1.2515,1.2501,1.2501,1.2501,1.2501,1.2501,1.2501,1.2501,1.2501,1.2501,1.2501,1.2501,1.2501,1.2501,1.2501,1.2501,1.2366,1.2257,1.2189,1.1891,1.1701,1.1619,1.1619,1.1619,1.1619,1.1619,1.1619,0.0,0.0,1.3403,1.3403,1.3403,1.3403,0.0,0.0,1.3403,0.0,1.3403,1.3403,1.3403,1.3403,1.3403,1.3403,1.3403,1.3403,1.3403,1.3403,1.3403,1.3403,1.3403,1.3403,1.3403,1.3403,1.3403,1.3403,1.3403,1.3403,1.3403,1.3403,1.3403,1.3403,1.3403,1.3403,1.3403,1.3403,1.3403,1.3403,1.3403,1.3403,1.3403,1.3403,1.3403,1.3403,1.3403,1.3403,1.3403,1.3403,1.3403,1.3403,1.3403,1.3403,1.3403,1.3403,1.3403,1.3403,1.3403,1.3403,1.3403,1.3403,1.3403,1.3403,1.3403,1.3403,1.3403,1.3403,1.3403,1.3403,1.3403,1.3403,1.3403,1.3403,1.3403,1.3403,1.3403,1.3403,1.337,1.3254,1.3112,1.2976,1.2861,1.2813,1.2739,1.2583,1.2562,1.2549,1.2508,1.2501,1.2501,1.2501,1.2501,1.2501,1.2501,1.2501,1.2501,1.2501,1.2501,1.2501,1.2501,1.24,1.2325,1.2291,1.2067,1.1857,1.1674,1.164,1.1619,1.1619,1.1619,1.1619,0.0,1.3403,0.0,1.3403,1.3403,1.3403,0.0,0.0,1.3403,1.3403,1.3403,1.3403,1.3403,1.3403,1.3403,1.3403,1.3403,1.3403,1.3403,1.3403,1.3403,1.3403,1.3403,1.3403,1.3403,1.3403,1.3403,1.3403,1.3403,1.3403,1.3403,1.3403,1.3403,1.3403,1.3403,1.3403,1.3403,1.3403,1.3403,1.3403,1.3403,1.3403,1.3403,1.3403,1.3403,1.3403,1.3403,1.3403,1.3403,1.3403,1.3403,1.3403,1.3403,1.3403,1.3403,1.3403,1.3403,1.3403,1.3403,1.3403,1.3403,1.3403,1.3403,1.3403,1.3403,1.3403,1.3403,1.3403,1.3403,1.3403,1.3403,1.3403,1.3403,1.3403,1.3403,1.3403,1.3403,1.3403,1.3397,1.339,1.3268,1.3159,1.3152,1.3037,1.2895,1.2739,1.2718,1.2664,1.2522,1.2501,1.2501,1.2501,1.2501,1.2501,1.2501,1.2501,1.2501,1.2501,1.2501,1.2501,1.2501,1.2494,1.2427,1.2291,1.2277,1.2121,1.1823,1.1687,1.1619,1.1619,1.1619,1.1619,0.0,0.0,0.0,1.3403,1.3403,1.3403,1.3403,1.3403,1.3403,1.3403,1.3403,1.3403,1.3403,1.3403,1.3403,1.3403,1.3315,1.3254,1.3254,1.3173,1.3119,1.3119,1.3119,1.3119,1.3119,1.3119,1.3119,1.3119,1.3119,1.3119,1.3119,1.3119,1.3119,1.3119,1.3119,1.3119,1.3119,1.3119,1.3119,1.3119,1.3119,1.3119,1.3119,1.3119,1.3119,1.3125,1.3214,1.3308,1.3403,1.3403,1.3403,1.3403,1.3403,1.3403,1.3403,1.3403,1.3403,1.3403,1.3403,1.3403,1.3403,1.3403,1.3403,1.3403,1.3403,1.3403,1.3403,1.3403,1.3403,1.3403,1.3403,1.3403,1.3403,1.3403,1.3403,1.3403,1.3403,1.3403,1.3403,1.3403,1.3356,1.3288,1.3193,1.3132,1.3044,1.2901,1.2874,1.282,1.2671,1.2651,1.261,1.2515,1.2501,1.2501,1.2501,1.2501,1.2501,1.2501,1.2501,1.2501,1.2501,1.2501,1.2474,1.2427,1.2338,1.2135,1.183,1.1782,1.1708,1.1619,1.1619,1.1619,1.3403,0.0,0.0,0.0,1.3403,1.3403,1.3403,0.0,1.3403,1.3403,1.3403,1.3403,1.3403,1.3403,1.3403,1.3403,1.3275,1.3173,1.3173,1.3051,1.2963,1.2963,1.2963,1.2963,1.2963,1.2963,1.2963,1.2963,1.2963,0.0,1.2963,1.2963,1.2963,1.2963,1.2963,1.2963,1.2963,1.2963,1.2963,1.2963,1.2963,1.2963,1.2963,1.2963,1.2963,1.2969,1.3064,1.3186,1.3329,1.3376,1.3403,1.3403,1.3403,1.3403,1.3403,1.3403,1.3403,1.3403,1.3403,1.3403,1.3403,1.3403,1.3403,1.3403,1.3403,1.3403,1.3403,1.3403,1.3403,1.3403,1.3403,1.3403,1.3403,1.3403,1.3403,1.3403,1.3403,1.3403,1.3403,1.3403,1.3403,1.337,1.3268,1.3247,1.32,1.3057,1.303,1.2976,1.2827,1.2759,1.2691,1.2589,1.2528,1.2501,1.2501,1.2501,1.2501,1.2501,1.2501,1.2501,1.2501,1.2501,1.2501,1.2501,1.2413,1.2237,1.1986,1.1884,1.1782,1.1687,1.164,1.1619,0.0,0.0,0.0,0.0,0.0,0.0,1.3403,0.0,1.3403,1.3403,1.3403,1.3403,1.3403,1.3403,1.3397,1.3397,1.3268,1.3166,1.3159,1.3037,1.3029,1.3029,1.3029,1.3029,1.3029,1.3029,1.3029,1.3029,1.3029,1.3029,1.3029,1.3029,1.3029,1.3029,1.3029,1.3029,1.3029,1.3029,1.3029,1.3029,1.3029,1.3029,1.3029,1.3029,1.3029,1.3029,1.2949,1.3037,1.318,1.3329,1.3397,1.3403,1.3403,1.3403,1.3403,1.3403,1.3403,1.3403,1.3403,1.3403,1.3403,1.3403,1.3403,1.3403,1.3403,1.3403,1.3403,1.3403,1.3403,1.3403,1.3403,1.3403,1.3403,1.3403,1.3403,1.3403,1.3403,1.3403,1.3403,1.3403,1.3403,1.3403,1.3403,1.3403,1.3349,1.32,1.318,1.3125,1.2983,1.2834,1.2739,1.2732,1.2596,1.2508,1.2501,1.2501,1.2501,1.2501,1.2501,1.2501,1.2501,1.2501,1.2501,1.2501,1.2501,1.2433,1.2298,1.1993,1.1843,1.1837,1.1694,1.1619,1.3403,0.0,0.0,0.0,0.0,0.0,1.3403,1.3403,1.3403,1.3403,1.3403,1.3403,1.3403,1.3403,1.3363,1.3254,1.3112,1.2983,1.2868,1.2725,1.263,1.263,1.263,1.263,1.263,1.263,1.263,0.0,1.263,1.263,1.263,1.263,1.263,1.263,1.263,1.263,1.263,1.263,1.263,1.263,1.263,1.263,1.263,1.263,1.263,1.2637,1.2745,1.2881,1.303,1.3173,1.3302,1.3403,1.3403,1.3403,1.3403,1.3403,1.3403,1.3403,1.3403,1.3403,1.3403,1.3403,1.3403,1.3403,1.3403,1.3403,1.3403,1.3403,1.3403,1.3403,1.3403,1.3403,1.3403,1.3403,1.3403,1.3403,1.3403,1.3403,1.3403,1.3403,1.3403,1.3403,1.3403,1.3403,1.339,1.3342,1.3336,1.3281,1.3132,1.3078,1.2969,1.2752,1.2691,1.2623,1.2508,1.2501,1.2501,1.2501,1.2501,1.2501,1.2501,1.2501,1.2501,1.2501,1.2501,1.2481,1.244,1.2257,1.2108,1.1993,1.1843,1.1714,0.0,0.0,0.0,0.0,0.0,0.0,1.3403,1.3403,1.3403,0.0,1.3403,1.3403,1.3403,1.3403,1.3329,1.3119,1.3017,1.2908,1.2752,1.2596,1.2501,1.2501,1.2501,1.2501,1.2501,1.2501,1.2501,1.2501,1.2501,1.2501,1.2501,1.2501,1.2501,1.2501,1.2501,1.2501,1.2501,1.2501,1.2501,1.2501,1.2501,1.2501,1.2501,1.2501,1.2501,1.2508,1.2596,1.2759,1.305,1.3051,1.3207,1.3403,1.3403,1.3403,1.3403,1.3403,1.3403,1.3403,1.3403,1.3403,1.3403,1.3403,1.3403,1.3403,1.3403,1.3403,1.3403,1.3403,1.3403,1.3403,1.3403,1.3403,1.3403,1.3403,1.3403,1.3403,1.3403,1.3403,1.3403,1.3403,1.3403,1.3403,1.3403,1.3403,1.3403,1.3403,1.3403,1.337,1.3281,1.3214,1.3105,1.2935,1.2807,1.2691,1.2603,1.2535,1.2501,1.2501,1.2501,1.2501,1.2501,1.2501,1.2501,1.2501,1.2501,1.2501,1.2501,1.2359,1.221,1.2135,1.1972,1.1884,0.0,0.0,0.0,1.3403,1.3403,0.0,1.3403,1.3403,1.3403,1.3403,1.3403,1.3403,1.3403,1.3403,1.3302,1.301,1.2963,1.2901,1.2725,1.2589,1.2501,1.2501,1.2501,1.2501,1.2501,1.2501,1.2501,1.2501,1.2501,1.2501,1.2501,1.2501,1.2501,1.2501,1.2501,1.2501,1.2501,1.2501,1.2501,1.2501,1.2501,1.2501,1.2501,1.2501,1.2501,1.2501,1.2522,1.2691,1.2963,1.3056,1.3152,1.3403,1.3403,1.3403,1.3403,1.3403,1.3403,1.3403,1.3403,1.3403,1.3403,1.3403,1.3403,1.3403,1.3403,1.3403,1.3403,1.3403,1.3403,1.3403,1.3403,1.3403,1.3403,1.3403,1.3403,1.3403,1.3403,1.3403,1.3403,1.3403,1.3403,1.3403,1.3403,1.3403,1.3403,1.3403,1.3403,1.3403,1.3403,1.3281,1.3193,1.3173,1.2922,1.2752,1.2732,1.2589,1.2501,1.2501,1.2501,1.2501,1.2501,1.2501,1.2501,1.2501,1.2501,1.2501,1.2501,1.2372,1.2237,1.2088,1.2088,1.2081,0.0,0.0,0.0,0.0,1.3403,0.0,1.3403,1.3403,1.3403,0.0,1.3403,1.3403,1.3403,1.3403,1.3302,1.301,1.2963,1.2861,1.2583,1.2522,1.2501,1.2501,1.2501,1.2501,1.2501,1.2501,1.2501,1.2501,1.2501,1.2501,1.2501,1.2501,1.2501,1.2501,1.2501,1.2501,1.2501,1.2501,1.2501,1.2501,1.2501,1.2501,1.2501,1.2501,1.2501,1.2508,1.263,1.2793,1.2969,1.3085,1.3241,1.3403,1.3403,1.3403,1.3403,1.3403,1.3403,1.3403,1.3403,1.3403,1.3403,1.3403,1.3403,1.3403,1.3403,1.3403,1.3403,1.3403,1.3403,1.3403,1.3403,1.3403,1.3403,1.3403,1.3403,1.3403,1.3403,1.3403,1.3403,1.3403,1.3403,1.3403,1.3403,1.3403,1.3403,1.3403,1.3403,1.3403,1.3403,1.3376,1.3308,1.3186,1.3017,1.2868,1.2739,1.2589,1.2501,1.2501,1.2501,1.2501,1.2501,1.2501,1.2501,1.2501,1.2501,1.2501,1.2501,1.2474,1.2386,1.2244,1.2244,1.2182,0.0,0.0,0.0,1.3403,1.3403,0.0,0.0,1.3403,1.3403,1.3403,1.3403,1.3403,1.3403,1.3403,1.3302,1.301,1.2963,1.2854,1.2549,1.2501,1.2501,1.2501,1.2501,1.2501,1.2501,1.2501,1.2501,1.2501,1.2501,1.2501,1.2501,1.2501,1.2501,1.2501,1.2501,1.2501,1.2501,1.2501,1.2501,1.2501,1.2501,1.2501,1.2501,1.2501,1.2501,1.2508,1.2664,1.282,1.2969,1.3112,1.3261,1.3403,1.3403,1.3403,1.3403,1.3403,1.3403,1.3403,1.3403,1.3403,1.3403,1.3403,1.3403,1.3403,1.3403,1.3403,1.3403,1.3403,1.3403,1.3403,1.3403,1.3403,1.3403,1.3403,1.3403,1.3403,1.3403,1.3403,1.3403,1.3403,1.3403,1.3403,1.3403,1.3403,1.3403,1.3403,1.3403,1.3403,1.3403,1.3403,1.337,1.3295,1.3152,1.3003,1.2861,1.2705,1.2583,1.2508,1.2501,1.2501,1.2501,1.2501,1.2501,1.2501,1.2501,1.2501,1.2501,1.2501,1.2467,1.2393,1.2393,1.2352,1.3403,0.0,0.0,0.0,1.3403,1.3403,0.0,0.0,0.0,1.3403,0.0,0.0,0.0,0.0,0.0,0.0,0.0,0.0,0.0,1.2522,0.0,1.2501,1.2501,1.2501,1.2501,1.2501,1.2501,1.2501,1.2501,1.2501,1.2501,1.2501,1.2501,1.2501,1.2501,1.2501,1.2501,1.2501,1.2501,1.2501,1.2501,1.2501,1.2501,1.2501,1.2515,1.2556,1.2705,1.2861,1.301,1.3159,1.3288,1.3403,1.3403,1.3403,1.3403,1.3403,1.3403,1.3403,1.3403,1.3403,1.3403,1.3403,1.3403,1.3403,1.3403,1.3403,1.3403,1.3403,1.3403,1.3403,1.3403,1.3403,1.3403,1.3403,1.3403,1.3403,1.3403,1.3403,1.3403,1.3403,1.3403,1.3403,1.3403,1.3403,1.3403,1.3403,1.3403,1.3403,1.3403,1.3403,1.3403,1.3403,1.3261,1.3112,1.2976,1.282,1.2664,1.2515,1.2501,1.2501,1.2501,1.2501,1.2501,1.2501,1.2501,1.2501,1.2501,1.2501,1.2501,1.2501,1.2501,1.2501,0.0,0.0,0.0,0.0,1.3403,1.3403,1.3403,0.0,1.3403,1.3403,0.0,0.0,0.0,0.0,0.0,0.0,0.0,0.0,1.2725,1.2589,1.2501,1.2501,1.2501,1.2501,1.2501,1.2501,1.2501,1.2501,1.2501,1.2501,1.2501,1.2501,1.2501,1.2501,1.2501,1.2501,1.2501,1.2501,1.2501,1.2501,1.2501,1.2501,1.2501,1.2501,1.2576,1.2712,1.2868,1.3017,1.3159,1.3315,1.3383,1.3403,1.3403,1.3403,1.3403,1.3403,1.3403,1.3403,1.3403,1.3403,1.3403,1.3403,1.3403,1.3403,1.3403,1.3403,1.3403,1.3403,1.3403,1.3403,1.3403,1.3403,1.3403,1.3403,1.3403,1.3403,1.3403,1.3403,1.3403,1.3403,1.3403,1.3403,1.3403,1.3403,1.3403,1.3403,1.3403,1.3403,1.3403,1.3403,1.3403,1.3403,1.3261,1.3112,1.2976,1.282,1.2664,1.2515,1.2501,1.2501,1.2501,1.2501,1.2501,1.2501,1.2501,1.2501,1.2501,1.2501,1.2501,1.2501,1.2501,1.2501,0.0,0.0,0.0,0.0,0.0,0.0,1.3403,0.0,1.3403,0.0,0.0,0.0,0.0,0.0,0.0,0.0,1.3003,0.0,0.0,0.0,1.2501,0.0,0.0,0.0,1.2501,1.2501,1.2501,1.2501,1.2501,1.2501,1.2501,1.2501,1.2501,1.2501,1.2501,1.2501,1.2501,1.2501,1.2501,1.2501,1.2501,1.2501,1.2501,1.2501,1.2583,1.2739,1.2895,1.3044,1.3186,1.3336,1.3403,1.3403,1.3403,1.3403,1.3403,1.3403,1.3403,1.3403,1.3403,1.3403,1.3403,1.3403,1.3403,1.3403,1.3403,1.3403,1.3403,1.3403,1.3403,1.3403,1.3403,1.3403,1.3403,1.3403,1.3403,1.3403,1.3403,1.3403,1.3403,1.3403,1.3403,1.3403,1.3403,1.3403,1.3403,1.3403,1.3403,1.3403,1.3403,1.3403,1.3403,1.3403,1.3342,1.3247,1.3098,1.2949,1.28,1.2644,1.2549,1.2501,1.2501,1.2501,1.2501,1.2501,1.2501,1.2501,1.2501,1.2501,1.2501,1.2501,1.2501,1.2501,1.3403,0.0,0.0,0.0,0.0,0.0,0.0,0.0,0.0,0.0,0.0,0.0,0.0,0.0,0.0,0.0,0.0,1.2868,0.0,1.2528,0.0,0.0,0.0,0.0,0.0,1.2501,1.2501,1.2501,1.2501,1.2501,1.2501,1.2501,1.2501,1.2501,1.2501,1.2501,1.2501,1.2501,1.2501,1.2501,1.2501,1.2501,1.2501,1.2501,1.261,1.28,1.2915,1.3064,1.3247,1.3356,1.3403,1.3403,1.3403,1.3403,1.3403,1.3403,1.3403,1.3403,1.3403,1.3403,1.3403,1.3403,1.3403,1.3403,1.3403,1.3403,1.3403,1.3403,1.3403,1.3403,1.3403,1.3403,1.3403,1.3403,1.3403,1.3403,1.3403,1.3403,1.3403,1.3403,1.3403,1.3403,1.3403,1.3403,1.3403,1.3403,1.3403,1.3403,1.3403,1.3403,1.3403,1.3403,1.3403,1.3342,1.3186,1.3078,1.2935,1.2745,1.2583,1.2501,1.2501,1.2501,1.2501,1.2501,1.2501,1.2501,1.2501,1.2501,1.2501,1.2501,1.2501,1.2501,0.0,0.0,0.0,1.3403,1.3403,0.0,0.0,0.0,1.3403,0.0,0.0,0.0,0.0,0.0,0.0,0.0,0.0,0.0,0.0,0.0,0.0,0.0,0.0,0.0,0.0,1.2501,1.2501,0.0,1.2501,1.2501,1.2501,1.2501,1.2501,1.2501,1.2501,1.2501,1.2501,1.2501,1.2501,1.2501,1.2501,1.2501,1.2501,1.2501,1.2671,1.2956,1.3043,1.3125,1.3397,1.3397,1.3403,1.3403,1.3403,1.3403,1.3403,1.3403,1.3403,1.3403,1.3403,1.3403,1.3403,1.3403,1.3403,1.3403,1.3403,1.3403,1.3403,1.3403,1.3403,1.3403,1.3403,1.3403,1.3403,1.3403,1.3403,1.3403,1.3403,1.3403,1.3403,1.3403,1.3403,1.3403,1.3403,1.3403,1.3403,1.3403,1.3403,1.3403,1.3403,1.3403,1.3403,1.3403,1.3403,1.3342,1.3186,1.3166,1.3044,1.2745,1.2583,1.2501,1.2501,1.2501,1.2501,1.2501,1.2501,1.2501,1.2501,1.2501,1.2501,1.2501,1.2501,1.2501,1.3403,1.3403,1.3403,1.3403,1.3403,1.3403,0.0,0.0,0.0,0.0,0.0,0.0,0.0,0.0,0.0,0.0,0.0,0.0,0.0,0.0,0.0,0.0,0.0,0.0,0.0,0.0,0.0,0.0,1.2501,0.0,1.2501,1.2501,1.2501,1.2501,1.2501,1.2501,1.2501,1.2501,1.2501,1.2501,1.2501,1.2501,1.2508,1.261,1.2766,1.2969,1.3057,1.3214,1.3403,1.3403,1.3403,1.3403,1.3403,1.3403,1.3403,1.3403,1.3403,1.3403,1.3403,1.3403,1.3403,1.3403,1.3403,1.3403,1.3403,1.3403,1.3403,1.3403,1.3403,1.3403,1.3403,1.3403,1.3403,1.3403,1.3403,1.3403,1.3403,1.3403,1.3403,1.3403,1.3403,1.3403,1.3403,1.3403,1.3403,1.3403,1.3403,1.3403,1.3403,1.3403,1.3403,1.3403,1.3403,1.3376,1.3329,1.3227,1.3091,1.2895,1.2739,1.2651,1.2651,1.2556,1.2501,1.2501,1.2501,1.2501,1.2501,1.2501,1.2501,1.2501,1.2501,1.2501,1.3403,1.3403,1.3403,1.3403,1.3403,1.3403,1.3403,0.0,1.3403,0.0,0.0,0.0,0.0,0.0,0.0,0.0,0.0,0.0,0.0,1.2501,0.0,0.0,0.0,0.0,0.0,0.0,0.0,0.0,0.0,0.0,0.0,1.2501,1.2501,1.2501,1.2501,1.2501,1.2501,1.2501,1.2501,1.2501,1.2501,1.2501,1.2508,1.2657,1.2813,1.305,1.3112,1.3261,1.3403,1.3403,1.3403,1.3403,1.3403,1.3403,1.3403,1.3403,1.3403,1.3403,1.3403,1.3403,1.3403,1.3403,1.3403,1.3403,1.3403,1.3403,1.3403,1.3403,1.3403,1.3403,1.3403,1.3403,1.3403,1.3403,1.3403,1.3403,1.3403,1.3403,1.3403,1.3403,1.3403,1.3403,1.3403,1.3403,1.3403,1.3403,1.3403,1.3403,1.3403,1.3403,1.3403,1.3403,1.3403,1.3403,1.3403,1.3261,1.3132,1.3044,1.2895,1.2813,1.2813,1.2718,1.2664,1.2664,1.2664,1.2664,1.2664,1.2664,1.2637,1.2583,1.2583,1.2556]}]]